[[{"header":{"parameterUnit":"m.s-1","parameterCategory":1,"la1":30.6,"la2":29.2853,"lo1":-89.7004,"lo2":-87.6739,"dy":0.0162,"dx":0.0183,"nx":112,"ny":82,"refTime":"2024-06-07T12:00:00:Z","depth":0,"parameterNumber":2,"parameterNumberName":"U-component_of_WINDS"},"data":[0.0,0.0,0.0,0.0,0.0,0.0,0.0,0.0,0.0,0.0,0.0,0.0,0.0,0.0,0.0,0.0,0.0,0.0,0.0,0.0,0.0,0.0,0.0,0.0,0.0,0.0,0.0,0.0,0.0,0.0,0.0,0.0,0.0,0.0,0.0,0.0,0.0,0.0,0.0,0.0,0.0,0.0,0.0,0.0,0.0,0.0,0.0,0.0,0.0,0.0,0.0,0.0,0.0,0.0,0.0,0.0,0.0,0.0,0.0,0.0,0.0,0.0,0.0,0.0,0.0,0.0,0.0,0.0,0.0,0.0,0.0,0.0,0.0,0.0,0.0,0.0,0.0,0.0,0.0,0.0,0.0,0.0,0.0,0.0,0.0,0.0,0.0,0.0,0.0,0.0,0.0,-0.8668,-1.0954,-1.2422,-1.2508,-1.22,-1.0994,-0.8691,0.0,0.0,0.0,0.0,0.0,0.0,0.0,0.0,0.0,0.0,0.0,0.0,0.0,0.0,0.0,0.0,0.0,0.0,0.0,0.0,0.0,0.0,0.0,0.0,0.0,0.0,0.0,0.0,0.0,0.0,0.0,0.0,0.0,0.0,0.0,0.0,0.0,0.0,0.0,0.0,0.0,0.0,0.0,0.0,0.0,0.0,0.0,0.0,0.0,0.0,0.0,0.0,0.0,0.0,0.0,0.0,0.0,0.0,0.0,0.0,0.0,0.0,0.0,0.0,0.0,0.0,0.0,0.0,0.0,0.0,0.0,0.0,0.0,0.0,0.0,0.0,0.0,0.0,0.0,0.0,0.0,0.0,0.0,0.0,0.0,0.0,0.0,0.0,0.0,0.0,0.0,0.0,0.0,0.0,0.0,0.0,0.0,0.0,0.0,0.0,0.0,0.0,0.0,0.0,-0.7399,-1.0014,-1.0487,-1.0934,-1.1722,-1.1131,-1.0275,-0.9139,0.0,0.0,0.0,0.0,0.0,0.0,0.0,0.0,0.0,0.0,0.0,0.0,0.0,0.0,0.0,0.0,0.0,0.0,0.0,0.0,0.0,0.0,0.0,0.0,0.0,0.0,0.0,0.0,0.0,0.0,0.0,0.0,0.0,0.0,0.0,0.0,0.0,0.0,0.0,0.0,0.0,0.0,0.0,0.0,0.0,0.0,0.0,0.0,0.0,0.0,0.0,0.0,0.0,0.0,0.0,0.0,0.0,0.0,0.0,0.0,0.0,0.0,0.0,0.0,0.0,0.0,0.0,0.0,0.0,0.0,0.0,0.0,0.0,0.0,0.0,0.0,0.0,0.0,0.0,0.0,0.0,0.0,0.0,0.0,0.0,0.0,0.0,0.0,0.0,0.0,0.0,0.0,0.0,0.0,0.0,0.0,0.0,0.0,0.0,0.0,0.0,0.0,0.0,-0.67,-0.83,-1.0869,-1.1102,-1.121,-1.178,-1.1027,-1.0024,-0.8739,-0.7649,0.0,0.0,0.0,0.0,0.0,0.0,0.0,0.0,0.0,0.0,0.0,0.0,0.0,0.0,0.0,0.0,0.0,0.0,0.0,0.0,0.0,0.0,0.0,0.0,0.0,0.0,0.0,0.0,0.0,0.0,0.0,0.0,0.0,0.0,0.0,0.0,0.0,0.0,0.0,0.0,0.0,0.0,0.0,0.0,0.0,0.0,0.0,0.0,0.0,0.0,0.0,0.0,0.0,0.0,0.0,0.0,0.0,0.0,0.0,0.0,0.0,0.0,0.0,0.0,0.0,0.0,0.0,0.0,0.0,0.0,0.0,0.0,0.0,0.0,0.0,0.0,0.0,0.0,0.0,0.0,0.0,0.0,0.0,0.0,0.0,0.0,0.0,0.0,0.0,0.0,0.0,0.0,0.0,0.0,0.0,0.0,0.0,0.0,0.0,0.0,0.0,0.0,-0.8059,-0.9356,-1.1165,-1.1325,-1.1483,-1.1844,-1.0905,-0.9685,-0.8275,-0.7062,0.0,0.0,0.0,0.0,0.0,0.0,0.0,0.0,0.0,0.0,0.0,0.0,0.0,0.0,0.0,0.0,0.0,0.0,0.0,0.0,0.0,0.0,0.0,0.0,0.0,0.0,0.0,0.0,0.0,0.0,0.0,0.0,0.0,0.0,0.0,0.0,0.0,0.0,0.0,0.0,0.0,0.0,0.0,0.0,0.0,0.0,0.0,0.0,0.0,0.0,0.0,0.0,0.0,0.0,0.0,0.0,0.0,0.0,0.0,0.0,0.0,0.0,0.0,0.0,0.0,0.0,0.0,0.0,0.0,0.0,0.0,0.0,0.0,0.0,0.0,0.0,0.0,0.0,0.0,0.0,0.0,0.0,0.0,0.0,0.0,0.0,0.0,0.0,0.0,0.0,0.0,0.0,0.0,0.0,0.0,0.0,0.0,0.0,0.0,0.0,0.0,0.0,-0.866,-1.0522,-1.0683,-1.0643,-1.0833,-1.1303,-1.0115,-0.9051,-0.8254,-0.6759,0.0,0.0,0.0,0.0,0.0,0.0,0.0,0.0,0.0,0.0,0.0,0.0,0.0,0.0,0.0,0.0,0.0,0.0,0.0,0.0,0.0,0.0,0.0,0.0,0.0,0.0,0.0,0.0,0.0,0.0,0.0,0.0,0.0,0.0,0.0,0.0,0.0,0.0,0.0,0.0,0.0,0.0,0.0,0.0,0.0,0.0,0.0,0.0,0.0,0.0,0.0,0.0,0.0,0.0,0.0,0.0,0.0,0.0,0.0,0.0,0.0,0.0,0.0,0.0,0.0,0.0,0.0,0.0,0.0,0.0,0.0,0.0,0.0,0.0,0.0,0.0,0.0,0.0,0.0,0.0,0.0,0.0,0.0,0.0,0.0,0.0,0.0,0.0,0.0,0.0,0.0,0.0,0.0,0.0,0.0,0.0,0.0,0.0,0.0,0.0,0.0,0.0,-0.8656,-1.0035,0.0,-1.1129,-1.0982,-1.0668,-0.9843,-0.8801,-0.7673,0.0,0.0,0.0,0.0,0.0,0.0,0.0,0.0,0.0,0.0,0.0,0.0,0.0,0.0,0.0,0.0,0.0,0.0,0.0,0.0,0.0,0.0,0.0,0.0,0.0,0.0,0.0,0.0,0.0,0.0,0.0,0.0,0.0,0.0,0.0,0.0,0.0,0.0,0.0,0.0,0.0,0.0,0.0,0.0,0.0,0.0,0.0,0.0,0.0,0.0,0.0,0.0,0.0,0.0,0.0,0.0,0.0,0.0,0.0,0.0,0.0,0.0,0.0,0.0,0.0,0.0,0.0,0.0,0.0,0.0,0.0,0.0,0.0,0.0,0.0,0.0,0.0,0.0,0.0,0.0,0.0,0.0,0.0,0.0,0.0,0.0,0.0,0.0,0.0,0.0,0.0,0.0,0.0,0.0,0.0,0.0,0.0,0.0,0.0,0.0,0.0,0.0,-0.7472,-0.8797,-0.9978,0.0,-1.1522,-1.1237,-1.0551,-0.9819,-0.8711,-0.7302,0.0,0.0,0.0,0.0,0.0,0.0,0.0,0.0,0.0,0.0,0.0,0.0,0.0,0.0,0.0,0.0,0.0,0.0,0.0,0.0,0.0,0.0,0.0,0.0,0.0,0.0,0.0,0.0,0.0,0.0,0.0,0.0,0.0,0.0,0.0,0.0,0.0,0.0,0.0,0.0,0.0,0.0,0.0,0.0,0.0,0.0,0.0,0.0,0.0,0.0,0.0,0.0,0.0,0.0,0.0,0.0,0.0,0.0,0.0,0.0,0.0,0.0,0.0,0.0,0.0,0.0,0.0,0.0,0.0,0.0,0.0,0.0,0.0,0.0,0.0,0.0,0.0,0.0,0.0,0.0,0.0,0.0,0.0,0.0,0.0,0.0,0.0,0.0,0.0,0.0,0.0,0.0,0.0,0.0,0.0,0.0,0.0,0.0,0.0,0.0,0.0,0.0,-0.7614,-0.9266,-1.0742,-1.1866,-1.1738,-1.1426,-1.1074,-1.0034,-0.8764,0.0,0.0,0.0,0.0,0.0,0.0,0.0,0.0,0.0,0.0,0.0,0.0,0.0,0.0,0.0,0.0,0.0,0.0,0.0,0.0,0.0,0.0,0.0,0.0,0.0,0.0,0.0,0.0,0.0,0.0,0.0,0.0,0.0,0.0,0.0,0.0,0.0,0.0,0.0,0.0,0.0,0.0,0.0,0.0,0.0,0.0,0.0,0.0,0.0,0.0,0.0,0.0,0.0,0.0,0.0,0.0,0.0,0.0,0.0,0.0,0.0,0.0,0.0,0.0,0.0,0.0,0.0,0.0,0.0,0.0,0.0,0.0,0.0,0.0,0.0,0.0,0.0,0.0,0.0,0.0,0.0,0.0,0.0,0.0,0.0,0.0,0.0,0.0,0.0,0.0,0.0,0.0,0.0,0.0,0.0,0.0,0.0,0.0,0.0,0.0,0.0,0.0,0.0,-0.8544,-1.0286,-1.1533,-1.2187,-1.2182,-1.207,-1.1967,-1.1286,-1.0121,-0.8232,0.0,0.0,0.0,0.0,0.0,0.0,0.0,0.0,0.0,0.0,0.0,0.0,0.0,0.0,0.0,0.0,0.0,0.0,0.0,0.0,0.0,0.0,0.0,0.0,0.0,0.0,0.0,0.0,0.0,0.0,0.0,0.0,0.0,0.0,0.0,0.0,0.0,0.0,0.0,0.0,0.0,0.0,0.0,0.0,0.0,0.0,0.0,0.0,0.0,0.0,0.0,0.0,0.0,0.0,0.0,0.0,0.0,0.0,0.0,0.0,0.0,0.0,0.0,0.0,0.0,0.0,0.0,0.0,0.0,0.0,0.0,0.0,0.0,0.0,0.0,0.0,0.0,0.0,0.0,0.0,0.0,0.0,0.0,0.0,0.0,0.0,0.0,0.0,0.0,0.0,0.0,0.0,0.0,0.0,0.0,0.0,0.0,0.0,0.0,0.0,0.0,0.0,-0.892,-1.0557,-1.1824,-1.261,-1.2844,-1.2922,-1.2856,-1.2416,-1.1459,-0.9711,0.0,0.0,0.0,0.0,0.0,0.0,0.0,0.0,0.0,0.0,0.0,0.0,0.0,0.0,0.0,0.0,0.0,0.0,0.0,0.0,0.0,0.0,0.0,0.0,0.0,0.0,0.0,0.0,0.0,0.0,0.0,0.0,0.0,0.0,0.0,0.0,0.0,0.0,0.0,0.0,0.0,0.0,0.0,0.0,0.0,0.0,0.0,0.0,0.0,0.0,0.0,0.0,0.0,0.0,0.0,0.0,0.0,0.0,0.0,0.0,0.0,0.0,0.0,0.0,0.0,0.0,0.0,0.0,0.0,0.0,0.0,0.0,0.0,0.0,0.0,0.0,0.0,0.0,0.0,0.0,0.0,0.0,0.0,0.0,0.0,0.0,0.0,0.0,0.0,0.0,0.0,0.0,0.0,0.0,0.0,0.0,0.0,0.0,0.0,0.0,0.0,0.0,-0.8914,-1.0432,-1.184,-1.2913,-1.3379,-1.3579,-1.3641,-1.3402,-1.2728,-1.1421,0.0,0.0,0.0,0.0,0.0,0.0,0.0,0.0,0.0,0.0,0.0,0.0,0.0,0.0,0.0,0.0,0.0,0.0,0.0,0.0,0.0,0.0,0.0,0.0,0.0,0.0,0.0,0.0,0.0,0.0,0.0,0.0,0.0,0.0,0.0,0.0,0.0,0.0,0.0,0.0,0.0,0.0,0.0,0.0,0.0,0.0,0.0,0.0,0.0,0.0,0.0,0.0,0.0,0.0,0.0,0.0,0.0,0.0,0.0,0.0,-0.7414,0.0,0.0,0.0,0.0,0.0,0.0,0.0,0.0,0.0,0.0,0.0,0.0,0.0,0.0,0.0,0.0,0.0,0.0,0.0,0.0,0.0,0.0,0.0,0.0,0.0,0.0,0.0,0.0,0.0,0.0,0.0,0.0,0.0,0.0,0.0,0.0,0.0,0.0,0.0,0.0,0.0,-0.8773,-1.0773,-1.229,-1.2753,-1.2826,-1.3155,-1.3645,-1.3628,-1.312,-1.1916,0.0,0.0,0.0,0.0,0.0,0.0,0.0,0.0,0.0,0.0,0.0,0.0,0.0,0.0,0.0,0.0,0.0,0.0,0.0,0.0,0.0,0.0,0.0,0.0,0.0,0.0,0.0,0.0,0.0,0.0,0.0,0.0,0.0,0.0,0.0,0.0,0.0,0.0,0.0,0.0,0.0,0.0,0.0,0.0,0.0,0.0,0.0,0.0,0.0,0.0,0.0,0.0,0.0,0.0,0.0,0.0,0.0,0.0,0.0,0.0,0.0,-0.7869,0.0,0.0,0.0,0.0,0.0,0.0,0.0,0.0,0.0,0.0,0.0,0.0,0.0,0.0,0.0,0.0,0.0,0.0,0.0,0.0,0.0,0.0,0.0,0.0,0.0,0.0,0.0,0.0,0.0,0.0,0.0,0.0,0.0,0.0,0.0,0.0,0.0,0.0,0.0,0.0,-0.9097,-1.1124,-1.2554,-1.2693,-1.3414,-1.4005,-1.444,-1.471,-1.4543,-1.3855,-1.2737,0.0,0.0,0.0,0.0,0.0,0.0,0.0,0.0,0.0,0.0,0.0,0.0,0.0,0.0,0.0,0.0,0.0,0.0,0.0,0.0,0.0,0.0,0.0,0.0,0.0,0.0,0.0,0.0,0.0,0.0,0.0,0.0,0.0,0.0,0.0,0.0,0.0,0.0,0.0,0.0,0.0,0.0,0.0,0.0,0.0,0.0,0.0,0.0,0.0,0.0,0.0,0.0,0.0,-1.176,-1.2041,-1.2469,-1.2252,-1.2638,-1.3344,-1.1129,-1.0325,-1.041,0.0,0.0,0.0,0.0,0.0,0.0,0.0,0.0,0.0,0.0,0.0,0.0,0.0,0.0,0.0,0.0,0.0,0.0,0.0,0.0,0.0,0.0,0.0,0.0,0.0,-1.039,-1.067,0.0,0.0,0.0,0.0,0.0,0.0,0.0,0.0,0.0,0.0,0.0,0.0,-0.9699,-1.1679,-1.2942,-1.2949,-1.4263,-1.5168,-1.519,-1.5748,-1.5921,-1.563,-1.4174,-1.2775,0.0,0.0,0.0,0.0,0.0,0.0,0.0,0.0,0.0,0.0,0.0,0.0,0.0,0.0,0.0,0.0,0.0,0.0,0.0,0.0,0.0,0.0,0.0,0.0,0.0,0.0,0.0,0.0,0.0,0.0,0.0,0.0,-0.8601,-0.902,0.0,0.0,0.0,0.0,0.0,0.0,0.0,0.0,0.0,0.0,0.0,0.0,0.0,-1.0942,-1.2061,-1.2808,-1.3258,-1.3531,-1.4214,-1.4618,-1.4684,-1.4654,-1.4714,-1.4829,-1.4473,0.0,-1.2546,-1.0979,0.0,0.0,0.0,0.0,0.0,0.0,0.0,0.0,0.0,0.0,0.0,0.0,0.0,0.0,0.0,0.0,0.0,0.0,0.0,0.0,0.0,0.0,-1.2865,-1.2617,-1.2659,-1.2757,0.0,-1.0284,-0.8313,-0.7855,-0.7422,0.0,0.0,0.0,0.0,0.0,0.0,0.0,-1.0536,-1.2582,-1.4002,-1.3928,-1.4729,-1.5162,-1.4818,-1.5123,-1.5298,-1.5253,-1.4692,-1.4024,-1.3273,-1.196,0.0,0.0,0.0,0.0,0.0,0.0,0.0,0.0,0.0,0.0,0.0,0.0,0.0,0.0,0.0,0.0,0.0,0.0,0.0,0.0,0.0,0.0,0.0,0.0,0.0,0.0,0.0,0.0,0.0,-0.8322,-0.9346,-0.9104,-0.9026,-0.854,0.0,0.0,0.0,0.0,0.0,0.0,0.0,0.0,0.0,-1.3026,-1.3105,-1.3719,-1.4969,-1.5286,-1.5494,-1.5626,-1.6043,-1.6223,-1.6229,-1.6374,-1.6525,-1.6652,-1.6507,-1.6115,-1.5421,-1.3266,-1.1893,-1.0965,0.0,0.0,0.0,0.0,-0.8974,-0.9346,-1.0699,-1.0958,0.0,0.0,0.0,0.0,0.0,0.0,0.0,0.0,0.0,0.0,0.0,0.0,0.0,-1.3906,-1.4129,-1.4153,-1.3851,-1.2778,-1.1432,0.0,-0.9542,-0.8713,-0.7649,0.0,0.0,0.0,0.0,0.0,-1.2553,-1.4243,-1.5274,-1.5116,-1.5711,-1.5937,-1.5624,-1.5876,-1.5928,-1.5728,-1.5433,-1.4998,-1.4506,-1.3139,-1.1787,0.0,0.0,0.0,0.0,0.0,0.0,0.0,0.0,0.0,0.0,0.0,0.0,0.0,0.0,0.0,0.0,0.0,0.0,0.0,0.0,0.0,0.0,0.0,0.0,0.0,0.0,0.0,0.0,-0.9213,-1.0112,-0.9283,-0.9988,-0.9748,0.0,0.0,0.0,0.0,0.0,0.0,-1.16,-1.1958,-1.2997,-1.5003,-1.5223,-1.5879,-1.7147,-1.7124,-1.7192,-1.7268,-1.734,-1.74,-1.7406,-1.7599,-1.7799,-1.7968,-1.7774,-1.769,-1.7509,-1.5179,-1.3948,-1.3327,-1.1857,-1.1151,-1.093,-1.1192,-1.1468,-1.1876,-1.329,-1.3646,-1.3381,-1.3097,0.0,-1.1918,-1.0883,0.0,0.0,0.0,0.0,-1.123,-1.2823,-1.3423,-1.3833,-1.463,-1.4962,-1.4998,-1.4594,-1.4395,-1.3827,0.0,-1.1552,-1.0882,-0.9621,0.0,0.0,0.0,0.0,-1.3512,-1.4391,-1.5698,-1.6378,-1.6149,-1.6684,-1.6855,-1.6614,-1.6604,-1.6619,-1.6357,-1.592,-1.5562,-1.5316,-1.414,-1.3051,-1.22,0.0,0.0,0.0,0.0,0.0,0.0,0.0,0.0,0.0,0.0,0.0,0.0,0.0,0.0,0.0,0.0,0.0,0.0,0.0,0.0,0.0,0.0,0.0,0.0,0.0,0.0,0.0,0.0,0.0,-1.0358,-1.2131,0.0,0.0,0.0,0.0,-1.0538,-1.1099,-1.2302,-1.4173,-1.3994,-1.4678,-1.6761,-1.6448,-1.666,-1.7468,-1.7754,-1.8027,-1.8173,-1.8215,-1.8233,-1.8233,-1.8245,-1.8263,-1.8269,-1.8257,-1.8251,-1.8143,-1.6724,-1.5547,-1.4582,-1.3996,-1.3296,-1.2631,-1.3483,-1.3628,-1.3459,-1.437,-1.4473,-1.4195,-1.393,-1.3308,-1.2753,-1.3212,-1.2559,0.0,0.0,-1.3093,-1.3477,-1.4401,-1.4811,-1.5022,-1.5077,-1.5101,-1.5101,-1.5071,-1.466,-1.4051,0.0,-1.3316,-1.3494,-1.2956,0.0,-1.3615,-1.3942,-1.4259,-1.4785,-1.5616,-1.6601,-1.7206,-1.7108,-1.7536,-1.7636,-1.7302,-1.6945,-1.6722,-1.6706,-1.6063,-1.5666,-1.5658,-1.4951,-1.4085,-1.306,-1.1948,0.0,0.0,0.0,0.0,0.0,0.0,0.0,0.0,0.0,0.0,0.0,0.0,0.0,0.0,0.0,0.0,0.0,0.0,0.0,0.0,0.0,0.0,0.0,0.0,0.0,0.0,0.0,0.0,-1.246,-1.3894,0.0,0.0,-1.3541,-1.3988,-1.3387,-1.4559,-1.5591,-1.6295,-1.6033,-1.6683,-1.813,-1.7805,-1.7714,-1.8004,-1.8094,-1.8191,-1.83,-1.8463,-1.8547,-1.8553,-1.8722,-1.8794,-1.8794,-1.8794,-1.8704,-1.8511,-1.8022,-1.7304,-1.6459,-1.6097,-1.568,-1.533,-1.5789,-1.6,-1.6109,-1.6398,-1.6211,-1.5716,-1.4932,-1.4485,-1.4286,-1.4479,-1.4274,-1.4032,-1.4322,-1.4467,-1.4648,-1.5101,-1.5288,-1.5403,-1.5572,-1.5608,-1.5565,-1.5396,-1.5209,-1.4938,-1.4485,-1.3946,-1.3461,-1.3187,-1.377,-1.4337,-1.4422,-1.5464,-1.6623,-1.7346,-1.7871,-1.8271,-1.8279,-1.8139,-1.7969,-1.762,-1.7278,-1.6889,-1.642,-1.5944,-1.5578,-1.5372,-1.4895,-1.4395,-1.4093,-1.3267,-1.1813,0.0,0.0,0.0,0.0,0.0,0.0,0.0,0.0,0.0,0.0,0.0,0.0,0.0,0.0,0.0,0.0,0.0,0.0,0.0,0.0,0.0,0.0,0.0,0.0,0.0,0.0,-1.4413,-1.3863,-1.5541,-1.6202,-1.4984,-1.5985,-1.6435,-1.5836,-1.6685,-1.7377,-1.752,-1.7498,-1.7929,-1.8695,-1.8557,-1.8426,-1.8426,-1.8511,-1.8559,-1.8559,-1.8734,-1.8813,-1.8819,-1.9,-1.9078,-1.9078,-1.9078,-1.8976,-1.8813,-1.8813,-1.8505,-1.7986,-1.7636,-1.7388,-1.7261,-1.743,-1.7545,-1.7587,-1.7412,-1.7062,-1.6585,-1.5873,-1.5644,-1.5644,-1.5644,-1.5644,-1.5626,-1.5529,-1.5499,-1.5523,-1.5608,-1.5626,-1.5674,-1.5849,-1.5891,-1.5843,-1.5668,-1.5836,-1.5989,-1.5809,-1.5335,-1.4833,-1.4647,-1.5514,-1.6116,-1.5871,-1.6919,-1.7841,-1.8063,-1.8533,-1.8827,-1.8827,-1.851,-1.8152,-1.7803,-1.7135,-1.6635,-1.6397,-1.5602,-1.5213,-1.5348,-1.4665,-1.4283,-1.4283,-1.3592,-1.2321,-1.0446,0.0,0.0,0.0,0.0,0.0,0.0,0.0,0.0,0.0,0.0,0.0,0.0,0.0,0.0,0.0,0.0,0.0,0.0,0.0,0.0,0.0,0.0,0.0,-1.2155,-1.3599,-1.4721,-1.458,-1.7093,-1.8372,-1.696,-1.7597,-1.7956,-1.7807,-1.7497,-1.7462,-1.7973,-1.827,-1.8428,-1.8422,-1.8684,-1.8823,-1.8823,-1.8945,-1.9078,-1.9078,-1.9078,-1.9078,-1.9078,-1.9078,-1.9078,-1.9078,-1.9078,-1.9078,-1.9078,-1.9078,-1.9078,-1.9024,-1.8517,-1.8318,-1.8318,-1.8318,-1.8137,-1.7811,-1.7286,-1.693,-1.6712,-1.6706,-1.67,-1.67,-1.67,-1.67,-1.6646,-1.6368,-1.6399,-1.6344,-1.6089,-1.601,-1.601,-1.601,-1.6004,-1.5992,-1.5998,-1.6624,-1.7252,-1.7252,-1.7422,-1.7533,-1.7519,-1.8536,-1.9153,-1.8454,-1.8629,0.0,-1.7906,-1.8406,-1.8819,-1.8796,-1.8486,-1.8144,-1.7787,-1.65,-1.5999,-1.6675,-1.511,-1.4609,-1.5618,-1.4355,-1.3632,-1.3632,-1.2988,-1.2278,-1.1519,0.0,0.0,0.0,0.0,0.0,0.0,0.0,0.0,0.0,0.0,0.0,0.0,0.0,0.0,0.0,0.0,0.0,0.0,0.0,0.0,0.0,0.0,-1.503,-1.4686,-1.6173,-1.7581,-1.8331,-1.9352,-2.0119,-2.0467,-2.0992,-2.1205,-2.0965,-2.1045,-2.1228,-2.1398,-2.0977,-2.1142,-2.176,-2.069,-2.0093,-2.0093,-1.9413,-1.9078,-1.9078,-1.9078,-1.9078,-1.9078,-1.9078,-1.9078,-1.9078,-1.9078,-1.9078,-1.9078,-1.9078,-1.9078,-1.906,-1.8915,-1.8861,-1.8861,-1.8861,-1.8571,-1.81,-1.7563,-1.7201,-1.6954,-1.6761,-1.67,-1.67,-1.67,-1.67,-1.6794,-1.7474,-1.7559,-1.754,-1.7463,-1.7826,-1.7883,-1.7257,-1.7423,-1.7575,-1.6942,-1.747,-1.7891,-1.7358,-1.7762,-1.8093,-1.7862,-1.8464,-1.8783,-1.8601,-1.8933,0.0,-1.8955,-1.8875,-1.8629,-1.8112,-1.7969,-1.7779,-1.7445,-1.6818,-1.642,-1.6357,-1.5658,-1.5268,-1.5316,-1.4951,-1.4744,-1.4744,-1.3306,-1.2525,0.0,0.0,0.0,0.0,0.0,0.0,0.0,0.0,0.0,0.0,0.0,0.0,0.0,0.0,0.0,0.0,0.0,0.0,0.0,0.0,0.0,0.0,-1.5602,-1.6929,-1.7374,-1.8192,-1.9193,-2.0384,-2.0837,-2.1465,-2.2521,-2.2597,-2.2567,-2.2624,-2.2355,-2.2217,-2.2224,-2.2032,-2.1892,-2.1888,-2.1054,-2.0456,-1.9954,-1.945,-1.9078,-1.9078,-1.9078,-1.9078,-1.9078,-1.9078,-1.9078,0.0,-1.9078,-1.9078,-1.9078,-1.9078,-1.9078,0.0,0.0,0.0,0.0,0.0,-1.9518,-1.9434,-1.8976,-1.8635,-1.8378,-1.8217,-1.8159,-1.8159,-1.8159,-1.8159,-1.8246,-1.8776,-1.8847,-1.882,-1.8698,-1.8646,-1.8517,-1.8421,-1.8286,-1.8265,-1.8151,-1.8702,-1.9041,-1.8505,-1.9024,0.0,-1.9199,-1.9004,-1.8897,-1.9016,-1.9317,-1.9471,-1.9185,-1.909,-1.8899,-1.8486,-1.8303,-1.8081,-1.7739,-1.7104,0.0,0.0,0.0,-1.5316,-1.4975,-1.4959,0.0,0.0,0.0,0.0,0.0,0.0,0.0,0.0,-1.2134,-1.2169,0.0,0.0,0.0,0.0,0.0,0.0,0.0,0.0,0.0,0.0,0.0,0.0,0.0,0.0,0.0,0.0,-1.7533,-1.8812,-1.9789,-1.9741,-2.0083,-2.1354,-2.1806,-2.2434,-2.3499,-2.3207,-2.3044,-2.321,-2.2522,-2.2039,-2.1888,0.0,0.0,0.0,0.0,-2.0456,-1.9577,-1.945,-1.9456,-1.9456,-1.9456,-1.9456,-1.9456,-1.9456,-1.9328,-1.9328,-1.9328,-1.92,-1.9078,-1.9078,-1.9078,-1.9078,-1.92,-1.9328,-1.9291,-2.0026,-2.074,-2.1194,-2.0719,0.0,0.0,-2.0284,-2.027,-2.027,-2.027,-2.027,-2.0329,-2.0146,-2.0061,-1.9998,-1.9839,-1.9181,-1.8823,-1.9491,-1.9133,-1.8775,-1.9442,-1.9996,-2.0324,-2.0181,-2.057,-2.0862,-2.0925,-2.0038,-1.933,-1.9541,-1.9757,-1.9701,-1.9082,-1.9256,-1.9383,-1.9264,0.0,0.0,-1.8271,-1.735,-1.6953,-1.731,-1.6095,-1.5213,-1.4814,-1.4767,-1.4767,-1.4806,-1.4767,-1.5141,-1.5793,-1.588,-1.6079,-1.6325,-1.3743,-1.36,0.0,0.0,0.0,0.0,0.0,0.0,0.0,0.0,0.0,0.0,0.0,0.0,0.0,0.0,0.0,-1.6897,-1.847,-1.9733,-2.0218,-2.0726,-2.125,-2.1791,-2.2172,-2.2799,-2.3848,-2.415,-2.4267,-2.433,-2.4345,-2.4262,-2.3983,-2.4293,0.0,-2.414,-2.345,-2.2981,-2.2731,-2.1978,-2.1475,-2.1475,0.0,0.0,-2.1475,-2.1475,-2.1096,-2.0329,-2.0329,-1.9826,-1.9078,-1.9078,-1.9078,-1.92,-1.9947,-2.0329,-2.0417,-2.1128,-2.147,-2.146,-2.1019,-2.0787,-2.0702,-2.0347,-2.027,-2.027,-2.027,-2.027,0.0,-2.1094,-2.1292,-2.1284,-2.1218,-2.1465,-2.149,-2.0944,-2.1065,-2.1078,-2.0528,-2.114,-2.1347,-2.0438,-2.0227,-2.0414,-2.0869,-2.0759,-2.057,-2.0639,-2.0432,-2.0241,-2.0106,-1.99,-1.9447,-1.8597,-1.8438,-1.8255,-1.7906,-1.7445,-1.7318,-1.7652,-1.6897,-1.6404,-1.6333,-1.6055,-1.6039,-1.6325,-1.6047,-1.6111,-1.6532,-1.7088,-1.7397,-1.7437,-1.6333,-1.6341,0.0,0.0,0.0,0.0,0.0,0.0,0.0,0.0,0.0,0.0,0.0,-1.3974,0.0,0.0,-1.7397,-1.8637,-1.9566,-2.0249,-2.0607,-2.1115,-2.1576,-2.1918,-2.2585,-2.3292,-2.3983,-2.4531,-2.4841,-2.4841,-2.5008,-2.4952,-2.4595,-2.4913,-2.4778,-2.4109,-2.3769,-2.3362,-2.2856,-2.2362,-2.2111,-2.2111,-2.2111,-2.2111,-2.2111,-2.2111,-2.1853,-2.1342,-2.1342,-2.1096,-2.0596,-2.0596,-2.0596,-2.0716,-2.172,-2.1839,-2.1434,-2.211,-2.2627,-2.2782,-2.2296,-2.2019,-2.1847,-2.1698,-2.1645,-2.1645,-2.1645,-2.1645,-2.1759,-2.2207,-2.232,-2.232,-2.232,-2.2189,-2.2066,-2.2073,-2.1934,-2.1803,-2.1811,-2.201,-2.2063,-2.1457,-2.1179,-2.1062,-2.1138,-2.1187,-2.1123,-2.0948,-2.0774,-2.0655,-2.0655,-2.0353,-1.9924,-1.9407,-1.9042,-1.8764,-1.8589,-1.8097,-1.7858,-1.8025,-1.754,-1.7254,-1.7254,-1.7088,-1.7072,-1.7247,-1.708,-1.7072,-1.7254,-1.7596,-1.7866,-1.8033,-1.8049,-1.8327,0.0,0.0,0.0,0.0,0.0,0.0,0.0,0.0,-1.2488,-1.4156,-1.5062,-1.5991,-1.7421,-1.8009,-1.874,-2.0162,-2.0512,-2.0694,-2.098,-2.1322,-2.1648,-2.1926,-2.2895,-2.3681,-2.4023,-2.4698,-2.5079,-2.5016,-2.5071,-2.4952,-2.4595,-2.4913,-2.4601,-2.3467,-2.3716,-2.3487,-2.2731,-2.2738,-2.2738,-2.2738,-2.2738,-2.2738,-2.2738,-2.2738,-2.2613,-2.2362,-2.2237,-2.2111,-2.2111,-2.2111,-2.2111,-2.2237,-2.3238,-2.3106,-2.2452,-2.3182,-2.3851,-2.411,-2.3761,-2.3411,-2.3109,-2.3038,-2.3014,-2.3014,-2.3014,-2.3014,-2.3014,-2.3014,-2.3014,-2.3014,-2.3014,-2.2433,-2.2078,-2.278,-2.2433,-2.2085,-2.2788,-2.2791,-2.2569,-2.2498,-2.2259,-2.1949,-2.1608,-2.1489,-2.133,-2.0972,-2.0925,-2.0925,-2.0925,-2.067,-2.0464,-2.04,-1.99,-1.9519,-1.9383,-1.878,-1.8398,-1.8398,-1.8073,-1.7874,-1.7874,-1.7803,-1.7803,-1.7874,-1.7874,-1.7906,-1.7977,-1.8112,-1.8327,-1.8621,-1.9407,-1.9844,-0.9296,-1.0008,-1.1091,-1.2043,-1.2504,-1.3402,0.0,0.0,-1.6031,-1.7477,-1.8343,-1.8907,-1.9098,-1.9662,-2.0162,-2.0361,-2.0925,-2.1346,-2.1385,-2.1687,-2.1918,-2.1949,-2.2895,-2.3681,-2.4023,-2.4698,-2.4976,-2.4666,-2.4928,-2.4952,-2.4595,-2.4913,-2.5087,-2.4925,-2.4964,-2.4857,-2.4734,-2.4734,-2.4734,-2.4734,-2.4734,-2.4734,-2.4734,-2.4734,-2.4232,-2.3362,-2.248,-2.2111,-2.2111,-2.2111,-2.2111,-2.2237,-2.3238,-2.3487,-2.3604,-2.4564,-2.4703,-2.4468,-2.4118,-2.3769,-2.3435,-2.3117,-2.3014,-2.3014,-2.3014,-2.3014,-2.3014,-2.3014,-2.3014,-2.3014,-2.3014,-2.2901,-2.2901,-2.3014,-2.2901,-2.2901,-2.3014,-2.2982,-2.2863,-2.2545,-2.2458,-2.2315,-2.1957,-2.1648,-2.133,-2.0972,-2.0925,-2.0925,-2.0925,-2.0885,-2.0742,-2.0424,-2.0329,-2.0035,-1.9423,-1.9002,-1.8772,-1.8772,-1.8438,-1.824,-1.824,-1.7938,-1.7922,-1.8232,-1.824,-1.8398,-1.8708,-1.9328,-1.9646,-1.9709,-2.0742,-2.0901,-1.19,-1.2586,0.0,0.0,-1.4657,-1.5515,-1.669,-1.704,-1.7461,-1.8676,-1.9479,-1.9963,-1.9963,-2.0369,-2.0702,0.0,-2.1123,-2.1449,-2.1449,-2.1743,-2.1957,-2.1957,-2.2529,-2.3149,-2.3705,-2.4388,-2.4825,-2.4889,-2.5024,-2.504,-2.4897,-2.5032,-2.5111,-2.5111,-2.5111,-2.5111,-2.5111,-2.5111,-2.5111,-2.5111,-2.5111,-2.5111,-2.5111,-2.5111,-2.4857,-2.4487,-2.3984,-2.386,-2.386,-2.386,-2.386,-2.386,-2.4363,-2.4487,-2.4456,-2.4759,-2.4579,-2.4221,-2.388,-2.353,-2.3213,-2.3062,-2.3014,-2.3014,-2.3014,-2.3014,-2.3014,-2.3014,-2.3014,-2.3014,-2.3014,-2.3014,-2.3014,-2.3014,-2.3014,-2.3014,-2.3014,-2.3014,-2.2974,-2.2823,-2.2791,-2.268,-2.2331,-2.2148,-2.187,-2.1314,-2.1052,-2.0925,-2.0925,-2.0925,-2.0782,-2.0432,-2.0392,-2.0194,-1.9701,-1.9344,-1.9145,-1.9145,-1.8804,-1.8605,-1.8605,-1.847,-1.8454,-1.8605,-1.8605,-1.8676,-1.8827,-1.9526,-1.9868,-1.9892,-2.0956,-2.1401,-1.3348,0.0,0.0,-1.5487,-1.6629,-1.7632,-1.7461,-1.7993,-1.8716,-1.9495,-2.0043,-2.0392,-2.0392,-2.0607,0.0,-2.0901,-2.1298,-2.1624,-2.1719,-2.1862,-2.1957,-2.1957,-2.21,-2.2482,-2.3181,-2.3967,-2.4579,-2.4936,-2.5056,-2.5111,-2.5111,-2.5111,-2.5111,-2.5111,-2.5111,-2.5111,-2.5111,-2.5111,-2.5226,-2.5349,-2.5234,-2.5226,-2.5349,-2.5349,-2.5472,-2.5594,-2.5472,-2.5349,-2.5349,-2.5234,-2.5111,-2.5111,-2.5111,-2.5111,-2.5063,-2.4714,-2.4356,-2.3999,-2.3665,-2.3308,-2.3014,-2.3014,-2.3014,-2.3014,-2.3014,-2.3014,-2.3014,-2.3014,-2.3014,-2.3014,-2.3014,-2.3014,-2.3014,-2.3014,-2.3014,-2.3014,-2.3014,-2.3014,-2.3014,-2.3014,-2.3014,-2.2934,-2.2672,-2.2553,-2.2315,-2.1806,-2.1354,-2.1028,-2.0933,-2.0925,-2.0821,-2.0567,-2.0448,-2.0289,-2.0035,-1.9701,-1.9511,-1.9511,-1.9264,-1.9074,-1.8978,-1.8978,-1.8978,-1.8978,-1.8978,-1.9026,-1.9113,-1.9717,-2.0067,-2.0178,-2.1441,-2.2291,0.0,0.0,-1.6063,-1.6509,-1.8345,-1.9939,-1.9477,-1.982,-2.0321,-2.0353,-2.0377,-2.0392,-2.0392,-2.04,-2.0519,-2.0861,-2.1497,-2.2061,-2.241,-2.2172,-2.1957,-2.1957,-2.1671,-2.1759,0.0,-2.3459,-2.4213,-2.4571,-2.4913,-2.5111,-2.5111,-2.5111,-2.5111,-2.5111,-2.5111,-2.5111,-2.5111,-2.5111,-2.5472,-2.6075,-2.5472,-2.5472,-2.6075,-2.6075,-2.6441,-2.6935,-2.6319,-2.6075,-2.6075,-2.5349,-2.5111,-2.5111,-2.5111,-2.5111,-2.5063,-2.4714,-2.4356,-2.3999,-2.3665,-2.3308,-2.3014,-2.3014,-2.3014,-2.3014,-2.3014,-2.3014,-2.3014,-2.3014,-2.3014,-2.3014,-2.3014,-2.3014,-2.3014,-2.3014,-2.3014,-2.3014,-2.3014,-2.3014,-2.3014,-2.3014,-2.3014,-2.3014,-2.3006,-2.272,-2.2474,-2.2458,-2.187,-2.1306,-2.0964,-2.0925,-2.0917,-2.0909,-2.0599,-2.0392,-2.0377,-2.0051,-1.9852,-1.9852,-1.9836,-1.9693,-1.9368,-1.9352,-1.9352,-1.9352,-1.9352,-1.9519,-1.9836,-2.0202,-2.0551,-2.0901,-2.2741,-2.3811,0.0,0.0,-1.7792,-1.846,-2.0012,-2.1206,-2.0239,-2.0522,-2.0783,-2.0492,-1.9654,-1.9074,-1.9312,-1.9161,-1.9201,-1.9797,-2.0869,-2.1743,-2.2084,-2.2235,-2.222,-2.1989,-2.1854,0.0,0.0,0.0,0.0,-2.4515,-2.469,-2.4865,-2.5095,-2.5111,-2.5111,-2.5111,-2.5111,-2.5111,-2.5111,-2.5111,-2.5226,-2.5472,-2.5709,-2.5831,-2.6067,-2.6562,-2.6562,-2.6441,-2.6197,-2.6075,-2.6075,-2.5831,-2.5709,-2.5709,-2.5709,-2.5472,-2.504,-2.4444,-2.415,-2.3999,-2.3665,-2.3308,-2.3014,-2.3014,-2.3014,-2.3014,-2.3014,-2.3014,-2.3014,-2.3014,-2.3014,-2.3014,-2.3014,-2.3014,-2.3014,-2.3014,-2.3014,-2.3014,-2.3014,-2.3014,-2.3014,-2.3014,-2.3014,-2.3014,-2.3014,-2.2919,-2.276,-2.2521,-2.1894,-2.1322,-2.0964,-2.0925,-2.0925,-2.0925,-2.1415,-2.1837,-2.1837,-2.2166,-2.232,-2.232,-2.2083,-2.1898,-2.1766,-2.1766,-2.1766,-2.1766,-2.1766,-2.1828,-2.1951,-2.2593,-2.3103,-2.3507,-2.4595,-2.4968,-1.6593,-1.821,-1.9385,-2.0012,-2.1332,-2.2124,-2.0915,-2.0982,-2.1007,-2.0173,-1.8999,-1.8089,-1.8232,-1.7962,-1.7914,-1.8661,-1.9876,-2.0956,-2.1671,-2.1973,-2.2124,-2.214,-2.2148,0.0,0.0,0.0,0.0,-2.4333,-2.4627,-2.4865,-2.5095,-2.5111,-2.5234,-2.5472,-2.5226,-2.5226,-2.5472,-2.5226,-2.529,-2.5673,-2.6273,-2.6831,-2.7204,-2.7581,-2.7703,-2.7572,-2.7327,-2.7127,-2.7,-2.6519,-2.6199,-2.6075,-2.5831,-2.5472,-2.5056,-2.4595,-2.4269,-2.3983,-2.3514,-2.3205,-2.3014,-2.3014,-2.3014,-2.3014,-2.3014,-2.3014,-2.3014,-2.3014,-2.3014,-2.3014,-2.3014,-2.3014,-2.3014,-2.3014,-2.3014,-2.3014,-2.3014,-2.3014,-2.3014,-2.3014,-2.3014,-2.3014,-2.3014,-2.3014,-2.3223,-2.372,-2.2947,-2.2055,-2.1171,-2.0996,-2.0925,-2.0925,-2.1522,-2.1928,-2.1928,-2.2386,-2.2635,-2.2635,-2.2788,-2.2784,-2.264,-2.3012,-2.3192,-2.3192,-2.3192,-2.3266,-2.3422,-2.3583,-2.4115,-2.5034,-2.5601,-2.5703,-1.7993,-1.9659,-2.0882,-2.124,-2.2343,-2.2898,-2.1553,-2.1213,-2.0769,-1.9589,-1.8378,-1.7438,0.0,0.0,-1.6814,-1.7634,-1.8784,-2.0021,-2.129,-2.1505,-2.1775,0.0,0.0,0.0,0.0,0.0,0.0,-2.4055,0.0,-2.5087,-2.5111,-2.5111,-2.5349,-2.6075,-2.5472,-2.5349,-2.6075,-2.5488,-2.5681,-2.6669,-2.7266,-2.8199,-2.919,-2.9199,-2.9573,-3.0071,-2.9449,-2.8977,-2.85,-2.7283,-2.657,-2.6222,-2.5619,-2.5242,-2.5226,-2.521,-2.4892,-2.421,-2.3504,-2.3143,-2.3014,-2.3014,-2.3014,-2.3014,-2.3014,-2.3014,-2.3014,-2.3014,-2.3014,-2.3014,-2.3014,-2.3014,-2.3014,-2.3014,-2.3014,-2.3127,-2.3127,-2.3127,-2.3231,-2.3231,-2.3231,-2.3231,-2.3231,-2.3231,-2.3772,-2.5791,-2.5067,-2.3617,-2.1869,-2.1267,-2.1146,-2.1146,-2.113,-2.1121,-2.1121,-2.1216,-2.1224,-2.1224,-2.2224,-2.2555,-2.229,-2.3229,-2.3799,-2.3799,-2.3799,-2.3994,-2.4285,-2.3582,-2.3971,-2.5524,-2.594,-2.6231,-1.9895,-2.1251,-2.2214,-2.221,-2.2839,-2.3179,-2.1996,-2.1097,-2.0257,-1.8891,-1.6967,-1.5339,0.0,0.0,0.0,-1.7392,-1.9527,0.0,-2.2356,-2.2509,0.0,0.0,0.0,-2.3422,-2.4073,-2.4186,0.0,0.0,-2.4611,-2.4833,-2.5095,-2.5111,-2.5234,-2.5349,-2.5234,-2.5234,-2.5349,-2.5365,-2.5801,-2.6399,-2.7538,-2.8226,-2.8446,-2.9449,-2.9822,-2.9449,-2.9324,-2.9137,-2.9039,-2.8674,-2.8306,-2.7948,-2.8315,-2.8008,-2.7228,-2.752,-2.7408,-2.7231,-2.6439,-2.4777,-2.3014,-2.3014,-2.3014,-2.3014,-2.3014,-2.3014,-2.3014,-2.3014,-2.3014,-2.3014,-2.3014,-2.3014,-2.3014,-2.3014,-2.368,-2.4342,-2.4342,-2.4982,-2.5617,-2.5617,-2.5617,-2.5617,-2.5617,-2.5617,-2.58,-2.6245,-2.5882,-2.5306,-2.4602,-2.4088,-2.3838,-2.3838,-2.4181,-2.4501,-2.4501,-2.5187,-2.5674,-2.5674,-2.5877,-2.6021,-2.5912,-2.62,-2.639,-2.639,-2.639,-2.6355,-2.6466,-2.6595,-2.7033,-2.7794,-2.7402,-2.6967,-2.1414,-2.2572,-2.335,-2.2976,-2.3144,-2.3021,-2.1401,-2.0403,-1.9323,-1.7311,-1.5413,0.0,0.0,0.0,0.0,0.0,0.0,0.0,-2.2427,-2.3002,-2.3391,0.0,-2.4242,0.0,-2.4577,-2.4723,-2.4817,0.0,-2.4817,-2.5019,-2.5456,-2.5594,-2.5839,-2.6319,-2.5831,-2.5421,-2.5342,-2.5691,-2.6415,-2.7396,-2.8044,-2.9147,-3.0311,-3.0582,-3.0708,-3.0816,0.0,-3.0714,-3.0558,-3.0664,-3.0436,-2.9888,-3.0018,-2.9508,-2.8756,-2.8997,-2.8909,-2.8685,-2.8333,-2.6785,-2.4855,-2.4058,-2.4111,-2.4428,-2.3896,-2.4111,-2.4539,-2.4539,-2.4539,-2.4539,-2.4539,-2.4539,-2.4539,-2.4539,-2.5084,-2.5525,-2.5525,-2.6063,-2.6481,-2.6481,-2.6481,-2.6707,-2.714,-2.6806,-2.6816,-2.7902,-2.7389,-2.7055,-2.7454,-2.606,-2.5006,-2.4822,-2.5102,-2.5191,-2.5011,-2.5577,-2.5877,-2.5877,-2.637,-2.6572,-2.6572,-2.7061,-2.7262,-2.7262,-2.7262,-2.7355,-2.7552,-2.7496,-2.7944,-2.8928,-2.8207,-2.768,-2.2529,-2.3484,-2.4035,-2.3367,-2.3322,-2.268,-2.0381,-1.9339,-1.8205,-1.5437,0.0,-1.3288,-1.3127,0.0,-1.499,-1.6289,0.0,-2.0251,-2.2295,-2.3186,-2.3805,-2.4279,-2.507,-2.5427,-2.5004,-2.5173,-2.5234,-2.5349,-2.5349,-2.5594,-2.6067,-2.6197,-2.6684,-2.7779,-2.6805,-2.6027,-2.5825,-2.6366,-2.7363,-2.869,-2.9188,-3.0628,-3.2746,-3.2128,-3.2256,-3.2883,0.0,0.0,-3.2459,-3.2744,-3.2489,-3.1633,-3.1078,-3.0552,-3.0179,-3.0286,-3.0171,-2.9843,-2.9727,-2.9084,-2.7852,-2.5838,-2.578,-2.6273,-2.5313,-2.5744,-2.6481,-2.6481,-2.6481,-2.6481,-2.6481,-2.6481,-2.6481,-2.6481,-2.659,-2.6698,-2.6698,-2.6816,-2.6924,-2.6924,-2.6924,-2.7248,-2.8232,-2.7571,-2.7688,-2.9669,-2.9112,-2.8774,-2.9889,-2.7653,-2.5872,-2.5404,-2.532,-2.5114,-2.4594,-2.4566,-2.4538,-2.4492,-2.5392,-2.5887,-2.5887,-2.6774,-2.7262,-2.7262,-2.7262,-2.7448,-2.7841,-2.7272,-2.7813,-2.9228,-2.8485,-2.8174,-2.3082,-2.3692,-2.3971,-2.3046,-2.2604,-2.2007,-2.0252,-1.8779,0.0,0.0,0.0,-1.2747,-1.1834,-1.2897,0.0,-1.6776,0.0,0.0,0.0,0.0,-2.4319,0.0,0.0,0.0,0.0,0.0,0.0,0.0,0.0,-2.6449,-2.6075,-2.6562,-2.6935,-2.7177,-2.6935,-2.689,-2.682,-2.8369,-2.8876,-2.8435,-3.1222,-3.228,-3.1982,-3.3243,-3.3505,-3.3,-3.3757,0.0,-3.2865,-3.3396,-3.3306,-3.2784,-3.2778,-3.2595,-3.2207,-3.2799,-3.2861,-3.2797,-3.2023,-3.1537,-3.0884,-2.8091,-2.6857,-2.6481,-2.6273,-2.6381,-2.6481,-2.6481,-2.6481,-2.6481,-2.6481,-2.6481,-2.6481,-2.6481,-2.7248,-2.7902,-2.7902,-2.8668,-2.9438,-2.9438,-2.9438,-2.9448,-2.9659,-2.9554,-2.9554,-2.9994,-2.9774,-2.9774,-2.9994,-2.9198,-2.8625,-2.8554,-2.8208,-2.7791,-2.7246,-2.7195,-2.714,-2.6784,-2.6965,-2.7061,-2.7061,-2.7167,-2.7262,-2.7262,-2.7262,-2.7293,-2.7376,-2.7626,-2.8078,-2.8742,-2.8038,-2.7891,-2.3463,-2.379,-2.4051,-2.325,-2.259,-2.1429,-1.9173,0.0,0.0,0.0,0.0,-1.1829,-1.1447,0.0,0.0,0.0,0.0,0.0,0.0,0.0,0.0,0.0,0.0,0.0,0.0,0.0,0.0,0.0,0.0,-2.7418,-2.7047,-2.765,-2.79,-2.7539,-2.7739,-2.7641,-2.7378,-2.8624,-2.9142,-2.9008,-3.1359,-3.2737,-3.3243,-3.3998,-3.4383,-3.4487,-3.4769,0.0,-3.4144,-3.4679,-3.4578,-3.4233,-3.4243,-3.4008,-3.3717,-3.3963,-3.4076,-3.3968,-3.3256,-3.2738,-3.2125,-3.0407,-2.92,-2.8436,-2.7785,-2.8009,-2.8339,-2.8339,-2.8339,-2.8339,-2.8339,-2.8339,-2.8339,-2.8339,-2.8784,-2.9112,-2.9112,-2.9554,-2.9994,-2.9994,-2.9994,-2.9994,-2.9994,-2.9994,-2.9994,-2.9994,-2.9994,-2.9994,-2.9994,-2.9798,-2.957,-2.9332,-2.9104,-2.8783,-2.8317,-2.8059,-2.7831,-2.7614,-2.7386,-2.7262,-2.7262,-2.7262,-2.7262,-2.7262,-2.7262,-2.7489,-2.7966,-2.8183,-2.8649,-2.9342,-2.9021,-2.891,-2.3546,-2.384,-2.4033,-2.3538,-2.2502,-2.086,-1.8018,-1.6129,0.0,0.0,-1.1338,-1.1244,-1.1395,0.0,0.0,0.0,0.0,0.0,0.0,0.0,0.0,0.0,0.0,0.0,0.0,0.0,0.0,0.0,0.0,0.0,-2.8259,-2.8856,-2.9094,-2.8489,-2.8908,-2.8976,-2.8447,-2.9288,-2.9888,-3.0239,-3.1929,-3.3345,-3.4472,-3.4595,-3.5097,-3.5565,-3.547,0.0,0.0,-3.5648,-3.5561,-3.5201,-3.5102,-3.484,-3.4524,-3.4524,-3.4524,-3.4436,-3.3846,-3.328,-3.2652,-3.2057,-3.1198,-3.0287,-2.9408,-2.9638,-3.0099,-3.0099,-2.9994,-2.9994,-2.9994,-2.9994,-2.9994,-2.9994,-2.9994,-2.9994,-2.9994,-2.9994,-2.9994,-2.9994,-2.9994,-2.9994,-2.9994,-2.9994,-2.9994,-2.9994,-2.9994,-2.9994,-2.9994,-2.9994,-2.986,-2.9497,-2.9456,-2.927,-2.8804,-2.8421,-2.8131,-2.7935,-2.7686,-2.75,-2.7407,-2.75,-2.7552,-2.7552,-2.7552,-2.7903,-2.8618,-2.8618,-2.9042,-2.9849,-2.9849,-2.9953,-2.322,-2.384,-2.3969,-2.3198,-2.208,-2.0429,-1.7605,0.0,0.0,-1.1911,-1.1489,-1.1395,-1.1205,-1.1585,0.0,0.0,0.0,0.0,0.0,0.0,0.0,0.0,0.0,0.0,0.0,0.0,0.0,0.0,0.0,0.0,-2.8975,-2.9795,-3.0265,-3.0147,-3.0986,-3.1279,-3.094,-3.2599,-3.2842,-3.1745,-3.4362,-3.5243,-3.4522,-3.5489,-3.5371,-3.4641,-3.5563,0.0,0.0,-3.5129,-3.5244,-3.5168,-3.4753,-3.4556,-3.4524,-3.4524,-3.4524,-3.4392,-3.3453,-3.3104,-3.2918,-3.199,-3.1262,-3.0724,-3.062,-3.0505,-3.0391,-3.0391,-3.0193,-2.9994,-2.9994,-2.9994,-2.9994,-2.9994,-2.9994,-2.9994,-2.9994,-2.9994,-2.9994,-2.9994,-2.9994,-2.9994,-2.9994,-2.9994,-2.9994,-2.9994,-2.9994,-2.9994,-2.9994,-2.9994,-2.9973,-2.9942,-2.9932,-2.9746,-2.928,-2.9208,-2.8825,-2.7976,-2.8276,-2.8297,-2.7883,-2.8266,-2.8493,-2.8493,-2.8493,-2.8524,-2.8618,-2.8618,-2.8866,-2.9363,-2.9363,-2.9818,-2.2692,-2.3205,-2.3299,-2.2722,-2.1108,-1.9182,-1.733,0.0,-1.2745,-1.17,-1.1334,-1.1187,-1.1302,-1.1664,-1.213,-1.277,-1.3363,-1.4711,0.0,0.0,0.0,0.0,0.0,0.0,0.0,0.0,0.0,0.0,0.0,0.0,-3.0713,-3.1063,-3.1295,-3.1295,-3.1642,-3.1712,-3.1639,-3.2525,-3.2747,-3.2187,-3.4143,-3.488,-3.4515,-3.5488,-3.5721,-3.5466,-3.5522,0.0,0.0,-3.4869,-3.4797,-3.4775,-3.4589,-3.4524,-3.4524,-3.4524,-3.4524,-3.4382,-3.341,-3.3071,-3.2907,-3.1935,-3.1424,-3.123,-3.0931,-3.0609,-3.0401,-3.0193,-3.0099,-2.9994,-2.9994,-2.9994,-2.9994,-3.0193,-3.0088,-2.9994,-3.0193,-3.0088,-3.0099,-3.0412,-3.0297,-3.0297,-3.0412,-3.0308,-3.0193,-3.0193,-3.0088,-2.9994,-2.9994,-3.0088,-3.0193,-2.9994,-2.9994,-2.9922,-2.9735,-2.9466,-2.9145,-2.8783,-2.8659,-2.8535,-2.8349,-2.8514,-2.8618,-2.8618,-2.8618,-2.8752,-2.9032,-2.9032,-2.927,-2.9725,-3.0005,-3.018,-2.1748,-2.24,-2.2667,-2.2254,-2.042,-1.8366,0.0,0.0,-1.2153,-1.1599,-1.1251,-1.1177,-1.1434,-1.181,-1.2026,-1.1828,-1.255,-1.3754,-1.5606,0.0,0.0,0.0,0.0,0.0,0.0,0.0,0.0,0.0,0.0,0.0,0.0,-3.2561,-3.2436,-3.2207,-3.2436,-3.2561,-3.2561,-3.2891,-3.3056,-3.3056,-3.4075,-3.4466,-3.4466,-3.5183,-3.5539,-3.5517,0.0,0.0,0.0,-3.4655,-3.4524,-3.4524,-3.4524,-3.4524,-3.4524,-3.4524,-3.4436,-3.4185,-3.3355,-3.2973,-3.2721,-3.1891,-3.1618,-3.1516,-3.1034,-3.0817,-3.0599,-3.0401,-3.0308,-3.0203,-3.0203,-3.0203,-3.0308,-3.0505,-3.0401,-3.0308,-3.0505,-3.0401,-3.0308,-3.0734,-3.062,-3.0609,-3.0734,-3.062,-3.0505,-3.0505,-3.0297,-3.0203,-3.0203,-3.0297,-3.0401,-3.0203,-3.0203,-3.0203,-2.9994,-2.9694,-2.9446,-2.9311,-2.9125,-2.8959,-2.8825,-2.8949,-2.9021,-2.9021,-2.9021,-2.9187,-2.9508,-2.9508,-2.9746,-3.0212,-3.0532,-3.0584,-2.0201,-2.1358,-2.2236,-2.1841,-2.0218,-1.8293,0.0,-1.4423,-1.2485,-1.1654,-1.148,-1.148,-1.1489,-1.181,-1.2076,-1.2076,-1.2466,-1.3737,-1.6661,0.0,0.0,0.0,0.0,0.0,0.0,0.0,0.0,0.0,0.0,0.0,0.0,-3.4524,-3.4054,-3.3119,-3.3942,-3.4524,-3.4524,-3.4524,-3.4534,-3.4534,-3.4534,-3.4534,-3.4534,-3.4534,-3.4534,0.0,0.0,0.0,0.0,-3.4524,-3.4524,-3.4524,-3.4524,-3.4524,-3.4524,-3.4524,-3.4218,-3.3726,-3.3235,-3.2776,-3.2306,-3.1793,-3.1618,-3.1527,-3.1333,-3.123,-3.123,-3.123,-3.1034,-3.0838,-3.0838,-3.0838,-3.0827,-3.0838,-3.0827,-3.0827,-3.0838,-3.0827,-3.0827,-3.0838,-3.0838,-3.0838,-3.0838,-3.0838,-3.0838,-3.0838,-3.0609,-3.0505,-3.0724,-3.0609,-3.0505,-3.0724,-3.0838,-3.062,-3.0099,-2.9994,-2.9798,-2.9332,-2.9735,-2.9777,-2.9321,-2.9735,-2.9984,-2.9984,-2.9984,-2.9984,-2.9984,-2.9984,-3.0222,-3.0677,-3.0688,-3.0936,-1.8164,-1.8816,-1.9023,-1.8826,-1.733,-1.5771,-1.5548,-1.3553,-1.1846,-1.2224,-1.1827,-1.1554,-1.2177,-1.219,-1.236,-1.3219,-1.3523,0.0,0.0,0.0,0.0,0.0,0.0,0.0,0.0,0.0,0.0,0.0,0.0,0.0,0.0,-3.4524,-3.4401,-3.4054,-3.43,-3.4524,-3.4524,-3.4524,-3.4524,-3.4524,-3.4524,-3.4524,-3.4524,-3.4524,0.0,0.0,0.0,0.0,0.0,-3.4524,-3.4524,-3.4524,-3.4524,-3.4524,-3.4524,-3.4524,-3.4207,-3.3726,-3.3235,-3.2765,-3.2295,-3.1793,-3.1618,-3.1618,-3.1527,-3.1322,-3.1127,-3.0931,-3.0827,-3.0827,-3.1034,-3.0931,-3.0838,-3.1034,-3.0931,-3.0827,-3.1023,-3.0931,-3.0931,-3.1333,-3.123,-3.1127,-3.1322,-3.123,-3.1023,-3.1023,-3.0827,-3.0724,-3.0838,-3.0931,-3.092,-3.0827,-3.0931,-3.092,-3.062,-3.0516,-3.0453,-3.0305,-3.0432,-3.0453,-3.0305,-3.0442,-3.0516,-3.0516,-3.0516,-3.0516,-3.0516,-3.0516,-3.0748,-3.1296,-3.0885,-3.0979,0.0,-1.6977,-1.7263,-1.7263,-1.6015,-1.465,-1.4448,-1.2916,-1.1652,-1.2071,-1.1851,-1.1746,-1.2482,-1.2318,-1.2391,-1.3307,-1.3685,0.0,0.0,0.0,0.0,0.0,0.0,0.0,0.0,0.0,0.0,0.0,0.0,0.0,0.0,-3.4524,-3.4524,-3.4524,-3.4524,-3.4524,-3.4524,-3.4524,-3.4524,-3.4524,-3.4524,-3.4524,-3.4524,-3.4524,0.0,0.0,0.0,0.0,0.0,-3.4524,-3.4524,-3.4524,-3.4524,-3.4524,-3.4524,-3.4524,-3.4098,-3.3475,-3.3169,-3.2645,-3.2044,-3.1728,-3.1618,-3.1618,-3.1618,-3.1527,-3.1322,-3.1127,-3.1127,-3.1127,-3.1333,-3.123,-3.1127,-3.1333,-3.123,-3.1127,-3.1322,-3.123,-3.123,-3.1527,-3.1424,-3.1424,-3.1516,-3.1424,-3.1322,-3.1322,-3.1127,-3.1034,-3.1127,-3.1127,-3.1127,-3.1127,-3.123,-3.1333,-3.1127,-3.0931,-3.0838,-3.0838,-3.0838,-3.0838,-3.0838,-3.0838,-3.0838,-3.0838,-3.0838,-3.0838,-3.0838,-3.0998,-3.1221,-3.1487,-3.121,-3.1232,0.0,-1.5615,0.0,0.0,-1.567,-1.4544,-1.3395,-1.2463,0.0,-1.142,-1.1614,-1.1993,-1.2477,-1.2349,-1.2302,-1.285,0.0,0.0,0.0,0.0,0.0,0.0,0.0,0.0,0.0,0.0,0.0,0.0,0.0,0.0,0.0,-3.4524,-3.4524,-3.4524,-3.4524,-3.4524,-3.4524,-3.4524,-3.4524,-3.4524,-3.4524,-3.4524,-3.4524,-3.4524,0.0,0.0,0.0,0.0,0.0,-3.4524,-3.4524,-3.4524,-3.4524,-3.4502,-3.4469,-3.4469,-3.3857,-3.3016,-3.3016,-3.2405,-3.1618,-3.1618,-3.1618,-3.1618,-3.1618,-3.1618,-3.1618,-3.1618,-3.1618,-3.1618,-3.1618,-3.1618,-3.1618,-3.1618,-3.1618,-3.1618,-3.1618,-3.1618,-3.1618,-3.1618,-3.1618,-3.1618,-3.1618,-3.1618,-3.1618,-3.1618,-3.1424,-3.1322,-3.1516,-3.1424,-3.1322,-3.1516,-3.1618,-3.1618,-3.1618,-3.1127,-3.0827,-3.0827,-3.0827,-3.0827,-3.0827,-3.0827,-3.0827,-3.0827,-3.0827,-3.0827,-3.0827,-3.1242,-3.1561,-3.1561,-3.1561,-3.1561,-1.1704,0.0,-1.3056,-1.3056,-1.2647,-1.2139,0.0,-1.1404,-1.1142,-1.1634,0.0,0.0,-1.3238,-1.2986,0.0,0.0,0.0,0.0,0.0,0.0,0.0,0.0,0.0,0.0,0.0,0.0,0.0,0.0,0.0,0.0,0.0,-3.4524,-3.4524,-3.4524,-3.4524,-3.4524,-3.4524,-3.4524,-3.4524,-3.4524,-3.4524,-3.4524,-3.4524,-3.4524,0.0,0.0,0.0,0.0,-3.4524,-3.4524,-3.4524,-3.4524,-3.4524,-3.4294,-3.3967,-3.3967,-3.3366,-3.2547,-3.2547,-3.2143,-3.1618,-3.1618,-3.1618,-3.1618,-3.1618,-3.1618,-3.1618,-3.1618,-3.1618,-3.1618,-3.1618,-3.1618,-3.1618,-3.1618,-3.1618,-3.1618,-3.1618,-3.1618,-3.1618,-3.1618,-3.1618,-3.1618,-3.1618,-3.1618,-3.1618,-3.1618,-3.1527,-3.1527,-3.1629,-3.1516,-3.1527,-3.1629,-3.1618,-3.1618,-3.1618,-3.1527,-3.1424,-3.1424,-3.1424,-3.1424,-3.1424,-3.1424,-3.1424,-3.1424,-3.1424,-3.1424,-3.1424,-3.1533,-3.1587,-3.1587,-3.1587,-3.1587,-1.0486,-1.1305,-1.2202,-1.2202,-1.2079,-1.1851,-1.1689,0.0,0.0,0.0,0.0,0.0,0.0,0.0,0.0,0.0,0.0,0.0,0.0,0.0,0.0,0.0,0.0,0.0,0.0,0.0,0.0,0.0,0.0,0.0,0.0,-3.4196,-3.4294,-3.4513,-3.4305,-3.4294,-3.4524,-3.4524,-3.4524,-3.4524,-3.4524,-3.4524,-3.4524,-3.4524,-3.4524,0.0,0.0,0.0,-3.4524,-3.4524,-3.4524,-3.4524,-3.4524,-3.4229,-3.3792,-3.3792,-3.3202,-3.2383,-3.2383,-3.2055,-3.1618,-3.1618,-3.1618,-3.1618,-3.1618,-3.1618,-3.1618,-3.1618,-3.1618,-3.1618,-3.1618,-3.1618,-3.1618,-3.1618,-3.1618,-3.1618,-3.1618,-3.1618,-3.1618,-3.1618,-3.1618,-3.1618,-3.1618,-3.1618,-3.1618,-3.1618,-3.1618,-3.1618,-3.1618,-3.1618,-3.1618,-3.1618,-3.1618,-3.1618,-3.1618,-3.1618,-3.1618,-3.1618,-3.1618,-3.1618,-3.1618,-3.1618,-3.1618,-3.1618,-3.1618,-3.1618,-3.1618,-3.1618,-3.1618,-3.1618,-3.1618,-3.1618,-1.0079,-1.1397,-1.267,-1.2368,-1.2413,-1.2373,-1.1937,0.0,0.0,0.0,0.0,0.0,0.0,0.0,0.0,0.0,0.0,0.0,0.0,0.0,0.0,0.0,0.0,0.0,0.0,0.0,0.0,0.0,0.0,0.0,0.0,-3.3683,-3.3879,-3.4283,-3.3901,-3.3923,-3.4403,-3.448,-3.4524,-3.4524,-3.4524,-3.4524,-3.4524,-3.4524,-3.4524,0.0,0.0,0.0,-3.4524,-3.4524,-3.4524,-3.4524,-3.4524,-3.4185,-3.3683,-3.3683,-3.3082,-3.2263,-3.2263,-3.1979,-3.1618,-3.1618,-3.1618,-3.1618,-3.1618,-3.1618,-3.1618,-3.1618,-3.1618,-3.1618,-3.1618,-3.1618,-3.1618,-3.1618,-3.1618,-3.1618,-3.1618,-3.1618,-3.1618,-3.1618,-3.1618,-3.1618,-3.1618,-3.1618,-3.1618,-3.1618,-3.1618,-3.1618,-3.1618,-3.1618,-3.1618,-3.1618,-3.1618,-3.1618,-3.1618,-3.1618,-3.1618,-3.1618,-3.1618,-3.1618,-3.1618,-3.1618,-3.1618,-3.1618,-3.1618,-3.1618,-3.1618,-3.1618,-3.1618,-3.1618,-3.1618,-3.1618,-1.0146,-1.1744,-1.2959,-1.1377,-1.1506,-1.1894,-1.1572,0.0,0.0,0.0,0.0,0.0,0.0,0.0,0.0,0.0,0.0,0.0,0.0,0.0,0.0,0.0,0.0,0.0,0.0,0.0,0.0,0.0,0.0,0.0,0.0,0.0,-3.3213,-3.3289,-3.3224,-3.341,-3.3901,-3.4316,-3.4524,-3.4524,-3.4524,-3.4524,-3.4524,-3.4524,-3.4524,0.0,0.0,-3.4524,-3.4524,-3.4524,-3.4524,-3.4524,-3.4524,-3.3977,-3.318,-3.318,-3.2569,-3.1738,-3.1738,-3.1684,-3.1618,-3.1618,-3.1618,-3.1618,-3.1618,-3.1618,-3.1618,-3.1618,-3.1618,-3.1618,-3.1618,-3.1618,-3.1618,-3.1618,-3.1618,-3.1618,-3.1618,-3.1618,-3.1618,-3.1618,-3.1618,-3.1618,-3.1618,-3.1618,-3.1618,-3.1618,-3.1618,-3.1618,-3.1618,-3.1618,-3.1618,-3.1618,-3.1618,-3.1618,-3.1618,-3.1618,-3.1618,-3.1618,-3.1618,-3.1618,-3.1618,-3.1618,-3.1618,-3.1618,-3.1618,-3.1618,-3.1618,-3.1618,-3.1618,-3.1618,-3.1618,-3.1618,-0.9709,-1.1054,-1.2314,-1.2138,-1.3321,-1.456,-1.457,0.0,0.0,0.0,0.0,0.0,0.0,0.0,0.0,0.0,0.0,0.0,0.0,0.0,0.0,0.0,0.0,0.0,0.0,0.0,0.0,0.0,0.0,0.0,0.0,0.0,-3.2809,-3.306,-3.2831,-3.2929,-3.3399,-3.3628,-3.3999,-3.4524,-3.4524,-3.4524,-3.4524,-3.4524,-3.4524,-3.4524,0.0,-3.4524,-3.4524,-3.4524,-3.4524,-3.4491,-3.4229,-3.3693,-3.3005,-3.2481,-3.2012,-3.1618,-3.1618,-3.1618,-3.1618,-3.1618,-3.1618,-3.1618,-3.1618,-3.1618,-3.1618,-3.1618,-3.1618,-3.1618,-3.1618,-3.1618,-3.1618,-3.1618,-3.1618,-3.1618,-3.1618,-3.1618,-3.1618,-3.1618,-3.1618,-3.1618,-3.1618,-3.1618,-3.1618,-3.1618,-3.1618,-3.1618,-3.1618,-3.1618,-3.1618,-3.1618,-3.1618,-3.1618,-3.1618,-3.1618,-3.1618,-3.1618,-3.1618,-3.1618,-3.1618,-3.1618,-3.1618,-3.1618,-3.1618,-3.1618,-3.1618,-3.1618,-3.1618,-3.1618,-3.1618,-3.1618,-0.9669,-1.0804,-1.2054,-1.3387,0.0,-1.6328,-1.7283,-1.7148,0.0,0.0,0.0,0.0,0.0,0.0,0.0,0.0,0.0,0.0,0.0,0.0,0.0,0.0,0.0,0.0,0.0,0.0,0.0,0.0,0.0,0.0,0.0,0.0,-3.2372,-3.2721,-3.2394,-3.2427,-3.2907,-3.2907,-3.3333,-3.4185,-3.4185,-3.4185,-3.4185,-3.4185,-3.424,-3.4349,-3.4229,-3.424,-3.4349,-3.4229,-3.4185,-3.4152,-3.377,-3.3333,-3.2798,-3.1935,-3.1618,-3.1618,-3.1618,-3.1618,-3.1618,-3.1618,-3.1618,-3.1618,-3.1618,-3.1618,-3.1618,-3.1618,-3.1618,-3.1618,-3.1618,-3.1618,-3.1618,-3.1618,-3.1618,-3.1618,-3.1618,-3.1618,-3.1618,-3.1618,-3.1618,-3.1618,-3.1618,-3.1618,-3.1618,-3.1618,-3.1618,-3.1618,-3.1618,-3.1618,-3.1618,-3.1618,-3.1618,-3.1618,-3.1618,-3.1618,-3.1618,-3.1618,-3.1618,-3.1618,-3.1618,-3.1618,-3.1618,-3.1618,-3.1618,-3.1618,-3.1618,-3.1618,-3.1618,-3.1618,-3.1618,-3.1618,-1.073,-1.1912,-1.3142,-1.4607,-1.4473,0.0,-1.745,-1.7366,0.0,-1.9391,0.0,0.0,0.0,0.0,0.0,0.0,0.0,0.0,0.0,0.0,0.0,0.0,0.0,0.0,0.0,0.0,0.0,0.0,0.0,0.0,0.0,0.0,0.0,-3.1728,-3.1695,-3.1924,-3.2427,-3.2427,-3.2678,-3.3169,-3.3169,-3.3169,-3.3169,-3.3169,-3.342,-3.3825,-3.3366,-3.3431,-3.3814,-3.3355,-3.3169,-3.3169,-3.3136,-3.2842,-3.2372,-3.1826,-3.1618,-3.1618,-3.1618,-3.1618,-3.1618,-3.1618,-3.1618,-3.1618,-3.1618,-3.1618,-3.1618,-3.1618,-3.1618,-3.1618,-3.1618,-3.1618,-3.1618,-3.1618,-3.1618,-3.1618,-3.1618,-3.1618,-3.1618,-3.1618,-3.1618,-3.1618,-3.1618,-3.1618,-3.1618,-3.1618,-3.1618,-3.1618,-3.1618,-3.1618,-3.1618,-3.1618,-3.1618,-3.1618,-3.1618,-3.1618,-3.1618,-3.1618,-3.1618,-3.1618,-3.1618,-3.1618,-3.1618,-3.1618,-3.1618,-3.1618,-3.1618,-3.1618,-3.1618,-3.1618,-3.1618,-3.1618,-1.0404,-1.1878,-1.3411,-1.4388,-1.5322,0.0,0.0,-2.003,-2.0409,-2.1272,-2.2215,0.0,0.0,0.0,0.0,0.0,0.0,0.0,0.0,0.0,0.0,0.0,0.0,0.0,0.0,0.0,0.0,0.0,0.0,0.0,0.0,0.0,0.0,-3.1618,-3.1618,-3.1717,-3.1902,-3.1913,-3.2001,-3.2175,-3.2776,-3.3071,-3.3071,-3.3071,-3.3169,-3.3333,-3.3147,-3.3169,-3.3322,-3.3136,-3.3071,-3.3038,-3.2754,-3.2536,-3.2328,-3.1815,-3.1618,-3.1618,-3.1618,-3.1837,-3.2044,-3.1728,-3.1837,-3.2044,-3.1717,-3.1848,-3.2033,-3.1717,-3.1848,-3.2022,-3.1706,-3.1618,-3.1618,-3.1618,-3.1618,-3.1618,-3.1618,-3.1618,-3.1618,-3.1618,-3.1618,-3.1618,-3.1618,-3.1618,-3.1618,-3.1618,-3.1618,-3.1618,-3.1618,-3.1618,-3.1618,-3.1618,-3.1618,-3.1618,-3.1618,-3.1618,-3.1618,-3.1618,-3.1618,-3.1618,-3.1618,-3.1618,-3.1618,-3.1618,-3.1618,-3.1618,-3.1618,-3.1618,-3.1618,-3.1618,-3.1618,-3.1618,-1.0791,-1.2242,-1.3747,0.0,0.0,0.0,-2.0697,-2.1723,-2.239,-2.346,0.0,0.0,0.0,0.0,0.0,0.0,0.0,0.0,0.0,0.0,0.0,0.0,0.0,0.0,0.0,0.0,0.0,0.0,0.0,0.0,0.0,0.0,0.0,0.0,-3.1618,-3.1618,-3.1618,-3.1618,-3.1618,-3.1629,-3.2295,-3.2612,-3.2612,-3.2612,-3.27,-3.2842,-3.2678,-3.27,-3.2842,-3.2678,-3.2612,-3.2579,-3.2263,-3.2143,-3.2099,-3.176,-3.1618,-3.1618,-3.1618,-3.1848,-3.2088,-3.1738,-3.1859,-3.2077,-3.1728,-3.187,-3.2077,-3.1717,-3.187,-3.2066,-3.1717,-3.1618,-3.1618,-3.1618,-3.1618,-3.1618,-3.1618,-3.1618,-3.1618,-3.1618,-3.1618,-3.1618,-3.1618,-3.1618,-3.1618,-3.1618,-3.1618,-3.1618,-3.1618,-3.1618,-3.1618,-3.1618,-3.1618,-3.1618,-3.1618,-3.1618,-3.1618,-3.1618,-3.1618,-3.1618,-3.1618,-3.1618,-3.1618,-3.1618,-3.1618,-3.1618,-3.1618,-3.1618,-3.1618,-3.1618,-3.1618,-3.1618,-1.2121,-1.3087,0.0,0.0,0.0,0.0,-2.1549,-2.1953,-2.2575,-2.595,0.0,0.0,0.0,0.0,0.0,0.0,0.0,0.0,0.0,0.0,0.0,0.0,0.0,0.0,0.0,0.0,0.0,0.0,0.0,0.0,0.0,0.0,0.0,0.0,-3.164,-3.164,-3.164,-3.1629,-3.1629,-3.1629,-3.1618,-3.1618,-3.1618,-3.1618,-3.1902,-3.235,-3.1848,-3.1902,-3.2339,-3.1837,-3.1618,-3.1629,-3.1618,-3.1618,-3.1629,-3.1618,-3.1618,-3.1618,-3.1618,-3.1618,-3.1629,-3.1618,-3.1618,-3.1629,-3.1618,-3.1618,-3.1629,-3.1618,-3.1629,-3.1629,-3.1618,-3.1618,-3.1618,-3.1618,-3.1618,-3.1618,-3.1618,-3.1618,-3.1618,-3.1618,-3.1618,-3.1618,-3.1618,-3.1618,-3.1618,-3.1618,-3.1618,-3.1618,-3.1618,-3.1618,-3.1618,-3.1618,-3.1618,-3.1618,-3.1618,-3.1618,-3.1618,-3.1618,-3.1618,-3.1618,-3.1618,-3.1618,-3.1618,-3.1618,-3.1618,-3.1618,-3.1618,-3.1618,-3.1618,-3.1618,-3.1618,-3.1618,-1.1692,0.0,0.0,0.0,0.0,0.0,0.0,-2.3001,0.0,0.0,0.0,0.0,0.0,0.0,0.0,0.0,0.0,0.0,0.0,0.0,0.0,0.0,0.0,0.0,0.0,0.0,0.0,0.0,0.0,0.0,0.0,0.0,0.0,0.0,-3.2645,-3.2645,-3.2645,-3.2317,-3.2154,-3.2154,-3.1793,-3.1618,-3.1618,-3.1618,-3.1706,-3.1837,-3.1684,-3.1706,-3.1837,-3.1684,-3.1837,-3.2121,-3.176,-3.1848,-3.2121,-3.176,-3.1618,-3.1618,-3.1618,-3.1859,-3.2099,-3.1738,-3.187,-3.2088,-3.1728,-3.187,-3.2088,-3.1728,-3.188,-3.2077,-3.1717,-3.1618,-3.1618,-3.1618,-3.1618,-3.1618,-3.1618,-3.1618,-3.1618,-3.1618,-3.1618,-3.1618,-3.1618,-3.1618,-3.1618,-3.1618,-3.1618,-3.1618,-3.1618,-3.1618,-3.1618,-3.1618,-3.1618,-3.1618,-3.1618,-3.1618,-3.1618,-3.1618,-3.1618,-3.1618,-3.1618,-3.1618,-3.1618,-3.1618,-3.1618,-3.1618,-3.1618,-3.1618,-3.1618,-3.1618,-3.1618,-3.1618,-1.3248,0.0,0.0,0.0,0.0,0.0,0.0,0.0,0.0,0.0,0.0,0.0,0.0,0.0,0.0,0.0,0.0,0.0,0.0,0.0,0.0,0.0,0.0,0.0,0.0,0.0,0.0,0.0,0.0,0.0,0.0,0.0,0.0,0.0,-3.2885,-3.2798,-3.2798,-3.2317,-3.2077,-3.2077,-3.1771,-3.1618,-3.1618,-3.1618,-3.1618,-3.1618,-3.1618,-3.1618,-3.1618,-3.1618,-3.1804,-3.2055,-3.1738,-3.1815,-3.2044,-3.1738,-3.1618,-3.1618,-3.1618,-3.1826,-3.2033,-3.1728,-3.1837,-3.2022,-3.1717,-3.1837,-3.2012,-3.1717,-3.1848,-3.2012,-3.1706,-3.1618,-3.1618,-3.1618,-3.1618,-3.1618,-3.1618,-3.1618,-3.1618,-3.1618,-3.1618,-3.1618,-3.1618,-3.1618,-3.1618,-3.1618,-3.1618,-3.1618,-3.1618,-3.1618,-3.1618,-3.1618,-3.1618,-3.1618,-3.1618,-3.1618,-3.1618,-3.1618,-3.1618,-3.1618,-3.1618,-3.1618,-3.1618,-3.1618,-3.1618,-3.1618,-3.1618,-3.1618,-3.1618,-3.1618,-3.1618,-3.1618,-1.5607,0.0,0.0,0.0,0.0,0.0,0.0,0.0,0.0,0.0,0.0,0.0,0.0,0.0,0.0,0.0,0.0,0.0,0.0,0.0,0.0,0.0,0.0,0.0,0.0,0.0,0.0,0.0,0.0,0.0,0.0,0.0,0.0,-3.2918,-3.2579,-3.2383,-3.2383,-3.1924,-3.1695,0.0,-3.164,-3.1618,-3.1618,-3.1618,-3.1618,-3.1618,-3.1618,-3.1618,-3.1618,-3.1618,-3.1618,-3.1618,-3.1618,-3.1618,-3.1618,-3.1618,-3.1618,-3.1618,-3.1618,-3.1618,-3.1618,-3.1618,-3.1618,-3.1618,-3.1618,-3.1651,-3.1695,-3.1695,-3.1695,-3.1695,-3.1695,-3.1662,-3.1618,-3.1618,-3.1618,-3.1618,-3.1618,-3.1618,-3.1618,-3.1618,-3.1618,-3.1618,-3.1618,-3.1618,-3.1618,-3.1618,-3.1618,-3.1618,-3.1618,-3.1618,-3.1618,-3.1618,-3.1618,-3.1618,-3.1618,-3.1618,-3.1618,-3.1618,-3.1618,-3.1618,-3.1618,-3.1618,-3.1618,-3.1618,-3.1618,-3.1618,-3.1618,-3.1618,-3.1618,-3.1618,-3.1618,-3.1618,0.0,-1.6077,0.0,0.0,0.0,0.0,0.0,0.0,0.0,0.0,0.0,0.0,0.0,0.0,0.0,0.0,0.0,0.0,0.0,0.0,0.0,0.0,0.0,0.0,0.0,0.0,0.0,0.0,0.0,0.0,0.0,0.0,0.0,-3.1935,-3.2219,-3.2383,-3.2383,-3.2274,-3.2219,0.0,-3.1815,-3.1618,-3.1618,-3.1618,-3.1618,-3.1618,-3.1618,-3.1618,-3.1618,-3.1618,-3.1618,-3.1618,-3.1618,-3.1618,-3.1618,-3.1618,-3.1618,-3.1618,-3.1618,-3.1618,-3.1618,-3.1618,-3.1618,-3.1618,-3.1618,-3.1902,-3.2219,-3.2219,-3.2219,-3.2219,-3.2219,-3.1924,-3.1618,-3.1618,-3.1618,-3.1618,-3.1618,-3.1618,-3.1618,-3.1618,-3.1618,-3.1618,-3.1618,-3.1618,-3.1618,-3.1618,-3.1618,-3.1618,-3.1618,-3.1618,-3.1618,-3.1618,-3.1618,-3.1618,-3.1618,-3.1618,-3.1618,-3.1618,-3.1618,-3.1618,-3.1618,-3.1618,-3.1618,-3.1618,-3.1618,-3.1618,-3.1618,-3.1618,-3.1618,-3.1618,-3.1618,-3.1618,0.0,0.0,0.0,0.0,0.0,0.0,0.0,0.0,0.0,0.0,0.0,0.0,0.0,0.0,0.0,0.0,0.0,0.0,0.0,0.0,0.0,0.0,0.0,0.0,0.0,0.0,0.0,0.0,0.0,0.0,0.0,-3.1269,-3.1389,-3.1618,-3.1651,-3.1673,-3.1673,-3.1455,-3.1455,-3.1662,-3.14,-3.14,-3.1618,-3.1618,-3.1618,-3.1618,-3.1618,-3.1618,-3.1618,-3.1618,-3.1618,-3.1618,-3.1618,-3.1618,-3.1618,-3.1618,-3.1618,-3.1618,-3.1618,-3.1618,-3.1618,-3.1618,-3.1618,-3.1618,-3.1618,-3.1815,-3.2022,-3.2022,-3.2022,-3.2022,-3.2022,-3.2001,-3.1924,-3.1684,-3.1618,-3.1618,-3.1618,-3.1618,-3.1618,-3.1618,-3.1618,-3.1618,-3.1618,-3.1618,-3.1618,-3.1618,-3.1618,-3.1618,-3.1618,-3.1618,-3.1618,-3.1618,-3.1618,-3.1618,-3.1618,-3.1618,-3.1618,-3.1618,-3.1618,-3.1618,-3.1618,-3.1618,-3.1618,-3.1618,-3.1618,-3.1618,-3.1618,-3.1618,-3.1618,-3.1618,-3.1618,-3.1618,0.0,0.0,0.0,0.0,0.0,0.0,0.0,0.0,0.0,0.0,0.0,0.0,0.0,0.0,0.0,0.0,0.0,0.0,0.0,0.0,0.0,0.0,0.0,0.0,0.0,0.0,0.0,0.0,0.0,0.0,-3.0482,-3.0526,-3.0712,-3.1116,-3.0821,-3.0657,-3.0657,-3.0351,-3.0406,-3.0777,-3.0777,-3.1029,-3.1498,-3.1498,-3.1542,-3.1618,-3.1618,-3.1618,-3.1618,-3.1618,-3.1618,-3.1618,-3.1618,-3.1721,-3.1823,-3.1618,-3.1721,-3.1823,-3.1618,-3.1618,-3.1618,-3.1618,-3.1618,-3.1618,-3.1823,-3.198,-3.2046,-3.2046,-3.2046,-3.1944,-3.1749,-3.2066,-3.2252,-3.1749,-3.1695,-3.1728,-3.164,-3.1618,-3.1618,-3.1618,-3.1618,-3.1618,-3.1618,-3.1618,-3.1618,-3.1618,-3.1618,-3.1618,-3.1618,-3.1618,-3.1618,-3.1618,-3.1618,-3.1618,-3.1618,-3.1618,-3.1618,-3.1618,-3.1618,-3.1618,-3.1618,-3.1618,-3.1618,-3.1618,-3.1618,-3.1618,-3.1618,-3.1618,-3.1618,-3.1618,-3.1618,-3.1618,0.0,0.0,0.0,0.0,0.0,0.0,0.0,0.0,0.0,0.0,0.0,0.0,0.0,0.0,0.0,0.0,0.0,0.0,0.0,0.0,0.0,0.0,0.0,0.0,0.0,0.0,0.0,0.0,0.0,0.0,-2.903,-2.9041,-2.9074,-2.9139,-2.9489,-2.9674,-2.9674,-3.0035,-3.0242,-3.0297,-3.0297,-3.0548,-3.0996,-3.0996,-3.1225,-3.1618,-3.1618,-3.1618,-3.1618,-3.1618,-3.1618,-3.1618,-3.1618,-3.2218,-3.2901,-3.1913,-3.2218,-3.2801,-3.1924,-3.1618,-3.1618,-3.1618,-3.1618,-3.1823,-3.2711,-3.332,-3.3561,-3.3561,-3.3561,-3.3367,-3.2482,-3.2339,-3.2252,-3.1749,-3.1957,-3.2164,-3.1717,-3.1618,-3.1618,-3.1618,-3.1618,-3.1618,-3.1618,-3.1618,-3.1618,-3.1618,-3.1618,-3.1618,-3.1618,-3.1618,-3.1618,-3.1618,-3.1618,-3.1618,-3.1618,-3.1618,-3.1618,-3.1618,-3.1618,-3.1618,-3.1618,-3.1618,-3.1618,-3.1618,-3.1618,-3.1618,-3.1618,-3.1618,-3.1618,-3.1618,-3.1618,-3.1618,0.0,0.0,0.0,0.0,0.0,0.0,0.0,0.0,0.0,0.0,0.0,0.0,0.0,0.0,0.0,0.0,0.0,0.0,0.0,0.0,0.0,0.0,0.0,0.0,0.0,0.0,0.0,0.0,0.0,-2.9371,-2.885,-2.929,-2.9371,-2.885,-2.8964,-2.9074,-2.9074,-2.9292,-2.9532,-2.9805,-3.0078,-3.0319,-3.0526,-3.0777,-3.116,-3.1618,-3.1618,-3.1618,-3.1618,-3.1618,-3.1913,-3.251,-3.251,-3.3101,-3.4091,-3.3598,-3.3697,-3.3993,-3.3598,-3.34,-3.34,-3.34,-3.3001,-3.2711,-3.3796,-3.386,-3.3534,-3.3534,-3.3935,-3.4035,-3.2358,-3.2557,-3.3023,-3.2203,-3.2219,-3.2328,-3.2099,-3.1826,-3.1618,-3.1618,-3.1618,-3.1618,-3.1618,-3.1618,-3.1618,-3.1618,-3.1618,-3.1618,-3.1618,-3.1618,-3.1618,-3.1618,-3.1618,-3.1618,-3.1618,-3.1618,-3.1618,-3.1618,-3.1618,-3.1618,-3.1618,-3.1618,-3.1618,-3.1618,-3.1618,-3.1618,-3.1618,-3.1618,-3.1618,-3.1618,-3.1618,-3.1618,0.0,0.0,0.0,0.0,0.0,0.0,0.0,0.0,0.0,0.0,0.0,0.0,0.0,0.0,0.0,0.0,0.0,0.0,0.0,0.0,0.0,0.0,0.0,0.0,0.0,0.0,0.0,0.0,0.0,-2.9555,-2.885,-2.9726,-2.9909,-2.9198,-2.9198,-2.9198,-2.9198,-2.8932,-2.8943,-2.9303,-2.994,-3.0278,-3.0411,-3.1035,-3.1459,-3.1951,-3.2006,-3.2026,-3.2015,-3.2308,-3.2901,-3.3598,-3.3598,-3.4276,-3.5162,-3.4872,-3.4969,-3.5162,-3.4872,-3.4775,-3.4775,-3.4775,-3.4288,-3.3784,-3.4872,-3.4666,-3.3981,-3.3981,-3.4569,-3.4678,-3.251,-3.3186,-3.4072,-3.309,-3.2778,-3.2641,-3.2323,-3.1891,-3.1721,-3.1913,-3.1823,-3.1732,-3.1913,-3.1823,-3.1618,-3.1618,-3.1618,-3.1618,-3.1618,-3.1618,-3.1618,-3.1618,-3.1618,-3.1721,-3.2015,-3.1721,-3.1721,-3.2015,-3.1721,-3.1721,-3.2015,-3.2026,-3.2117,-3.2409,-3.2409,-3.2117,-3.1618,-3.1618,-3.1618,-3.1618,-3.1618,-3.1618,0.0,0.0,0.0,0.0,0.0,0.0,0.0,0.0,0.0,0.0,0.0,0.0,0.0,0.0,0.0,0.0,0.0,0.0,0.0,0.0,0.0,0.0,0.0,0.0,0.0,0.0,0.0,0.0,0.0,-2.885,-2.8757,-2.9726,-3.017,-3.017,-3.017,-3.017,-3.017,-2.9198,-2.8768,-2.8883,-2.9794,-3.0411,-3.088,-3.1816,-3.248,-3.2935,-3.307,-3.3101,-3.3201,-3.419,-3.4678,-3.4678,-3.4678,-3.5355,-3.6131,-3.5162,-3.5355,-3.6131,-3.5162,-3.4775,-3.4775,-3.4775,-3.4775,-3.4872,-3.5941,-3.6225,-3.6118,-3.6118,-3.6225,-3.5738,-3.3685,-3.4281,-3.5182,-3.4287,-3.3879,-3.3436,-3.1965,-3.164,-3.1913,-3.2901,-3.2319,-3.1924,-3.2901,-3.2308,-3.1618,-3.1618,-3.1618,-3.1618,-3.1618,-3.1618,-3.1618,-3.1618,-3.1618,-3.2015,-3.3001,-3.2218,-3.2015,-3.3001,-3.2117,-3.2015,-3.3101,-3.3101,-3.3598,-3.4581,-3.4678,-3.3598,-3.1618,-3.1618,-3.1618,-3.1618,-3.1618,-3.1618,0.0,0.0,0.0,0.0,0.0,0.0,0.0,0.0,0.0,0.0,0.0,0.0,0.0,0.0,0.0,0.0,0.0,0.0,0.0,0.0,0.0,0.0,0.0,0.0,0.0,0.0,0.0,0.0,0.0,0.0,-2.9726,-3.1134,-3.14,-3.026,-3.0789,-3.1134,-3.1134,-3.0789,-3.0609,-3.0609,-3.0968,-3.1151,-3.134,-3.2034,-3.2388,-3.2616,-3.3627,-3.3945,-3.3693,-3.4437,-3.5162,-3.5738,-3.5738,-3.6427,-3.7307,-3.6922,-3.7028,-3.7307,-3.6922,-3.6828,-3.6828,-3.6828,-3.6332,-3.5941,-3.7015,-3.6815,-3.632,-3.632,-3.6815,-3.6828,-3.4775,-3.5114,-3.5745,-3.4769,-3.4722,-3.4504,-3.2914,-3.2117,-3.1721,-3.2117,-3.1812,-3.1721,-3.2117,-3.1823,-3.1618,-3.1618,-3.1618,-3.1618,-3.1618,-3.1618,-3.1812,-3.251,-3.2015,-3.2319,-3.4091,-3.3201,-3.3101,-3.419,-3.3895,-3.3796,-3.419,-3.419,-3.4385,-3.4775,-3.4775,-3.4385,-3.3697,-3.3001,-3.2611,-3.2611,-3.1924,-3.1618,-0.9362,0.0,0.0,0.0,0.0,0.0,0.0,0.0,0.0,0.0,0.0,0.0,0.0,0.0,0.0,0.0,0.0,0.0,0.0,0.0,0.0,0.0,0.0,0.0,0.0,0.0,0.0,0.0,0.0,0.0,-3.0185,-3.1577,-3.1908,-3.0873,-3.1656,-3.1928,-3.1577,-3.1577,-3.1577,-3.1577,-3.1928,-3.2103,-3.2115,-3.2746,-3.2995,-3.3032,-3.4325,-3.471,-3.4454,-3.5211,-3.6063,-3.6815,-3.6815,-3.7307,-3.79,-3.79,-3.79,-3.79,-3.79,-3.79,-3.79,-3.79,-3.7413,-3.7015,-3.7703,-3.74,-3.6815,-3.6815,-3.74,-3.7585,-3.575,-3.597,-3.6533,-3.5679,-3.5843,-3.588,-3.4272,-3.3189,-3.251,-3.2689,-3.27,-3.27,-3.3178,-3.2978,-3.2588,-3.2207,-3.2308,-3.2409,-3.2319,-3.2409,-3.2901,-3.3859,-3.3365,-3.3662,-3.5426,-3.4545,-3.4447,-3.5426,-3.5234,-3.5234,-3.5522,-3.5439,-3.563,-3.5916,-3.5846,-3.5846,-3.5858,-3.4374,-3.3697,-3.3697,-3.3012,-3.251,0.0,0.0,0.0,0.0,0.0,0.0,0.0,0.0,0.0,0.0,0.0,0.0,0.0,0.0,0.0,0.0,0.0,0.0,0.0,0.0,0.0,0.0,0.0,0.0,0.0,0.0,0.0,0.0,0.0,-3.0013,-2.993,-3.0844,-3.1517,-3.2127,-3.2667,-3.2587,-3.1641,-3.1641,-3.1653,-3.1665,-3.2636,-3.3079,-3.3066,-3.3953,-3.4397,-3.4437,-3.5012,-3.535,-3.5508,-3.6599,-3.7351,-3.7874,-3.79,-3.79,-3.79,-3.79,-3.79,-3.79,-3.79,-3.7913,-3.7926,-3.7913,-3.7913,-3.7926,-3.7913,-3.79,-3.79,-3.79,-3.8057,-3.7926,-3.6696,-3.6982,-3.7426,-3.6892,-3.7373,-3.7521,-3.5883,-3.4836,-3.4264,-3.4993,-3.4739,-3.4957,-3.6377,-3.5771,-3.4703,-3.3487,-3.3685,-3.3981,-3.3697,-3.4091,-3.4751,-3.5485,-3.5485,-3.5961,-3.6926,-3.615,-3.5961,-3.7019,-3.615,-3.6068,-3.7044,-3.6871,-3.7268,-3.8253,-3.8109,-3.7952,-3.7952,-3.587,-3.4872,-3.4872,-3.4775,-3.4299,-0.8911,0.0,0.0,0.0,0.0,0.0,0.0,0.0,0.0,0.0,0.0,0.0,0.0,0.0,0.0,0.0,0.0,0.0,0.0,0.0,0.0,0.0,0.0,0.0,0.0,0.0,0.0,0.0,-3.2102,-3.1605,-3.0939,-3.1185,-3.1668,-3.2507,-3.2743,-3.2864,-3.3027,-3.304,-3.3232,-3.3602,-3.3869,-3.4037,-3.405,-3.4301,-3.4397,-3.441,-3.458,-3.4894,-3.5448,-3.6569,-3.7103,-3.7299,-3.773,-3.79,-3.79,-3.79,-3.79,-3.79,-3.79,-3.8241,-3.8688,-3.8123,-3.8254,-3.8688,-3.811,-3.7965,-3.8044,-3.79,-3.8161,-3.8408,-3.8031,-3.8149,-3.8215,-3.8148,-3.824,-3.811,-3.6871,-3.6646,-3.6458,-3.5581,-3.5294,-3.5306,-3.5784,-3.5581,-3.5281,-3.4909,-3.5017,-3.5017,-3.5017,-3.5114,-3.5581,-3.6445,-3.5961,-3.6257,-3.8018,-3.7217,-3.7031,-3.8109,-3.7913,-3.8096,-3.8807,-3.8727,-3.9031,-3.9748,-3.9774,-3.9681,-3.9681,-3.7089,-3.5941,-3.5846,-3.5162,-3.487,-1.0121,-1.0761,0.0,0.0,0.0,0.0,0.0,0.0,0.0,0.0,0.0,0.0,0.0,0.0,0.0,0.0,0.0,0.0,0.0,0.0,0.0,0.0,0.0,0.0,0.0,0.0,0.0,-3.1954,-3.2057,-3.1889,-3.1304,-3.1534,-3.1834,-3.2333,-3.2568,-3.2868,-3.3208,-3.3208,-3.3496,-3.4058,-3.4058,-3.4175,-3.4397,-3.4494,-3.4577,-3.4577,-3.466,-3.4857,-3.5252,-3.6161,-3.6744,-3.723,-3.7584,-3.7873,-3.8161,-3.8161,-3.8161,-3.8161,-3.8057,-3.8359,-3.8793,-3.853,-3.8648,-3.8885,-3.8635,-3.8424,-3.8317,-3.8253,-3.8434,-3.8602,-3.8666,-3.8756,-3.8756,-3.8756,-3.8769,-3.8756,-3.8069,-3.8173,-3.7978,-3.6539,-3.6445,-3.6739,-3.6913,-3.69,-3.6714,-3.6245,-3.6351,-3.6445,-3.6351,-3.6458,-3.6926,-3.7874,-3.7402,-3.7599,-3.8769,-3.858,-3.8515,-3.8872,-3.9342,-3.965,-3.9822,-3.9893,-4.0174,-4.0522,-4.0428,-4.0428,-4.0428,-3.8773,-3.7964,-3.7977,-3.6973,-3.6553,-1.1961,-1.2213,0.0,0.0,0.0,0.0,-1.6284,-1.7105,0.0,0.0,0.0,0.0,0.0,0.0,0.0,0.0,0.0,0.0,0.0,0.0,0.0,0.0,0.0,0.0,0.0,-3.0957,-3.0983,-3.1061,-3.1211,-3.1347,-3.1347,-3.1761,-3.1974,-3.1744,-3.2319,-3.262,-3.2673,-3.2673,-3.2974,-3.3577,-3.3642,-3.3917,-3.4389,-3.4716,-3.4839,-3.4839,-3.5003,-3.5086,-3.5125,-3.5632,-3.6353,-3.721,-3.7342,-3.7878,-3.8522,-3.8589,-3.8602,-3.8602,-3.8304,-3.8448,-3.8775,-3.9097,-3.8965,-3.8882,-3.9335,-3.9108,-3.8682,-3.8706,-3.8692,-3.8679,-3.8908,-3.8908,-3.8908,-3.8908,-3.9114,-3.9305,-3.9305,-3.9305,-3.8922,-3.7795,-3.7991,-3.8472,-3.8908,-3.8908,-3.8535,-3.7402,-3.7756,-3.7979,-3.7612,-3.8057,-3.8642,-3.9216,-3.9359,-3.94,-3.94,-3.9943,-4.0065,-3.9536,-4.0526,-4.0892,-4.0404,-4.0707,-4.0844,-4.0898,-4.0817,-4.0723,-4.0723,-4.0495,-4.0428,-4.0334,-3.9399,-3.893,-1.3705,-1.3865,-1.4237,-1.3369,0.0,0.0,0.0,-1.445,0.0,0.0,0.0,0.0,0.0,0.0,0.0,0.0,0.0,0.0,0.0,0.0,0.0,0.0,0.0,0.0,0.0,-3.0791,-3.093,-3.1421,-3.1522,-3.1522,-3.1522,-3.1628,-3.1694,-3.162,-3.1726,-3.2004,-3.2442,-3.2442,-3.276,-3.337,-3.3834,-3.4112,-3.4232,-3.4777,-3.5003,-3.5003,-3.5086,-3.5086,-3.5086,-3.5205,-3.5672,-3.6306,-3.7276,-3.7714,-3.7963,-3.8429,-3.8602,-3.8602,-3.8498,-3.8986,-3.9597,-3.9428,-3.98,-4.02,-3.9667,-3.9572,-3.9476,-3.9262,-3.9024,-3.8922,-3.9203,-3.9203,-3.9203,-3.9203,-3.9292,-3.9305,-3.9305,-3.9305,-3.9203,-3.9011,-3.9024,-3.9114,-3.9203,-3.9203,-3.9114,-3.8922,-3.9325,-3.9563,-3.8989,-3.9429,-3.964,-3.9359,-3.9726,-4.0011,-4.0011,-4.058,-4.0879,-4.077,-4.0987,-4.1286,-4.1625,-4.1666,-4.1951,-4.2424,-4.2438,-4.2438,-4.2438,-4.1085,-4.0428,-4.0428,-4.0226,-4.0275,-1.536,-1.5234,-1.5427,-1.4914,0.0,0.0,0.0,0.0,0.0,0.0,0.0,0.0,0.0,0.0,0.0,0.0,0.0,0.0,0.0,0.0,0.0,0.0,0.0,0.0,0.0,-3.025,-3.0455,-3.0833,-3.1141,-3.1315,-3.1315,-3.1596,-3.1683,-3.1609,-3.1609,-3.1742,-3.2022,-3.2022,-3.2315,-3.2888,-3.3181,-3.3634,-3.422,-3.4593,-3.4968,-3.5236,-3.5399,-3.5399,-3.5399,-3.5399,-3.5574,-3.5841,-3.6668,-3.7289,-3.7712,-3.8303,-3.8518,-3.8559,-3.8662,-3.9137,-3.9523,-3.965,-4.0024,-4.0451,-4.0279,-4.017,-3.9883,-3.9468,-3.9203,-3.9114,-3.9305,-3.9305,-3.9305,-3.9305,-3.9305,-3.9305,-3.9305,-3.9305,-3.9305,-3.9305,-3.9305,-3.9305,-3.9305,-3.9305,-3.94,-3.9699,-3.9997,-4.0078,-3.978,-4.0268,-4.0418,-3.9807,-4.0296,-4.0648,-4.0648,-4.1205,-4.1435,-4.1137,-4.1666,-4.2005,-4.2005,-4.229,-4.2588,-4.2873,-4.2887,-4.2887,-4.2887,-4.2085,-4.161,-4.161,-4.161,-4.1758,0.0,0.0,0.0,0.0,0.0,-1.7142,0.0,0.0,0.0,-1.9252,0.0,0.0,0.0,0.0,0.0,0.0,0.0,0.0,0.0,0.0,0.0,0.0,0.0,0.0,0.0,-2.9213,-2.9468,-3.0131,-3.0212,-3.0411,-3.106,-3.1532,-3.1783,-3.1757,-3.1757,-3.1757,-3.1757,-3.1757,-3.1896,-3.2337,-3.2457,-3.3018,-3.4045,-3.4418,-3.4861,-3.5319,-3.5588,-3.571,-3.571,-3.571,-3.571,-3.5778,-3.621,-3.6737,-3.7419,-3.803,-3.8247,-3.8242,-3.8634,-3.8938,-3.9251,-3.9685,-4.0086,-4.0458,-4.0974,-4.0689,-4.0106,-3.9753,-3.9481,-3.9332,-3.9441,-3.9386,-3.9305,-3.9305,-3.9305,-3.9305,-3.9305,-3.9305,-3.9305,-3.9305,-3.9305,-3.9305,-3.9305,-3.9305,-3.9495,-4.0092,-4.0296,-4.0363,-4.0363,-4.0906,-4.1055,-4.0431,-4.092,-4.1286,-4.1286,-4.1842,-4.1978,-4.1489,-4.2358,-4.267,-4.2195,-4.2629,-4.2887,-4.2887,-4.2887,-4.2887,-4.2887,-4.2887,-4.2887,-4.2887,-4.2887,-4.279,0.0,0.0,0.0,0.0,-1.8545,0.0,0.0,0.0,-1.7638,-1.6759,0.0,0.0,0.0,0.0,0.0,0.0,0.0,0.0,0.0,0.0,0.0,0.0,0.0,0.0,0.0,0.0,-2.8048,-3.0174,-2.8441,-2.8427,-3.1151,-3.1355,-3.1639,-3.2096,-3.2109,-3.2109,-3.2109,-3.2109,-3.2136,-3.2204,-3.2732,-3.3132,-3.3219,-3.4275,-3.479,-3.4884,-3.5493,-3.571,-3.571,-3.571,-3.571,-3.5778,-3.6375,-3.6646,-3.6782,-3.7406,-3.7636,-3.7718,-3.8228,-3.8518,-3.8695,-3.9821,-4.0567,-4.1028,-4.1096,-4.0689,-4.0296,-4.077,-4.0133,-3.9414,-3.9956,-3.9699,-3.9305,-3.9305,-3.9305,-3.9305,-3.9305,-3.9305,-3.9305,-3.9305,-3.9305,-3.9305,-3.9305,-3.9305,-3.9495,-4.0092,-4.0662,-4.1015,-4.1015,-4.153,-4.1679,-4.1069,-4.1544,-4.191,-4.191,-4.2439,-4.2765,-4.2697,-4.2806,-4.286,-4.2792,-4.2846,-4.2887,-4.2887,-4.2887,-4.2887,-4.2887,-4.2887,-4.2887,-4.2887,-4.2887,-4.2887,0.0,0.0,0.0,0.0,0.0,0.0,0.0,0.0,-1.7326,0.0,0.0,0.0,0.0,0.0,0.0,0.0,0.0,0.0,0.0,0.0,0.0,0.0,0.0,0.0,0.0,0.0,0.0,0.0,0.0,-2.7528,-2.9129,-3.054,-3.1409,-3.1653,-3.2006,-3.2182,-3.2182,-3.2182,-3.2182,-3.2182,-3.244,-3.2725,-3.3152,-3.358,-3.4177,-3.4841,-3.5099,-3.5398,-3.571,-3.571,-3.571,-3.575,-3.5995,-3.609,-3.6157,-3.6768,-3.6999,-3.708,-3.7691,-3.8138,-3.8613,-3.9807,-4.0363,-4.0648,-4.1001,-4.0933,-4.0703,-4.0608,-4.0201,-3.9875,-4.0119,-3.9739,-3.9386,-3.9739,-3.9549,-3.9305,-3.9305,-3.9305,-3.9305,-3.9305,-3.9305,-3.9305,-3.9305,-3.9305,-3.9631,-4.058,-4.0947,-4.1245,-4.1598,-4.2154,-4.229,-4.1693,-4.2154,-4.2521,-4.2521,-4.2738,-4.2887,-4.2887,-4.2887,-4.2887,-4.2887,-4.2887,-4.2887,-4.2887,-4.2887,-4.2887,-4.2887,-4.2887,-4.2887,-4.2887,-4.2887,-4.2887,-1.9429,0.0,0.0,0.0,0.0,0.0,0.0,0.0,0.0,0.0,0.0,0.0,0.0,0.0,0.0,0.0,0.0,0.0,0.0,0.0,0.0,0.0,0.0,0.0,0.0,0.0,0.0,0.0,0.0,0.0,-2.761,-2.936,-3.0622,-3.1273,-3.1707,-3.2006,-3.2182,-3.2182,-3.2182,-3.2182,-3.2182,-3.2399,-3.282,-3.2983,-3.362,-3.4597,-3.476,-3.5167,-3.571,-3.571,-3.571,-3.571,-3.571,-3.571,-3.5764,-3.6198,-3.6347,-3.6442,-3.7066,-3.7786,-3.8586,-3.9604,-4.0051,-4.0268,-4.073,-4.0865,-4.0811,-4.0526,-4.0201,-4.0024,-4.035,-3.9875,-3.9454,-4.0051,-3.9739,-3.9305,-3.9305,-3.9305,-3.9305,-3.9305,-3.9305,-3.9305,-3.9305,-3.9305,-3.9658,-4.0703,-4.1001,-4.134,-4.1924,-4.2521,-4.2724,-4.229,-4.2629,-4.2887,-4.2887,-4.2887,-4.2887,-4.2887,-4.2887,-4.2887,-4.2887,-4.2887,-4.2887,-4.2887,-4.2887,-4.2887,-4.2887,-4.2887,-4.2887,-4.2887,-4.2887,-4.2887,0.0,0.0,0.0,-1.9364,0.0,0.0,0.0,0.0,-1.8589,0.0,0.0,0.0,0.0,0.0,0.0,-1.62,0.0,0.0,0.0,0.0,0.0,0.0,0.0,0.0,0.0,0.0,0.0,0.0,0.0,0.0,-2.7461,-2.7786,-2.8885,-3.1219,-3.1314,-3.1599,-3.2169,-3.2182,-3.2182,-3.2182,-3.2182,-3.2182,-3.2223,-3.2793,-3.3403,-3.3923,-3.4584,-3.5167,-3.571,-3.571,-3.571,-3.571,-3.571,-3.571,-3.571,-3.5737,-3.575,-3.5832,-3.6429,-3.7419,-3.8518,-3.9129,-3.9712,-4.0187,-4.0214,-4.0214,-4.0336,-4.092,-4.0241,-3.9604,-4.0784,-4.0201,-3.9454,-4.0051,-3.9739,-3.9305,-3.9305,-3.9305,-3.9305,-3.9305,-3.9305,-3.9305,-3.9305,-3.9305,-3.9509,-4.0133,-4.073,-4.134,-4.1924,-4.2521,-4.2873,-4.286,-4.2873,-4.2887,-4.2887,-4.2887,-4.2887,-4.2887,-4.2887,-4.2887,-4.2887,-4.2887,-4.2887,-4.2887,-4.2887,-4.2887,-4.2887,-4.2887,-4.2887,-4.2887,-4.2887,-4.2887,0.0,0.0,-2.4015,-2.122,0.0,0.0,0.0,0.0,0.0,0.0,0.0,0.0,0.0,0.0,-1.6932,-1.6729,-1.6023,0.0,0.0,0.0,0.0,0.0,0.0,0.0,0.0,0.0,0.0,0.0,0.0,0.0,0.0,-2.7216,-2.8845,-3.0052,-3.0866,-3.1585,-3.2169,-3.2182,-3.2182,-3.2182,-3.2182,-3.2182,-3.2182,-3.2386,-3.2806,-3.339,-3.3987,-3.4584,-3.5167,-3.556,-3.571,-3.571,-3.571,-3.571,-3.571,-3.571,-3.571,-3.5805,-3.6388,-3.7134,-3.7921,-3.8532,-3.9115,-3.9671,-4.0065,-4.0187,-4.0228,-4.0445,-4.0499,-4.0499,-4.0499,-4.0201,-3.9943,-4.0133,-3.9739,-3.9305,-3.9305,-3.9305,-3.9305,-3.9305,-3.9305,-3.9305,-3.9305,-3.9305,-3.9644,-4.0648,-4.0987,-4.1476,-4.2466,-4.2765,-4.2887,-4.2887,-4.2887,-4.2887,-4.2887,-4.2887,-4.2887,-4.2887,-4.2887,-4.2887,-4.2887,-4.2887,-4.2887,-4.2887,-4.2887,-4.2887,-4.2887,-4.2887,-4.2887,-4.2887,-4.2887,-4.2887,-2.4569,-2.5507,0.0,-2.3336,-2.3445,0.0,-2.0392,0.0,0.0,0.0,0.0,0.0,0.0,0.0,0.0,-1.7597,-1.6444,0.0,0.0,0.0,0.0,0.0,0.0,0.0,0.0,0.0,-1.9089,-2.0229,0.0,0.0,0.0,0.0,-2.7881,-2.9116,-3.0351,-3.126,-3.1857,-3.2074,-3.2182,-3.2182,-3.2182,-3.2182,-3.2182,-3.2182,-3.2508,-3.3152,-3.3471,-3.4095,-3.4855,-3.5248,-3.5533,-3.571,-3.571,-3.571,-3.571,-3.571,-3.571,-3.5805,-3.6388,-3.6863,-3.7338,-3.8152,-3.8667,-3.9102,-3.9699,-3.9875,-3.9916,-4.0133,-4.0323,-4.0485,-4.0513,-4.0201,-3.9916,-4.0133,-3.9739,-3.9305,-3.9305,-3.9305,-3.9305,-3.9305,-3.9305,-3.9305,-3.9305,-3.9305,-3.9644,-4.0635,-4.0974,-4.1476,-4.2439,-4.2765,-4.2887,-4.2887,-4.2887,-4.2887,-4.2887,-4.2887,-4.2887,-4.2887,-4.2887,-4.2887,-4.2887,-4.2887,-4.2887,-4.2887,-4.2887,-4.2887,-4.2887,-4.2887,-4.2887,-4.2887,-4.2887,-4.2887]},{"header":{"parameterUnit":"m.s-1","parameterCategory":1,"la1":30.6,"la2":29.2853,"lo1":-89.7004,"lo2":-87.6739,"dy":0.0162,"dx":0.0183,"nx":112,"ny":82,"refTime":"2024-06-07T12:00:00:Z","depth":0,"parameterNumber":3,"parameterNumberName":"V-component_of_WINDS"},"data":[0.0,0.0,0.0,0.0,0.0,0.0,0.0,0.0,0.0,0.0,0.0,0.0,0.0,0.0,0.0,0.0,0.0,0.0,0.0,0.0,0.0,0.0,0.0,0.0,0.0,0.0,0.0,0.0,0.0,0.0,0.0,0.0,0.0,0.0,0.0,0.0,0.0,0.0,0.0,0.0,0.0,0.0,0.0,0.0,0.0,0.0,0.0,0.0,0.0,0.0,0.0,0.0,0.0,0.0,0.0,0.0,0.0,0.0,0.0,0.0,0.0,0.0,0.0,0.0,0.0,0.0,0.0,0.0,0.0,0.0,0.0,0.0,0.0,0.0,0.0,0.0,0.0,0.0,0.0,0.0,0.0,0.0,0.0,0.0,0.0,0.0,0.0,0.0,0.0,0.0,0.0,-3.0735,-3.6109,-3.9397,-3.9369,-3.8401,-3.5136,-2.8877,0.0,0.0,0.0,0.0,0.0,0.0,0.0,0.0,0.0,0.0,0.0,0.0,0.0,0.0,0.0,0.0,0.0,0.0,0.0,0.0,0.0,0.0,0.0,0.0,0.0,0.0,0.0,0.0,0.0,0.0,0.0,0.0,0.0,0.0,0.0,0.0,0.0,0.0,0.0,0.0,0.0,0.0,0.0,0.0,0.0,0.0,0.0,0.0,0.0,0.0,0.0,0.0,0.0,0.0,0.0,0.0,0.0,0.0,0.0,0.0,0.0,0.0,0.0,0.0,0.0,0.0,0.0,0.0,0.0,0.0,0.0,0.0,0.0,0.0,0.0,0.0,0.0,0.0,0.0,0.0,0.0,0.0,0.0,0.0,0.0,0.0,0.0,0.0,0.0,0.0,0.0,0.0,0.0,0.0,0.0,0.0,0.0,0.0,0.0,0.0,0.0,0.0,0.0,0.0,-2.9134,-3.7373,-3.9834,-4.0806,-4.0546,-3.8501,-3.4967,-2.9659,0.0,0.0,0.0,0.0,0.0,0.0,0.0,0.0,0.0,0.0,0.0,0.0,0.0,0.0,0.0,0.0,0.0,0.0,0.0,0.0,0.0,0.0,0.0,0.0,0.0,0.0,0.0,0.0,0.0,0.0,0.0,0.0,0.0,0.0,0.0,0.0,0.0,0.0,0.0,0.0,0.0,0.0,0.0,0.0,0.0,0.0,0.0,0.0,0.0,0.0,0.0,0.0,0.0,0.0,0.0,0.0,0.0,0.0,0.0,0.0,0.0,0.0,0.0,0.0,0.0,0.0,0.0,0.0,0.0,0.0,0.0,0.0,0.0,0.0,0.0,0.0,0.0,0.0,0.0,0.0,0.0,0.0,0.0,0.0,0.0,0.0,0.0,0.0,0.0,0.0,0.0,0.0,0.0,0.0,0.0,0.0,0.0,0.0,0.0,0.0,0.0,0.0,0.0,-2.6873,-3.1806,-3.9529,-4.0721,-4.1116,-4.1424,-3.8775,-3.4958,-2.9983,-2.6456,0.0,0.0,0.0,0.0,0.0,0.0,0.0,0.0,0.0,0.0,0.0,0.0,0.0,0.0,0.0,0.0,0.0,0.0,0.0,0.0,0.0,0.0,0.0,0.0,0.0,0.0,0.0,0.0,0.0,0.0,0.0,0.0,0.0,0.0,0.0,0.0,0.0,0.0,0.0,0.0,0.0,0.0,0.0,0.0,0.0,0.0,0.0,0.0,0.0,0.0,0.0,0.0,0.0,0.0,0.0,0.0,0.0,0.0,0.0,0.0,0.0,0.0,0.0,0.0,0.0,0.0,0.0,0.0,0.0,0.0,0.0,0.0,0.0,0.0,0.0,0.0,0.0,0.0,0.0,0.0,0.0,0.0,0.0,0.0,0.0,0.0,0.0,0.0,0.0,0.0,0.0,0.0,0.0,0.0,0.0,0.0,0.0,0.0,0.0,0.0,0.0,0.0,-3.1162,-3.5224,-4.0602,-4.1186,-4.1406,-4.1995,-3.8667,-3.4628,-3.0094,-2.5465,0.0,0.0,0.0,0.0,0.0,0.0,0.0,0.0,0.0,0.0,0.0,0.0,0.0,0.0,0.0,0.0,0.0,0.0,0.0,0.0,0.0,0.0,0.0,0.0,0.0,0.0,0.0,0.0,0.0,0.0,0.0,0.0,0.0,0.0,0.0,0.0,0.0,0.0,0.0,0.0,0.0,0.0,0.0,0.0,0.0,0.0,0.0,0.0,0.0,0.0,0.0,0.0,0.0,0.0,0.0,0.0,0.0,0.0,0.0,0.0,0.0,0.0,0.0,0.0,0.0,0.0,0.0,0.0,0.0,0.0,0.0,0.0,0.0,0.0,0.0,0.0,0.0,0.0,0.0,0.0,0.0,0.0,0.0,0.0,0.0,0.0,0.0,0.0,0.0,0.0,0.0,0.0,0.0,0.0,0.0,0.0,0.0,0.0,0.0,0.0,0.0,0.0,-3.4415,-3.9966,-4.2063,-4.2295,-4.2267,-4.2184,-3.775,-3.3486,-3.0019,-2.4373,0.0,0.0,0.0,0.0,0.0,0.0,0.0,0.0,0.0,0.0,0.0,0.0,0.0,0.0,0.0,0.0,0.0,0.0,0.0,0.0,0.0,0.0,0.0,0.0,0.0,0.0,0.0,0.0,0.0,0.0,0.0,0.0,0.0,0.0,0.0,0.0,0.0,0.0,0.0,0.0,0.0,0.0,0.0,0.0,0.0,0.0,0.0,0.0,0.0,0.0,0.0,0.0,0.0,0.0,0.0,0.0,0.0,0.0,0.0,0.0,0.0,0.0,0.0,0.0,0.0,0.0,0.0,0.0,0.0,0.0,0.0,0.0,0.0,0.0,0.0,0.0,0.0,0.0,0.0,0.0,0.0,0.0,0.0,0.0,0.0,0.0,0.0,0.0,0.0,0.0,0.0,0.0,0.0,0.0,0.0,0.0,0.0,0.0,0.0,0.0,0.0,0.0,-3.3469,-3.8115,0.0,-4.227,-4.2087,-4.1623,-3.8407,-3.4339,-2.9406,0.0,0.0,0.0,0.0,0.0,0.0,0.0,0.0,0.0,0.0,0.0,0.0,0.0,0.0,0.0,0.0,0.0,0.0,0.0,0.0,0.0,0.0,0.0,0.0,0.0,0.0,0.0,0.0,0.0,0.0,0.0,0.0,0.0,0.0,0.0,0.0,0.0,0.0,0.0,0.0,0.0,0.0,0.0,0.0,0.0,0.0,0.0,0.0,0.0,0.0,0.0,0.0,0.0,0.0,0.0,0.0,0.0,0.0,0.0,0.0,0.0,0.0,0.0,0.0,0.0,0.0,0.0,0.0,0.0,0.0,0.0,0.0,0.0,0.0,0.0,0.0,0.0,0.0,0.0,0.0,0.0,0.0,0.0,0.0,0.0,0.0,0.0,0.0,0.0,0.0,0.0,0.0,0.0,0.0,0.0,0.0,0.0,0.0,0.0,0.0,0.0,0.0,-2.8893,-3.3412,-3.7565,0.0,-4.1902,-4.1574,-4.1169,-3.8312,-3.4302,-2.9017,0.0,0.0,0.0,0.0,0.0,0.0,0.0,0.0,0.0,0.0,0.0,0.0,0.0,0.0,0.0,0.0,0.0,0.0,0.0,0.0,0.0,0.0,0.0,0.0,0.0,0.0,0.0,0.0,0.0,0.0,0.0,0.0,0.0,0.0,0.0,0.0,0.0,0.0,0.0,0.0,0.0,0.0,0.0,0.0,0.0,0.0,0.0,0.0,0.0,0.0,0.0,0.0,0.0,0.0,0.0,0.0,0.0,0.0,0.0,0.0,0.0,0.0,0.0,0.0,0.0,0.0,0.0,0.0,0.0,0.0,0.0,0.0,0.0,0.0,0.0,0.0,0.0,0.0,0.0,0.0,0.0,0.0,0.0,0.0,0.0,0.0,0.0,0.0,0.0,0.0,0.0,0.0,0.0,0.0,0.0,0.0,0.0,0.0,0.0,0.0,0.0,0.0,-2.9179,-3.4884,-3.9402,-4.1724,-4.1274,-4.0854,-4.0971,-3.7125,-3.2996,0.0,0.0,0.0,0.0,0.0,0.0,0.0,0.0,0.0,0.0,0.0,0.0,0.0,0.0,0.0,0.0,0.0,0.0,0.0,0.0,0.0,0.0,0.0,0.0,0.0,0.0,0.0,0.0,0.0,0.0,0.0,0.0,0.0,0.0,0.0,0.0,0.0,0.0,0.0,0.0,0.0,0.0,0.0,0.0,0.0,0.0,0.0,0.0,0.0,0.0,0.0,0.0,0.0,0.0,0.0,0.0,0.0,0.0,0.0,0.0,0.0,0.0,0.0,0.0,0.0,0.0,0.0,0.0,0.0,0.0,0.0,0.0,0.0,0.0,0.0,0.0,0.0,0.0,0.0,0.0,0.0,0.0,0.0,0.0,0.0,0.0,0.0,0.0,0.0,0.0,0.0,0.0,0.0,0.0,0.0,0.0,0.0,0.0,0.0,0.0,0.0,0.0,0.0,-2.9795,-3.5004,-3.8933,-4.0817,-4.0798,-4.0424,-3.9762,-3.7499,-3.3627,-2.7791,0.0,0.0,0.0,0.0,0.0,0.0,0.0,0.0,0.0,0.0,0.0,0.0,0.0,0.0,0.0,0.0,0.0,0.0,0.0,0.0,0.0,0.0,0.0,0.0,0.0,0.0,0.0,0.0,0.0,0.0,0.0,0.0,0.0,0.0,0.0,0.0,0.0,0.0,0.0,0.0,0.0,0.0,0.0,0.0,0.0,0.0,0.0,0.0,0.0,0.0,0.0,0.0,0.0,0.0,0.0,0.0,0.0,0.0,0.0,0.0,0.0,0.0,0.0,0.0,0.0,0.0,0.0,0.0,0.0,0.0,0.0,0.0,0.0,0.0,0.0,0.0,0.0,0.0,0.0,0.0,0.0,0.0,0.0,0.0,0.0,0.0,0.0,0.0,0.0,0.0,0.0,0.0,0.0,0.0,0.0,0.0,0.0,0.0,0.0,0.0,0.0,0.0,-3.0113,-3.4801,-3.8376,-4.03,-4.0123,-3.977,-3.9565,-3.7654,-3.4247,-2.9024,0.0,0.0,0.0,0.0,0.0,0.0,0.0,0.0,0.0,0.0,0.0,0.0,0.0,0.0,0.0,0.0,0.0,0.0,0.0,0.0,0.0,0.0,0.0,0.0,0.0,0.0,0.0,0.0,0.0,0.0,0.0,0.0,0.0,0.0,0.0,0.0,0.0,0.0,0.0,0.0,0.0,0.0,0.0,0.0,0.0,0.0,0.0,0.0,0.0,0.0,0.0,0.0,0.0,0.0,0.0,0.0,0.0,0.0,0.0,0.0,0.0,0.0,0.0,0.0,0.0,0.0,0.0,0.0,0.0,0.0,0.0,0.0,0.0,0.0,0.0,0.0,0.0,0.0,0.0,0.0,0.0,0.0,0.0,0.0,0.0,0.0,0.0,0.0,0.0,0.0,0.0,0.0,0.0,0.0,0.0,0.0,0.0,0.0,0.0,0.0,0.0,0.0,-3.0094,-3.439,-3.7839,-4.0039,-3.9412,-3.9158,-3.99,-3.7584,-3.4734,-3.1593,0.0,0.0,0.0,0.0,0.0,0.0,0.0,0.0,0.0,0.0,0.0,0.0,0.0,0.0,0.0,0.0,0.0,0.0,0.0,0.0,0.0,0.0,0.0,0.0,0.0,0.0,0.0,0.0,0.0,0.0,0.0,0.0,0.0,0.0,0.0,0.0,0.0,0.0,0.0,0.0,0.0,0.0,0.0,0.0,0.0,0.0,0.0,0.0,0.0,0.0,0.0,0.0,0.0,0.0,0.0,0.0,0.0,0.0,0.0,0.0,-2.3875,0.0,0.0,0.0,0.0,0.0,0.0,0.0,0.0,0.0,0.0,0.0,0.0,0.0,0.0,0.0,0.0,0.0,0.0,0.0,0.0,0.0,0.0,0.0,0.0,0.0,0.0,0.0,0.0,0.0,0.0,0.0,0.0,0.0,0.0,0.0,0.0,0.0,0.0,0.0,0.0,0.0,-2.9382,-3.4428,-3.8106,-3.925,-3.9185,-3.9034,-3.9073,-3.7191,-3.4629,-3.1451,0.0,0.0,0.0,0.0,0.0,0.0,0.0,0.0,0.0,0.0,0.0,0.0,0.0,0.0,0.0,0.0,0.0,0.0,0.0,0.0,0.0,0.0,0.0,0.0,0.0,0.0,0.0,0.0,0.0,0.0,0.0,0.0,0.0,0.0,0.0,0.0,0.0,0.0,0.0,0.0,0.0,0.0,0.0,0.0,0.0,0.0,0.0,0.0,0.0,0.0,0.0,0.0,0.0,0.0,0.0,0.0,0.0,0.0,0.0,0.0,0.0,-2.5942,0.0,0.0,0.0,0.0,0.0,0.0,0.0,0.0,0.0,0.0,0.0,0.0,0.0,0.0,0.0,0.0,0.0,0.0,0.0,0.0,0.0,0.0,0.0,0.0,0.0,0.0,0.0,0.0,0.0,0.0,0.0,0.0,0.0,0.0,0.0,0.0,0.0,0.0,0.0,0.0,-2.9754,-3.5014,-3.8637,-3.9064,-3.9235,-3.9277,-3.914,-3.7344,-3.5327,-3.3244,-2.9645,0.0,0.0,0.0,0.0,0.0,0.0,0.0,0.0,0.0,0.0,0.0,0.0,0.0,0.0,0.0,0.0,0.0,0.0,0.0,0.0,0.0,0.0,0.0,0.0,0.0,0.0,0.0,0.0,0.0,0.0,0.0,0.0,0.0,0.0,0.0,0.0,0.0,0.0,0.0,0.0,0.0,0.0,0.0,0.0,0.0,0.0,0.0,0.0,0.0,0.0,0.0,0.0,0.0,-3.5403,-3.7058,-3.8377,-3.7708,-3.8897,-4.107,-3.4253,-3.2501,-3.405,0.0,0.0,0.0,0.0,0.0,0.0,0.0,0.0,0.0,0.0,0.0,0.0,0.0,0.0,0.0,0.0,0.0,0.0,0.0,0.0,0.0,0.0,0.0,0.0,0.0,-3.5075,-3.5175,0.0,0.0,0.0,0.0,0.0,0.0,0.0,0.0,0.0,0.0,0.0,0.0,-3.0998,-3.5943,-3.9249,-3.9268,-3.9454,-3.9513,-3.9316,-3.7554,-3.6183,-3.5522,-3.2023,-2.9032,0.0,0.0,0.0,0.0,0.0,0.0,0.0,0.0,0.0,0.0,0.0,0.0,0.0,0.0,0.0,0.0,0.0,0.0,0.0,0.0,0.0,0.0,0.0,0.0,0.0,0.0,0.0,0.0,0.0,0.0,0.0,0.0,-1.9432,-2.0378,0.0,0.0,0.0,0.0,0.0,0.0,0.0,0.0,0.0,0.0,0.0,0.0,0.0,-3.3184,-3.6311,-3.8841,-4.0502,-4.1338,-4.3745,-4.4989,-4.5194,-4.5101,-4.5287,-4.5639,-4.4544,0.0,-3.9193,-3.5632,0.0,0.0,0.0,0.0,0.0,0.0,0.0,0.0,0.0,0.0,0.0,0.0,0.0,0.0,0.0,0.0,0.0,0.0,0.0,0.0,0.0,0.0,-3.9891,-3.9416,-3.9547,-3.9556,0.0,-3.3639,-2.852,-2.6517,-2.5057,0.0,0.0,0.0,0.0,0.0,0.0,0.0,-3.3417,-3.7331,-3.9817,-3.9884,-3.9658,-3.9243,-3.8601,-3.7431,-3.6705,-3.6597,-3.3992,-3.1684,-2.9987,-2.7022,0.0,0.0,0.0,0.0,0.0,0.0,0.0,0.0,0.0,0.0,0.0,0.0,0.0,0.0,0.0,0.0,0.0,0.0,0.0,0.0,0.0,0.0,0.0,0.0,0.0,0.0,0.0,0.0,0.0,-1.8914,-2.1494,-2.1978,-2.22,-2.1679,0.0,0.0,0.0,0.0,0.0,0.0,0.0,0.0,0.0,-3.6785,-3.7792,-3.9564,-4.2271,-4.4395,-4.5645,-4.6033,-4.8653,-4.993,-4.9949,-5.0395,-5.0859,-5.1249,-5.0803,-4.9596,-4.746,-4.1444,-3.7434,-3.4777,0.0,0.0,0.0,0.0,-3.0789,-3.2064,-3.5268,-3.5843,0.0,0.0,0.0,0.0,0.0,0.0,0.0,0.0,0.0,0.0,0.0,0.0,0.0,-4.2797,-4.3485,-4.3559,-4.263,-3.9919,-3.6534,0.0,-3.0495,-2.8278,-2.4825,0.0,0.0,0.0,0.0,0.0,-3.4963,-3.8609,-4.0851,-4.043,-4.014,-3.9694,-3.8914,-3.7861,-3.7075,-3.6608,-3.5075,-3.3687,-3.2581,-2.9512,-2.6629,0.0,0.0,0.0,0.0,0.0,0.0,0.0,0.0,0.0,0.0,0.0,0.0,0.0,0.0,0.0,0.0,0.0,0.0,0.0,0.0,0.0,0.0,0.0,0.0,0.0,0.0,0.0,0.0,-2.1444,-2.3822,-2.3717,-2.5034,-2.5066,0.0,0.0,0.0,0.0,0.0,0.0,-3.4921,-3.653,-3.9128,-4.2963,-4.39,-4.5471,-4.7757,-4.9381,-5.0287,-5.0508,-5.2586,-5.3553,-5.3571,-5.4166,-5.4779,-5.5299,-5.4704,-5.4444,-5.3887,-4.6717,-4.2927,-4.1322,-3.7895,-3.6192,-3.5749,-3.6323,-3.7219,-3.8544,-4.1518,-4.1999,-4.1181,-4.0308,0.0,-3.6954,-3.5048,0.0,0.0,0.0,0.0,-3.6168,-3.9761,-4.1311,-4.2575,-4.5026,-4.6048,-4.616,-4.4915,-4.4302,-4.2556,0.0,-3.5553,-3.3245,-2.9177,0.0,0.0,0.0,0.0,-3.5901,-3.7007,-3.9852,-4.1578,-4.0996,-4.0528,-3.9949,-3.9139,-3.8187,-3.7327,-3.6738,-3.5757,-3.4954,-3.4401,-3.176,-2.9487,-2.7727,0.0,0.0,0.0,0.0,0.0,0.0,0.0,0.0,0.0,0.0,0.0,0.0,0.0,0.0,0.0,0.0,0.0,0.0,0.0,0.0,0.0,0.0,0.0,0.0,0.0,0.0,0.0,0.0,0.0,-2.6295,-2.9286,0.0,0.0,0.0,0.0,-3.2432,-3.416,-3.6766,-4.0585,-4.1822,-4.4188,-4.7997,-4.9157,-5.0897,-5.3366,-5.4238,-5.5074,-5.593,-5.606,-5.6116,-5.6116,-5.6153,-5.6209,-5.6227,-5.619,-5.6172,-5.5837,-5.1472,-4.785,-4.4878,-4.3076,-4.0921,-3.9166,-4.1497,-4.1943,-4.1731,-4.4228,-4.4544,-4.3689,-4.2872,-4.0958,-3.925,-4.0661,-3.8943,0.0,0.0,-4.0597,-4.1787,-4.4321,-4.5584,-4.6234,-4.6401,-4.6475,-4.6475,-4.6382,-4.5119,-4.3243,0.0,-3.9227,-3.7842,-3.6084,0.0,-3.4563,-3.5169,-3.6199,-3.7776,-4.0156,-4.1089,-4.1538,-4.1558,-4.0572,-3.9611,-3.8861,-3.8058,-3.7559,-3.7523,-3.6078,-3.5186,-3.5168,-3.358,-3.1635,-2.9333,-2.6835,0.0,0.0,0.0,0.0,0.0,0.0,0.0,0.0,0.0,0.0,0.0,0.0,0.0,0.0,0.0,0.0,0.0,0.0,0.0,0.0,0.0,0.0,0.0,0.0,0.0,0.0,0.0,0.0,-3.008,-3.2931,0.0,0.0,-3.3941,-3.597,-3.8066,-4.0551,-4.3128,-4.5697,-4.7916,-4.9861,-5.1553,-5.3213,-5.4518,-5.541,-5.5689,-5.5986,-5.632,-5.6822,-5.7082,-5.71,-5.7621,-5.7843,-5.7843,-5.7843,-5.7565,-5.697,-5.5466,-5.3255,-5.0655,-4.954,-4.8259,-4.7181,-4.8593,-4.9243,-4.9577,-5.0469,-4.9893,-4.837,-4.5955,-4.4581,-4.3968,-4.4562,-4.3931,-4.3188,-4.4079,-4.4525,-4.5082,-4.6475,-4.7051,-4.7404,-4.7924,-4.8036,-4.7906,-4.7386,-4.681,-4.5974,-4.4581,-4.2291,-4.023,-3.9127,-3.8884,-3.8345,-3.6848,-3.8515,-4.0131,-4.0865,-4.1597,-4.202,-4.2038,-4.1225,-4.036,-3.9575,-3.8808,-3.7933,-3.6881,-3.581,-3.4989,-3.4526,-3.3455,-3.2523,-3.1653,-2.9797,-2.6532,0.0,0.0,0.0,0.0,0.0,0.0,0.0,0.0,0.0,0.0,0.0,0.0,0.0,0.0,0.0,0.0,0.0,0.0,0.0,0.0,0.0,0.0,0.0,0.0,0.0,0.0,-3.3347,-3.3262,-3.6391,-3.8169,-3.7087,-3.9316,-4.1723,-4.3807,-4.647,-4.8733,-5.0525,-5.2678,-5.3975,-5.4293,-5.5866,-5.671,-5.671,-5.697,-5.7119,-5.7119,-5.7658,-5.7899,-5.7918,-5.8475,-5.8716,-5.8716,-5.8716,-5.8401,-5.7899,-5.7899,-5.6952,-5.5354,-5.4277,-5.3515,-5.3125,-5.3645,-5.3998,-5.4128,-5.359,-5.2512,-5.1045,-4.8853,-4.8147,-4.8147,-4.8147,-4.8147,-4.8091,-4.7794,-4.7701,-4.7776,-4.8036,-4.8091,-4.824,-4.8779,-4.8909,-4.876,-4.8221,-4.8023,-4.7787,-4.7249,-4.4853,-4.2775,-4.2239,-4.2054,-4.1177,-3.8793,-4.0346,-4.1525,-4.081,-4.1627,-4.2287,-4.2287,-4.1573,-4.077,-3.9985,-3.8487,-3.7362,-3.6827,-3.5043,-3.4169,-3.4472,-3.2938,-3.2081,-3.2081,-3.0529,-2.7674,-2.3463,0.0,0.0,0.0,0.0,0.0,0.0,0.0,0.0,0.0,0.0,0.0,0.0,0.0,0.0,0.0,0.0,0.0,0.0,0.0,0.0,0.0,0.0,0.0,-2.881,-3.2038,-3.4893,-3.586,-3.9784,-4.2253,-4.1977,-4.496,-4.7709,-4.9595,-5.1545,-5.3347,-5.4907,-5.5816,-5.6299,-5.628,-5.7078,-5.7505,-5.7505,-5.8308,-5.8716,-5.8716,-5.8716,-5.8716,-5.8716,-5.8716,-5.8716,-5.8716,-5.8716,-5.8716,-5.8716,-5.8716,-5.8716,-5.8549,-5.6989,-5.6376,-5.6376,-5.6376,-5.5819,-5.4816,-5.32,-5.2104,-5.1435,-5.1416,-5.1398,-5.1398,-5.1398,-5.1398,-5.1231,-5.0376,-5.0099,-4.9932,-4.9152,-4.8911,-4.8911,-4.8911,-4.8892,-4.8855,-4.8874,-4.8623,-4.8383,-4.8383,-4.6908,-4.5676,-4.564,-4.4475,-4.3019,-4.1448,-4.1841,0.0,-4.0217,-4.1341,-4.2269,-4.2216,-4.152,-4.0753,-3.995,-3.7059,-3.5935,-3.7452,-3.3937,-3.2813,-3.5079,-3.2242,-3.0618,-3.0618,-2.9002,-2.7415,-2.5872,0.0,0.0,0.0,0.0,0.0,0.0,0.0,0.0,0.0,0.0,0.0,0.0,0.0,0.0,0.0,0.0,0.0,0.0,0.0,0.0,0.0,0.0,-3.3758,-3.3377,-3.6755,-3.9955,-4.1908,-4.3721,-4.5454,-4.7071,-4.8568,-5.0261,-5.2218,-5.3426,-5.4236,-5.4672,-5.5734,-5.6173,-5.5957,-5.7234,-5.7943,-5.7943,-5.8442,-5.8716,-5.8716,-5.8716,-5.8716,-5.8716,-5.8716,-5.8716,-5.8716,-5.8716,-5.8716,-5.8716,-5.8716,-5.8716,-5.8661,-5.8215,-5.8048,-5.8048,-5.8048,-5.7156,-5.5707,-5.4054,-5.294,-5.2178,-5.1584,-5.1398,-5.1398,-5.1398,-5.1398,-5.1306,-5.0748,-5.0636,-5.058,-5.0359,-4.9651,-4.9132,-4.9417,-4.8862,-4.8288,-4.8514,-4.8326,-4.8172,-4.8345,-4.7824,-4.7135,-4.6533,-4.5413,-4.452,-4.4088,-4.3542,0.0,-4.2573,-4.2394,-4.1841,-4.0681,-4.036,-3.9932,-3.9182,-3.7773,-3.6881,-3.6738,-3.5168,-3.4294,-3.4401,-3.358,-3.3116,-3.3116,-2.9886,-2.7968,0.0,0.0,0.0,0.0,0.0,0.0,0.0,0.0,0.0,0.0,0.0,0.0,0.0,0.0,0.0,0.0,0.0,0.0,0.0,0.0,0.0,0.0,-3.5043,-3.8023,-3.9022,-4.086,-4.3108,-4.5784,-4.6801,-4.8211,-5.0584,-5.1661,-5.2844,-5.4283,-5.4985,-5.5335,-5.5354,-5.6291,-5.666,-5.6284,-5.7455,-5.8168,-5.8363,-5.8553,-5.8716,-5.8716,-5.8716,-5.8716,-5.8716,-5.8716,-5.8716,0.0,-5.8716,-5.8716,-5.8716,-5.8716,-5.8716,0.0,0.0,0.0,0.0,0.0,-5.7088,-5.5649,-5.434,-5.3363,-5.2625,-5.2164,-5.1999,-5.1999,-5.1999,-5.1999,-5.1885,-5.1238,-5.1087,-5.1014,-5.0684,-5.0204,-4.9856,-4.9933,-4.9566,-4.9179,-4.92,-4.8721,-4.8338,-4.8525,-4.7988,0.0,-4.6928,-4.6163,-4.5341,-4.4527,-4.4163,-4.3732,-4.309,-4.2876,-4.2448,-4.152,-4.1109,-4.061,-3.9843,-3.8415,0.0,0.0,0.0,-3.4401,-3.3633,-3.3598,0.0,0.0,0.0,0.0,0.0,0.0,0.0,0.0,-2.7415,-2.7656,0.0,0.0,0.0,0.0,0.0,0.0,0.0,0.0,0.0,0.0,0.0,0.0,0.0,0.0,0.0,0.0,-3.9379,-4.2251,-4.4446,-4.4339,-4.5106,-4.7961,-4.8978,-5.0388,-5.2779,-5.4015,-5.4954,-5.5689,-5.6097,-5.6309,-5.6284,0.0,0.0,0.0,0.0,-5.8168,-5.8511,-5.8553,-5.8572,-5.8572,-5.8572,-5.8572,-5.8572,-5.8572,-5.8614,-5.8614,-5.8614,-5.8656,-5.8716,-5.8716,-5.8716,-5.8716,-5.8656,-5.8614,-5.8503,-5.7346,-5.6218,-5.5212,-5.4328,0.0,0.0,-5.2842,-5.2806,-5.2806,-5.2806,-5.2806,-5.2615,-5.1806,-5.1588,-5.1424,-5.0689,-5.0629,-5.068,-5.0447,-5.0501,-5.0552,-5.032,-4.9492,-4.8766,-4.872,-4.7878,-4.7132,-4.6998,-4.6639,-4.5816,-4.415,-4.4375,-4.425,-4.2858,-4.3251,-4.3536,-4.3268,0.0,0.0,-4.1038,-3.8968,-3.8076,-3.8879,-3.6149,-3.4169,-3.347,-3.3362,-3.3362,-3.3452,-3.3362,-3.4008,-3.5471,-3.5667,-3.6114,-3.6667,-3.0868,-3.0547,0.0,0.0,0.0,0.0,0.0,0.0,0.0,0.0,0.0,0.0,0.0,0.0,0.0,0.0,0.0,-3.7951,-4.1484,-4.4321,-4.541,-4.6551,-4.7729,-4.8942,-4.9799,-5.1208,-5.3564,-5.4562,-5.5151,-5.5294,-5.5991,-5.6133,-5.5488,-5.6205,0.0,-5.6526,-5.6964,-5.7239,-5.7338,-5.7631,-5.7821,-5.7821,0.0,0.0,-5.7821,-5.7821,-5.796,-5.8213,-5.8213,-5.8406,-5.8716,-5.8716,-5.8716,-5.8656,-5.8344,-5.8213,-5.8058,-5.6887,-5.6299,-5.5905,-5.4401,-5.38,-5.3581,-5.3006,-5.2806,-5.2806,-5.2806,-5.2806,0.0,-5.2208,-5.2043,-5.2025,-5.1863,-5.1189,-5.0628,-5.0877,-5.0235,-4.9657,-4.9866,-4.9503,-4.9095,-4.874,-4.8532,-4.8093,-4.715,-4.69,-4.6749,-4.6355,-4.5891,-4.5463,-4.516,-4.4696,-4.3679,-4.177,-4.1413,-4.1002,-4.0217,-3.9182,-3.8897,-3.9646,-3.7951,-3.6845,-3.6684,-3.606,-3.6024,-3.6667,-3.6042,-3.6185,-3.7131,-3.838,-3.9075,-3.9165,-3.6684,-3.6702,0.0,0.0,0.0,0.0,0.0,0.0,0.0,0.0,0.0,0.0,0.0,-3.1385,0.0,0.0,-3.9075,-4.1859,-4.3946,-4.5481,-4.6284,-4.7426,-4.8461,-4.9228,-5.0727,-5.2315,-5.3867,-5.5098,-5.5794,-5.5794,-5.6169,-5.6044,-5.5241,-5.5955,-5.6313,-5.6114,-5.6683,-5.7105,-5.7289,-5.7504,-5.7601,-5.7601,-5.7601,-5.7601,-5.7601,-5.7601,-5.7679,-5.7849,-5.7849,-5.796,-5.816,-5.816,-5.816,-5.8097,-5.7708,-5.7642,-5.7711,-5.6491,-5.5654,-5.5,-5.3827,-5.3159,-5.2744,-5.2383,-5.2257,-5.2257,-5.2257,-5.2257,-5.2209,-5.2,-5.1951,-5.1951,-5.1951,-5.1646,-5.1359,-5.1377,-5.1054,-5.0749,-5.0767,-5.0319,-4.9847,-4.9643,-4.9295,-4.8729,-4.7757,-4.7586,-4.7444,-4.7051,-4.6659,-4.6391,-4.6391,-4.5713,-4.4749,-4.359,-4.2769,-4.2144,-4.1752,-4.0646,-4.011,-4.0485,-3.9397,-3.8754,-3.8754,-3.838,-3.8344,-3.8736,-3.8362,-3.8344,-3.8754,-3.9521,-4.0128,-4.0503,-4.0538,-4.1163,0.0,0.0,0.0,0.0,0.0,0.0,0.0,0.0,-2.8049,-3.1796,-3.383,-3.5917,-3.9129,-4.0449,-4.2091,-4.5285,-4.607,-4.648,-4.7122,-4.789,-4.8621,-4.9246,-5.1422,-5.3189,-5.3956,-5.5473,-5.6329,-5.6186,-5.6311,-5.6044,-5.5241,-5.5955,-5.6242,-5.5962,-5.6557,-5.7054,-5.7338,-5.7356,-5.7356,-5.7356,-5.7356,-5.7356,-5.7356,-5.7356,-5.7406,-5.7504,-5.7553,-5.7601,-5.7601,-5.7601,-5.7601,-5.7553,-5.7156,-5.7188,-5.7364,-5.6313,-5.5183,-5.4152,-5.3367,-5.2582,-5.1904,-5.1744,-5.169,-5.169,-5.169,-5.169,-5.169,-5.169,-5.169,-5.169,-5.169,-5.1902,-5.2012,-5.1772,-5.1902,-5.203,-5.179,-5.1191,-5.0691,-5.053,-4.9995,-4.9299,-4.8532,-4.8264,-4.7907,-4.7105,-4.6998,-4.6998,-4.6998,-4.6427,-4.5963,-4.582,-4.4696,-4.3839,-4.3536,-4.218,-4.1324,-4.1324,-4.0592,-4.0146,-4.0146,-3.9985,-3.9985,-4.0146,-4.0146,-4.0217,-4.0378,-4.0681,-4.1163,-4.1823,-4.359,-4.4571,-2.1003,-2.2611,-2.5057,-2.7049,-2.8084,-3.0101,0.0,0.0,-3.6006,-3.9254,-4.1199,-4.2465,-4.2894,-4.4161,-4.5285,-4.5731,-4.6998,-4.7943,-4.8032,-4.871,-4.9228,-4.9299,-5.1422,-5.3189,-5.3956,-5.5473,-5.6097,-5.5401,-5.599,-5.6044,-5.5241,-5.5955,-5.6347,-5.6312,-5.6402,-5.6492,-5.6546,-5.6546,-5.6546,-5.6546,-5.6546,-5.6546,-5.6546,-5.6546,-5.6742,-5.7105,-5.7437,-5.7601,-5.7601,-5.7601,-5.7601,-5.7553,-5.7156,-5.7054,-5.6984,-5.6492,-5.5812,-5.4955,-5.417,-5.3385,-5.2636,-5.1922,-5.169,-5.169,-5.169,-5.169,-5.169,-5.169,-5.169,-5.169,-5.169,-5.174,-5.174,-5.169,-5.174,-5.174,-5.169,-5.1619,-5.1351,-5.0637,-5.0441,-5.012,-4.9317,-4.8621,-4.7907,-4.7105,-4.6998,-4.6998,-4.6998,-4.6908,-4.6587,-4.5873,-4.5659,-4.4999,-4.3625,-4.268,-4.2162,-4.2162,-4.1413,-4.0967,-4.0967,-4.0289,-4.0253,-4.0949,-4.0967,-4.1324,-4.2019,-4.3411,-4.4125,-4.4268,-4.6587,-4.6944,-2.6728,-2.794,0.0,0.0,-3.292,-3.4847,-3.7487,-3.8272,-3.9218,-4.1948,-4.375,-4.4839,-4.4839,-4.5749,-4.6498,0.0,-4.7444,-4.8175,-4.8175,-4.8835,-4.9317,-4.9317,-5.0602,-5.1993,-5.3242,-5.4777,-5.5758,-5.5901,-5.6204,-5.624,-5.5919,-5.6222,-5.6401,-5.6401,-5.6401,-5.6401,-5.6401,-5.6401,-5.6401,-5.6401,-5.6401,-5.6401,-5.6401,-5.6401,-5.6492,-5.6653,-5.6847,-5.6899,-5.6899,-5.6899,-5.6899,-5.6899,-5.6707,-5.6653,-5.6582,-5.5937,-5.5205,-5.4402,-5.3635,-5.285,-5.2136,-5.1797,-5.169,-5.169,-5.169,-5.169,-5.169,-5.169,-5.169,-5.169,-5.169,-5.169,-5.169,-5.169,-5.169,-5.169,-5.169,-5.169,-5.1601,-5.1262,-5.1191,-5.0941,-5.0156,-4.9745,-4.9121,-4.7872,-4.7283,-4.6998,-4.6998,-4.6998,-4.6676,-4.5891,-4.5802,-4.5356,-4.425,-4.3447,-4.3001,-4.3001,-4.2234,-4.1787,-4.1787,-4.1484,-4.1448,-4.1787,-4.1787,-4.1948,-4.2287,-4.3857,-4.4624,-4.4678,-4.7069,-4.8068,-2.9804,0.0,0.0,-3.4581,-3.713,-3.9142,-3.9218,-4.0414,-4.2037,-4.3786,-4.5017,-4.5802,-4.5802,-4.6284,0.0,-4.6944,-4.7836,-4.8568,-4.8782,-4.9103,-4.9317,-4.9317,-4.9638,-5.0495,-5.2065,-5.3831,-5.5205,-5.6008,-5.6276,-5.6401,-5.6401,-5.6401,-5.6401,-5.6401,-5.6401,-5.6401,-5.6401,-5.6401,-5.6328,-5.6273,-5.6346,-5.6328,-5.6273,-5.6273,-5.6217,-5.6162,-5.6217,-5.6273,-5.6273,-5.6346,-5.6401,-5.6401,-5.6401,-5.6401,-5.6294,-5.5508,-5.4706,-5.3903,-5.3153,-5.235,-5.169,-5.169,-5.169,-5.169,-5.169,-5.169,-5.169,-5.169,-5.169,-5.169,-5.169,-5.169,-5.169,-5.169,-5.169,-5.169,-5.169,-5.169,-5.169,-5.169,-5.169,-5.1512,-5.0923,-5.0655,-5.012,-4.8978,-4.7961,-4.7229,-4.7015,-4.6998,-4.6766,-4.6195,-4.5927,-4.557,-4.4999,-4.425,-4.3822,-4.3822,-4.3268,-4.284,-4.2626,-4.2626,-4.2626,-4.2626,-4.2626,-4.2733,-4.2929,-4.4285,-4.5071,-4.532,-4.7322,-4.8631,0.0,0.0,-3.4252,-3.6863,-4.0255,-4.3005,-4.3237,-4.4517,-4.5641,-4.5713,-4.5766,-4.5802,-4.5802,-4.582,-4.6088,-4.6855,-4.8282,-4.9549,-5.0334,-4.9799,-4.9317,-4.9317,-4.8675,-4.8871,0.0,-5.2689,-5.4384,-5.5187,-5.5955,-5.6401,-5.6401,-5.6401,-5.6401,-5.6401,-5.6401,-5.6401,-5.6401,-5.6401,-5.6217,-5.5918,-5.6217,-5.6217,-5.5918,-5.5918,-5.5746,-5.5531,-5.5804,-5.5918,-5.5918,-5.6273,-5.6401,-5.6401,-5.6401,-5.6401,-5.6294,-5.5508,-5.4706,-5.3903,-5.3153,-5.235,-5.169,-5.169,-5.169,-5.169,-5.169,-5.169,-5.169,-5.169,-5.169,-5.169,-5.169,-5.169,-5.169,-5.169,-5.169,-5.169,-5.169,-5.169,-5.169,-5.169,-5.169,-5.169,-5.1672,-5.103,-5.0477,-5.0441,-4.9121,-4.7854,-4.7087,-4.6998,-4.698,-4.6962,-4.6266,-4.5802,-4.5766,-4.5035,-4.4589,-4.4589,-4.4553,-4.4232,-4.35,-4.3465,-4.3465,-4.3465,-4.3465,-4.3839,-4.4553,-4.5374,-4.6159,-4.6944,-4.7947,-4.8819,0.0,0.0,-3.7302,-3.9815,-4.2432,-4.4459,-4.4929,-4.5294,-4.5605,-4.5757,-4.4143,-4.284,-4.3375,-4.3036,-4.3126,-4.4464,-4.6873,-4.8835,-4.9603,-4.9942,-4.9906,-4.9388,-4.9085,0.0,0.0,0.0,0.0,-5.5062,-5.5455,-5.5847,-5.6365,-5.6401,-5.6401,-5.6401,-5.6401,-5.6401,-5.6401,-5.6401,-5.6328,-5.6217,-5.6088,-5.6032,-5.5901,-5.5689,-5.5689,-5.5746,-5.5861,-5.5918,-5.5918,-5.6032,-5.6088,-5.6088,-5.6088,-5.6217,-5.624,-5.4902,-5.4242,-5.3903,-5.3153,-5.235,-5.169,-5.169,-5.169,-5.169,-5.169,-5.169,-5.169,-5.169,-5.169,-5.169,-5.169,-5.169,-5.169,-5.169,-5.169,-5.169,-5.169,-5.169,-5.169,-5.169,-5.169,-5.169,-5.169,-5.1476,-5.1119,-5.0584,-4.9174,-4.789,-4.7087,-4.6998,-4.6998,-4.6998,-4.6454,-4.6041,-4.6041,-4.4949,-4.4283,-4.4283,-4.3812,-4.3445,-4.3184,-4.3184,-4.3184,-4.3184,-4.3184,-4.3306,-4.355,-4.4823,-4.5835,-4.6637,-4.8012,-4.9269,-3.4021,-3.6926,-3.9526,-4.2432,-4.4226,-4.5361,-4.563,-4.5513,-4.5308,-4.5044,-4.2424,-4.0392,-4.0949,-4.0107,-4.0,-4.1912,-4.4642,-4.7069,-4.8675,-4.9353,-4.9692,-4.9727,-4.9745,0.0,0.0,0.0,0.0,-5.4652,-5.5312,-5.5847,-5.6365,-5.6401,-5.6346,-5.6217,-5.6328,-5.6328,-5.6217,-5.6328,-5.647,-5.6662,-5.6343,-5.6253,-5.6399,-5.6237,-5.6177,-5.622,-5.634,-5.6241,-5.5977,-5.6228,-5.6184,-5.5918,-5.6032,-5.6217,-5.6276,-5.5241,-5.4509,-5.3867,-5.2814,-5.2118,-5.169,-5.169,-5.169,-5.169,-5.169,-5.169,-5.169,-5.169,-5.169,-5.169,-5.169,-5.169,-5.169,-5.169,-5.169,-5.169,-5.169,-5.169,-5.169,-5.169,-5.169,-5.169,-5.169,-5.169,-5.1254,-5.0011,-4.921,-4.8395,-4.7551,-4.7158,-4.6998,-4.6998,-4.6684,-4.6495,-4.6495,-4.5646,-4.5152,-4.5152,-4.4483,-4.4002,-4.3724,-4.3508,-4.339,-4.339,-4.339,-4.3528,-4.382,-4.5303,-4.6325,-4.6835,-4.8148,-4.9375,-3.7097,-3.9215,-4.0983,-4.453,-4.5558,-4.5676,-4.5441,-4.5234,-4.4794,-4.3487,-4.0562,-3.8264,0.0,0.0,-3.6896,-3.9376,-4.1943,-4.4706,-4.7818,-4.83,-4.8907,0.0,0.0,0.0,0.0,0.0,0.0,-5.4028,0.0,-5.6347,-5.6401,-5.6401,-5.6273,-5.5918,-5.6217,-5.6273,-5.5918,-5.6253,-5.668,-5.7193,-5.6846,-5.6869,-5.7289,-5.7306,-5.7114,-5.6854,-5.7178,-5.6871,-5.6237,-5.6881,-5.6657,-5.5914,-5.6215,-5.6364,-5.6328,-5.6292,-5.5258,-5.3744,-5.2177,-5.1675,-5.169,-5.169,-5.169,-5.169,-5.169,-5.169,-5.169,-5.169,-5.169,-5.169,-5.169,-5.169,-5.169,-5.169,-5.169,-5.164,-5.164,-5.164,-5.1571,-5.1571,-5.1571,-5.1571,-5.1571,-5.1571,-5.098,-4.902,-4.9197,-4.9238,-4.8265,-4.7487,-4.6941,-4.6941,-4.6906,-4.6888,-4.6888,-4.6824,-4.6842,-4.6842,-4.6332,-4.5737,-4.4953,-4.4386,-4.4061,-4.4061,-4.4061,-4.4422,-4.5197,-4.6533,-4.73,-4.7503,-4.8277,-4.9074,-3.9687,-4.1934,-4.3833,-4.5536,-4.5312,-4.4765,-4.5098,-4.3254,-4.1077,-3.9829,-3.618,-3.3082,0.0,0.0,0.0,-3.7512,-4.2356,0.0,-4.8493,-4.9969,0.0,0.0,0.0,-5.2299,-5.2218,-5.3691,0.0,0.0,-5.5277,-5.5776,-5.6365,-5.6401,-5.6346,-5.6273,-5.6346,-5.6346,-5.6273,-5.6972,-5.7611,-5.8263,-5.7734,-5.7553,-5.7683,-5.7178,-5.6984,-5.7178,-5.7242,-5.7184,-5.6993,-5.7199,-5.6772,-5.6056,-5.5872,-5.5567,-5.5214,-5.4304,-5.3791,-5.3157,-5.161,-5.1368,-5.169,-5.169,-5.169,-5.169,-5.169,-5.169,-5.169,-5.169,-5.169,-5.169,-5.169,-5.169,-5.169,-5.169,-5.1367,-5.1035,-5.1035,-5.0659,-5.0276,-5.0276,-5.0276,-5.0276,-5.0276,-5.0276,-5.0094,-4.962,-4.9193,-4.8612,-4.7767,-4.7021,-4.6534,-4.6534,-4.5718,-4.5125,-4.5125,-4.4746,-4.4468,-4.4468,-4.4373,-4.4175,-4.399,-4.382,-4.3705,-4.3705,-4.3705,-4.3863,-4.4047,-4.4925,-4.5665,-4.6257,-4.7462,-4.8651,-4.2027,-4.3826,-4.5094,-4.5833,-4.5179,-4.3988,-4.269,-4.0699,-3.8335,-3.5691,-3.2313,0.0,0.0,0.0,0.0,0.0,0.0,0.0,-4.8094,-4.9895,-5.1327,0.0,-5.3194,0.0,-5.362,-5.4884,-5.574,0.0,-5.574,-5.5864,-5.6182,-5.6162,-5.6049,-5.5804,-5.6032,-5.6433,-5.6918,-5.7703,-5.8299,-5.8751,-5.8466,-5.8142,-5.7919,-5.782,-5.7754,-5.7652,0.0,-5.7463,-5.717,-5.7069,-5.6348,-5.5335,-5.5286,-5.4918,-5.4367,-5.3685,-5.3244,-5.2832,-5.1912,-5.1453,-5.1243,-5.1299,-5.1123,-5.0929,-5.1245,-5.1123,-5.0875,-5.0875,-5.0875,-5.0875,-5.0875,-5.0875,-5.0875,-5.0875,-5.0587,-5.0366,-5.0366,-5.0067,-4.9804,-4.9804,-4.9804,-4.9705,-4.947,-4.9629,-4.9646,-4.9067,-4.8907,-4.8558,-4.7793,-4.7256,-4.6783,-4.6439,-4.5754,-4.5213,-4.4889,-4.4524,-4.4373,-4.4373,-4.4105,-4.4006,-4.4006,-4.373,-4.3628,-4.3628,-4.3628,-4.3777,-4.4092,-4.509,-4.5824,-4.6295,-4.7648,-4.8676,-4.3979,-4.5113,-4.5441,-4.5613,-4.4801,-4.3108,-3.9572,-3.7955,-3.5924,-3.1651,0.0,-2.7397,-2.7214,0.0,-3.0565,-3.3213,0.0,-4.3182,-4.7272,-4.9162,-5.1051,-5.3584,-5.4382,-5.4841,-5.5185,-5.5881,-5.6346,-5.6273,-5.6273,-5.6162,-5.5901,-5.5861,-5.5631,-5.5113,-5.5572,-5.6457,-5.7665,-5.8192,-5.868,-5.9151,-5.8864,-5.8524,-5.8174,-5.8562,-5.8492,-5.812,0.0,0.0,-5.708,-5.6714,-5.5711,-5.4514,-5.4652,-5.4277,-5.3613,-5.353,-5.3056,-5.2479,-5.2275,-5.1405,-5.0505,-5.0711,-5.0324,-4.9936,-5.0495,-5.0254,-4.9804,-4.9804,-4.9804,-4.9804,-4.9804,-4.9804,-4.9804,-4.9804,-4.9746,-4.9688,-4.9688,-4.9646,-4.9588,-4.9588,-4.9588,-4.9411,-4.89,-4.9231,-4.9188,-4.8179,-4.845,-4.8606,-4.8066,-4.7656,-4.7158,-4.6546,-4.6392,-4.6014,-4.5297,-4.5245,-4.5194,-4.5108,-4.4652,-4.439,-4.439,-4.3906,-4.3628,-4.3628,-4.3628,-4.3926,-4.4556,-4.584,-4.6518,-4.6775,-4.8118,-4.8798,-4.5057,-4.5511,-4.5321,-4.4987,-4.3655,-4.1609,-3.8493,-3.5693,0.0,0.0,0.0,-2.5289,-2.4129,-2.6153,0.0,-3.3647,0.0,0.0,0.0,0.0,-5.1564,0.0,0.0,0.0,0.0,0.0,0.0,0.0,0.0,-5.5764,-5.5918,-5.5689,-5.5531,-5.5413,-5.5531,-5.6376,-5.8178,-5.7526,-5.8234,-6.0291,-5.8719,-5.8234,-5.8598,-5.787,-5.7741,-5.8031,-5.7594,0.0,-5.7793,-5.6696,-5.5705,-5.4833,-5.4016,-5.319,-5.2557,-5.2236,-5.2082,-5.1729,-5.0509,-4.9984,-4.9908,-5.0417,-5.0245,-4.9804,-4.9936,-4.9879,-4.9804,-4.9804,-4.9804,-4.9804,-4.9804,-4.9804,-4.9804,-4.9804,-4.9411,-4.9067,-4.9067,-4.8668,-4.8275,-4.8275,-4.8275,-4.8292,-4.8163,-4.8227,-4.8227,-4.8001,-4.8115,-4.8115,-4.8001,-4.7414,-4.6941,-4.6824,-4.6257,-4.5574,-4.4899,-4.4816,-4.4506,-4.3923,-4.3789,-4.373,-4.373,-4.3687,-4.3628,-4.3628,-4.3628,-4.3678,-4.381,-4.4643,-4.5374,-4.5997,-4.7362,-4.8308,-4.4595,-4.5217,-4.5234,-4.4662,-4.2936,-4.0302,-3.6059,0.0,0.0,0.0,0.0,-2.3215,-2.2467,0.0,0.0,0.0,0.0,0.0,0.0,0.0,0.0,0.0,0.0,0.0,0.0,0.0,0.0,0.0,0.0,-5.5294,-5.5455,-5.5156,-5.5053,-5.5234,-5.5636,-5.636,-5.7399,-5.7726,-5.845,-5.9475,-5.8668,-5.8157,-5.787,-5.7429,-5.7222,-5.7114,-5.6462,0.0,-5.6545,-5.523,-5.4277,-5.3477,-5.2983,-5.2368,-5.1672,-5.1557,-5.1483,-5.132,-5.0245,-4.9697,-4.9468,-4.9377,-4.908,-4.8759,-4.911,-4.9006,-4.8838,-4.8838,-4.8838,-4.8838,-4.8838,-4.8838,-4.8838,-4.8838,-4.8623,-4.845,-4.845,-4.8227,-4.8001,-4.8001,-4.8001,-4.8001,-4.8001,-4.8001,-4.8001,-4.8001,-4.8001,-4.8001,-4.8001,-4.7686,-4.7322,-4.6941,-4.6576,-4.6063,-4.5317,-4.4903,-4.4539,-4.4191,-4.3827,-4.3628,-4.3628,-4.3628,-4.3628,-4.3628,-4.3628,-4.3992,-4.4754,-4.5102,-4.5847,-4.6957,-4.7591,-4.8115,-4.3821,-4.4837,-4.5199,-4.4268,-4.2319,-3.9232,-3.3886,-3.0334,0.0,0.0,-2.1665,-2.1715,-2.1658,0.0,0.0,0.0,0.0,0.0,0.0,0.0,0.0,0.0,0.0,0.0,0.0,0.0,0.0,0.0,0.0,0.0,-5.4869,-5.4557,-5.4431,-5.4728,-5.5237,-5.5663,-5.6133,-5.7173,-5.7721,-5.778,-5.7602,-5.7178,-5.6529,-5.6454,-5.6166,-5.5825,-5.5144,0.0,0.0,-5.3604,-5.2721,-5.2187,-5.2041,-5.1653,-5.1183,-5.1183,-5.1183,-5.1054,-5.0179,-4.9572,-4.9099,-4.8204,-4.7812,-4.777,-4.8225,-4.8129,-4.7935,-4.7935,-4.8001,-4.8001,-4.8001,-4.8001,-4.8001,-4.8001,-4.8001,-4.8001,-4.8001,-4.8001,-4.8001,-4.8001,-4.8001,-4.8001,-4.8001,-4.8001,-4.8001,-4.8001,-4.8001,-4.8001,-4.8001,-4.8001,-4.7785,-4.7206,-4.7139,-4.6841,-4.6096,-4.5483,-4.5019,-4.4705,-4.4307,-4.4009,-4.386,-4.4009,-4.4092,-4.4092,-4.4092,-4.4655,-4.5798,-4.5798,-4.6477,-4.7769,-4.7769,-4.7934,-4.3441,-4.4837,-4.5079,-4.363,-4.1526,-3.8422,-3.311,0.0,0.0,-2.2401,-2.1608,-2.1658,-2.1757,-2.2615,0.0,0.0,0.0,0.0,0.0,0.0,0.0,0.0,0.0,0.0,0.0,0.0,0.0,0.0,0.0,0.0,-5.4494,-5.4028,-5.3766,-5.3832,-5.3399,-5.3635,-5.4686,-5.3987,-5.4389,-5.5824,-5.446,-5.4011,-5.4451,-5.3873,-5.395,-5.4376,-5.373,0.0,0.0,-5.2823,-5.2252,-5.2139,-5.1523,-5.1232,-5.1183,-5.1183,-5.1183,-5.0989,-4.9596,-4.9078,-4.8803,-4.7427,-4.7232,-4.7537,-4.7604,-4.7654,-4.7704,-4.7704,-4.7853,-4.8001,-4.8001,-4.8001,-4.8001,-4.8001,-4.8001,-4.8001,-4.8001,-4.8001,-4.8001,-4.8001,-4.8001,-4.8001,-4.8001,-4.8001,-4.8001,-4.8001,-4.8001,-4.8001,-4.8001,-4.8001,-4.7968,-4.7918,-4.7901,-4.7603,-4.6858,-4.6742,-4.6129,-4.4771,-4.5251,-4.5284,-4.4622,-4.5235,-4.5599,-4.5599,-4.5599,-4.5649,-4.5798,-4.5798,-4.6195,-4.699,-4.699,-4.7719,-4.115,-4.2962,-4.382,-4.2733,-3.9698,-3.6077,-3.2593,0.0,-2.3971,-2.2005,-2.1204,-2.1039,-2.1596,-2.2288,-2.3301,-2.4927,-2.6225,-2.8717,0.0,0.0,0.0,0.0,0.0,0.0,0.0,0.0,0.0,0.0,0.0,0.0,-5.3466,-5.3264,-5.3128,-5.3128,-5.2922,-5.3039,-5.3446,-5.3599,-5.3966,-5.4643,-5.4113,-5.3967,-5.4178,-5.3616,-5.3461,-5.3584,-5.2912,0.0,0.0,-5.194,-5.1588,-5.1556,-5.128,-5.1183,-5.1183,-5.1183,-5.1183,-5.0973,-4.9532,-4.903,-4.8787,-4.7346,-4.703,-4.7183,-4.7403,-4.7588,-4.7721,-4.7853,-4.7935,-4.8001,-4.8001,-4.8001,-4.8001,-4.7853,-4.7919,-4.8001,-4.7853,-4.7919,-4.7935,-4.7737,-4.7787,-4.7787,-4.7737,-4.7803,-4.7853,-4.7853,-4.7919,-4.8001,-4.8001,-4.7919,-4.7853,-4.8001,-4.8001,-4.7885,-4.7587,-4.7156,-4.6643,-4.6063,-4.5864,-4.5665,-4.5367,-4.5632,-4.5798,-4.5798,-4.5798,-4.6013,-4.646,-4.646,-4.6841,-4.757,-4.8017,-4.8299,-3.8635,-4.1043,-4.263,-4.1854,-3.8405,-3.4542,0.0,0.0,-2.2737,-2.1815,-2.116,-2.0911,-2.1505,-2.2212,-2.2738,-2.2842,-2.3853,-2.5868,-2.9351,0.0,0.0,0.0,0.0,0.0,0.0,0.0,0.0,0.0,0.0,0.0,0.0,-5.2362,-5.2416,-5.2557,-5.2416,-5.2362,-5.2362,-5.2893,-5.3158,-5.3158,-5.3231,-5.3328,-5.3328,-5.2904,-5.2689,-5.2657,0.0,0.0,0.0,-5.1378,-5.1183,-5.1183,-5.1183,-5.1183,-5.1183,-5.1183,-5.1054,-5.0681,-4.9451,-4.8884,-4.8512,-4.7281,-4.6876,-4.6945,-4.7335,-4.7454,-4.7571,-4.7721,-4.7803,-4.7869,-4.7869,-4.7869,-4.7803,-4.7654,-4.7721,-4.7803,-4.7654,-4.7721,-4.7803,-4.7554,-4.7604,-4.7588,-4.7554,-4.7604,-4.7654,-4.7654,-4.7787,-4.7869,-4.7869,-4.7787,-4.7721,-4.7869,-4.7869,-4.7869,-4.8001,-4.752,-4.7123,-4.6908,-4.6609,-4.6344,-4.6129,-4.6328,-4.6444,-4.6444,-4.6444,-4.6709,-4.7222,-4.7222,-4.7603,-4.8349,-4.8862,-4.8945,-3.6256,-3.9542,-4.1819,-4.1078,-3.8025,-3.4404,0.0,-2.7126,-2.3357,-2.1918,-2.1591,-2.1591,-2.1608,-2.2212,-2.2712,-2.2712,-2.3323,-2.53,-2.9598,0.0,0.0,0.0,0.0,0.0,0.0,0.0,0.0,0.0,0.0,0.0,0.0,-5.1183,-5.145,-5.1987,-5.1524,-5.1183,-5.1183,-5.1183,-5.1199,-5.1199,-5.1199,-5.1199,-5.1199,-5.1199,-5.1199,0.0,0.0,0.0,0.0,-5.1183,-5.1183,-5.1183,-5.1183,-5.1183,-5.1183,-5.1183,-5.073,-5.0001,-4.9273,-4.8592,-4.7896,-4.7135,-4.6876,-4.6961,-4.7115,-4.7183,-4.7183,-4.7183,-4.7335,-4.7486,-4.7486,-4.7486,-4.747,-4.7486,-4.747,-4.747,-4.7486,-4.747,-4.747,-4.7486,-4.7486,-4.7486,-4.7486,-4.7486,-4.7486,-4.7486,-4.7588,-4.7654,-4.7537,-4.7588,-4.7654,-4.7537,-4.7486,-4.7604,-4.7935,-4.8001,-4.7686,-4.6941,-4.7587,-4.7653,-4.6924,-4.7587,-4.7984,-4.7984,-4.7984,-4.7984,-4.7984,-4.7984,-4.8365,-4.9094,-4.911,-4.9508,-3.1303,-3.3427,-3.4675,-3.4494,-3.2084,-2.9506,-2.8339,-2.4577,-2.1481,-2.2053,-2.1336,-2.0951,-2.1968,-2.2451,-2.3003,-2.3847,-2.4147,0.0,0.0,0.0,0.0,0.0,0.0,0.0,0.0,0.0,0.0,0.0,0.0,0.0,0.0,-5.1183,-5.1242,-5.145,-5.1333,-5.1183,-5.1183,-5.1183,-5.1183,-5.1183,-5.1183,-5.1183,-5.1183,-5.1183,0.0,0.0,0.0,0.0,0.0,-5.1183,-5.1183,-5.1183,-5.1183,-5.1183,-5.1183,-5.1183,-5.0714,-5.0001,-4.9273,-4.8576,-4.788,-4.7135,-4.6876,-4.6876,-4.6961,-4.7098,-4.7251,-4.7403,-4.747,-4.747,-4.7335,-4.7403,-4.7486,-4.7335,-4.7403,-4.747,-4.7319,-4.7403,-4.7403,-4.7115,-4.7183,-4.7251,-4.7098,-4.7183,-4.7319,-4.7319,-4.747,-4.7537,-4.7486,-4.7403,-4.7386,-4.747,-4.7403,-4.7386,-4.7604,-4.7671,-4.7572,-4.7342,-4.7539,-4.7572,-4.7342,-4.7556,-4.7671,-4.7671,-4.7671,-4.7671,-4.7671,-4.7671,-4.8033,-4.8655,-4.8246,-4.8394,0.0,-2.9553,-3.0984,-3.0984,-2.9041,-2.6982,-2.6336,-2.33,-2.0807,-2.1445,-2.1054,-2.0867,-2.1729,-2.2337,-2.2942,-2.3641,-2.3943,0.0,0.0,0.0,0.0,0.0,0.0,0.0,0.0,0.0,0.0,0.0,0.0,0.0,0.0,-5.1183,-5.1183,-5.1183,-5.1183,-5.1183,-5.1183,-5.1183,-5.1183,-5.1183,-5.1183,-5.1183,-5.1183,-5.1183,0.0,0.0,0.0,0.0,0.0,-5.1183,-5.1183,-5.1183,-5.1183,-5.1183,-5.1183,-5.1183,-5.0552,-4.9629,-4.9175,-4.8398,-4.7508,-4.7038,-4.6876,-4.6876,-4.6876,-4.6961,-4.7098,-4.7251,-4.7251,-4.7251,-4.7115,-4.7183,-4.7251,-4.7115,-4.7183,-4.7251,-4.7098,-4.7183,-4.7183,-4.6961,-4.703,-4.703,-4.6945,-4.703,-4.7098,-4.7098,-4.7251,-4.7335,-4.7251,-4.7251,-4.7251,-4.7251,-4.7183,-4.7115,-4.7251,-4.7403,-4.7486,-4.7486,-4.7486,-4.7486,-4.7486,-4.7486,-4.7486,-4.7486,-4.7486,-4.7486,-4.7486,-4.7732,-4.8076,-4.8486,-4.806,-4.8092,0.0,-2.7182,0.0,0.0,-2.7981,-2.6104,-2.493,-2.2836,0.0,-2.0288,-2.0739,-2.1198,-2.1076,-2.1939,-2.2657,-2.2598,0.0,0.0,0.0,0.0,0.0,0.0,0.0,0.0,0.0,0.0,0.0,0.0,0.0,0.0,0.0,-5.1183,-5.1183,-5.1183,-5.1183,-5.1183,-5.1183,-5.1183,-5.1183,-5.1183,-5.1183,-5.1183,-5.1183,-5.1183,0.0,0.0,0.0,0.0,0.0,-5.1183,-5.1183,-5.1183,-5.1183,-5.1151,-5.1102,-5.1102,-5.0196,-4.8949,-4.8949,-4.8042,-4.6876,-4.6876,-4.6876,-4.6876,-4.6876,-4.6876,-4.6876,-4.6876,-4.6876,-4.6876,-4.6876,-4.6876,-4.6876,-4.6876,-4.6876,-4.6876,-4.6876,-4.6876,-4.6876,-4.6876,-4.6876,-4.6876,-4.6876,-4.6876,-4.6876,-4.6876,-4.703,-4.7098,-4.6945,-4.703,-4.7098,-4.6945,-4.6876,-4.6876,-4.6876,-4.7251,-4.747,-4.747,-4.747,-4.747,-4.747,-4.747,-4.747,-4.747,-4.747,-4.747,-4.747,-4.8109,-4.8368,-4.8368,-4.8368,-4.8368,-2.017,0.0,-2.2276,-2.2276,-2.2017,-2.1676,0.0,-2.0364,-1.9593,-1.985,0.0,0.0,-2.1392,-2.2046,0.0,0.0,0.0,0.0,0.0,0.0,0.0,0.0,0.0,0.0,0.0,0.0,0.0,0.0,0.0,0.0,0.0,-5.1183,-5.1183,-5.1183,-5.1183,-5.1183,-5.1183,-5.1183,-5.1183,-5.1183,-5.1183,-5.1183,-5.1183,-5.1183,0.0,0.0,0.0,0.0,-5.1183,-5.1183,-5.1183,-5.1183,-5.1183,-5.0843,-5.0357,-5.0357,-4.9467,-4.8252,-4.8252,-4.7653,-4.6876,-4.6876,-4.6876,-4.6876,-4.6876,-4.6876,-4.6876,-4.6876,-4.6876,-4.6876,-4.6876,-4.6876,-4.6876,-4.6876,-4.6876,-4.6876,-4.6876,-4.6876,-4.6876,-4.6876,-4.6876,-4.6876,-4.6876,-4.6876,-4.6876,-4.6876,-4.6961,-4.6961,-4.6892,-4.6945,-4.6961,-4.6892,-4.6876,-4.6876,-4.6876,-4.6961,-4.703,-4.703,-4.703,-4.703,-4.703,-4.703,-4.703,-4.703,-4.703,-4.703,-4.703,-4.7192,-4.7273,-4.7273,-4.7273,-4.7273,-1.8347,-1.9386,-2.0307,-2.0307,-2.0404,-2.0424,-2.0044,0.0,0.0,0.0,0.0,0.0,0.0,0.0,0.0,0.0,0.0,0.0,0.0,0.0,0.0,0.0,0.0,0.0,0.0,0.0,0.0,0.0,0.0,0.0,0.0,-5.0697,-5.0843,-5.1167,-5.0859,-5.0843,-5.1183,-5.1183,-5.1183,-5.1183,-5.1183,-5.1183,-5.1183,-5.1183,-5.1183,0.0,0.0,0.0,-5.1183,-5.1183,-5.1183,-5.1183,-5.1183,-5.0746,-5.0098,-5.0098,-4.9224,-4.801,-4.801,-4.7524,-4.6876,-4.6876,-4.6876,-4.6876,-4.6876,-4.6876,-4.6876,-4.6876,-4.6876,-4.6876,-4.6876,-4.6876,-4.6876,-4.6876,-4.6876,-4.6876,-4.6876,-4.6876,-4.6876,-4.6876,-4.6876,-4.6876,-4.6876,-4.6876,-4.6876,-4.6876,-4.6876,-4.6876,-4.6876,-4.6876,-4.6876,-4.6876,-4.6876,-4.6876,-4.6876,-4.6876,-4.6876,-4.6876,-4.6876,-4.6876,-4.6876,-4.6876,-4.6876,-4.6876,-4.6876,-4.6876,-4.6876,-4.6876,-4.6876,-4.6876,-4.6876,-4.6876,-1.7635,-1.9445,-2.0983,-2.0686,-2.0659,-2.0592,-1.9965,0.0,0.0,0.0,0.0,0.0,0.0,0.0,0.0,0.0,0.0,0.0,0.0,0.0,0.0,0.0,0.0,0.0,0.0,0.0,0.0,0.0,0.0,0.0,0.0,-4.9936,-5.0228,-5.0827,-5.026,-5.0293,-5.1005,-5.1118,-5.1183,-5.1183,-5.1183,-5.1183,-5.1183,-5.1183,-5.1183,0.0,0.0,0.0,-5.1183,-5.1183,-5.1183,-5.1183,-5.1183,-5.0681,-4.9936,-4.9936,-4.9046,-4.7831,-4.7831,-4.741,-4.6876,-4.6876,-4.6876,-4.6876,-4.6876,-4.6876,-4.6876,-4.6876,-4.6876,-4.6876,-4.6876,-4.6876,-4.6876,-4.6876,-4.6876,-4.6876,-4.6876,-4.6876,-4.6876,-4.6876,-4.6876,-4.6876,-4.6876,-4.6876,-4.6876,-4.6876,-4.6876,-4.6876,-4.6876,-4.6876,-4.6876,-4.6876,-4.6876,-4.6876,-4.6876,-4.6876,-4.6876,-4.6876,-4.6876,-4.6876,-4.6876,-4.6876,-4.6876,-4.6876,-4.6876,-4.6876,-4.6876,-4.6876,-4.6876,-4.6876,-4.6876,-4.6876,-1.7574,-1.9739,-2.1356,-1.9705,-1.9631,-1.9991,-2.0044,0.0,0.0,0.0,0.0,0.0,0.0,0.0,0.0,0.0,0.0,0.0,0.0,0.0,0.0,0.0,0.0,0.0,0.0,0.0,0.0,0.0,0.0,0.0,0.0,0.0,-4.924,-4.9354,-4.9256,-4.9532,-5.026,-5.0876,-5.1183,-5.1183,-5.1183,-5.1183,-5.1183,-5.1183,-5.1183,0.0,0.0,-5.1183,-5.1183,-5.1183,-5.1183,-5.1183,-5.1183,-5.0374,-4.9192,-4.9192,-4.8285,-4.7054,-4.7054,-4.6973,-4.6876,-4.6876,-4.6876,-4.6876,-4.6876,-4.6876,-4.6876,-4.6876,-4.6876,-4.6876,-4.6876,-4.6876,-4.6876,-4.6876,-4.6876,-4.6876,-4.6876,-4.6876,-4.6876,-4.6876,-4.6876,-4.6876,-4.6876,-4.6876,-4.6876,-4.6876,-4.6876,-4.6876,-4.6876,-4.6876,-4.6876,-4.6876,-4.6876,-4.6876,-4.6876,-4.6876,-4.6876,-4.6876,-4.6876,-4.6876,-4.6876,-4.6876,-4.6876,-4.6876,-4.6876,-4.6876,-4.6876,-4.6876,-4.6876,-4.6876,-4.6876,-4.6876,-1.6902,-1.8673,-2.0194,-2.0505,-2.1845,-2.3076,-2.3092,0.0,0.0,0.0,0.0,0.0,0.0,0.0,0.0,0.0,0.0,0.0,0.0,0.0,0.0,0.0,0.0,0.0,0.0,0.0,0.0,0.0,0.0,0.0,0.0,0.0,-4.8641,-4.9013,-4.8673,-4.8819,-4.9515,-4.9855,-5.0406,-5.1183,-5.1183,-5.1183,-5.1183,-5.1183,-5.1183,-5.1183,0.0,-5.1183,-5.1183,-5.1183,-5.1183,-5.1135,-5.0746,-4.9953,-4.8933,-4.8155,-4.7459,-4.6876,-4.6876,-4.6876,-4.6876,-4.6876,-4.6876,-4.6876,-4.6876,-4.6876,-4.6876,-4.6876,-4.6876,-4.6876,-4.6876,-4.6876,-4.6876,-4.6876,-4.6876,-4.6876,-4.6876,-4.6876,-4.6876,-4.6876,-4.6876,-4.6876,-4.6876,-4.6876,-4.6876,-4.6876,-4.6876,-4.6876,-4.6876,-4.6876,-4.6876,-4.6876,-4.6876,-4.6876,-4.6876,-4.6876,-4.6876,-4.6876,-4.6876,-4.6876,-4.6876,-4.6876,-4.6876,-4.6876,-4.6876,-4.6876,-4.6876,-4.6876,-4.6876,-4.6876,-4.6876,-4.6876,-1.6496,-1.798,-1.9574,-2.1529,0.0,-2.5144,-2.5989,-2.6031,0.0,0.0,0.0,0.0,0.0,0.0,0.0,0.0,0.0,0.0,0.0,0.0,0.0,0.0,0.0,0.0,0.0,0.0,0.0,0.0,0.0,0.0,0.0,0.0,-4.7993,-4.8512,-4.8026,-4.8074,-4.8787,-4.8787,-4.9418,-5.0681,-5.0681,-5.0681,-5.0681,-5.0681,-5.0762,-5.0924,-5.0746,-5.0762,-5.0924,-5.0746,-5.0681,-5.0633,-5.0066,-4.9418,-4.8625,-4.7346,-4.6876,-4.6876,-4.6876,-4.6876,-4.6876,-4.6876,-4.6876,-4.6876,-4.6876,-4.6876,-4.6876,-4.6876,-4.6876,-4.6876,-4.6876,-4.6876,-4.6876,-4.6876,-4.6876,-4.6876,-4.6876,-4.6876,-4.6876,-4.6876,-4.6876,-4.6876,-4.6876,-4.6876,-4.6876,-4.6876,-4.6876,-4.6876,-4.6876,-4.6876,-4.6876,-4.6876,-4.6876,-4.6876,-4.6876,-4.6876,-4.6876,-4.6876,-4.6876,-4.6876,-4.6876,-4.6876,-4.6876,-4.6876,-4.6876,-4.6876,-4.6876,-4.6876,-4.6876,-4.6876,-4.6876,-4.6876,-1.6924,-1.888,-2.0829,-2.2069,-2.218,0.0,-2.7,-2.6869,0.0,-2.902,0.0,0.0,0.0,0.0,0.0,0.0,0.0,0.0,0.0,0.0,0.0,0.0,0.0,0.0,0.0,0.0,0.0,0.0,0.0,0.0,0.0,0.0,0.0,-4.7038,-4.6989,-4.733,-4.8074,-4.8074,-4.8447,-4.9175,-4.9175,-4.9175,-4.9175,-4.9175,-4.9548,-5.0147,-4.9467,-4.9564,-5.0131,-4.9451,-4.9175,-4.9175,-4.9127,-4.869,-4.7993,-4.7184,-4.6876,-4.6876,-4.6876,-4.6876,-4.6876,-4.6876,-4.6876,-4.6876,-4.6876,-4.6876,-4.6876,-4.6876,-4.6876,-4.6876,-4.6876,-4.6876,-4.6876,-4.6876,-4.6876,-4.6876,-4.6876,-4.6876,-4.6876,-4.6876,-4.6876,-4.6876,-4.6876,-4.6876,-4.6876,-4.6876,-4.6876,-4.6876,-4.6876,-4.6876,-4.6876,-4.6876,-4.6876,-4.6876,-4.6876,-4.6876,-4.6876,-4.6876,-4.6876,-4.6876,-4.6876,-4.6876,-4.6876,-4.6876,-4.6876,-4.6876,-4.6876,-4.6876,-4.6876,-4.6876,-4.6876,-4.6876,-1.6252,-1.8555,-2.075,-2.1534,-2.293,0.0,0.0,-3.012,-3.0689,-3.1686,-3.2935,0.0,0.0,0.0,0.0,0.0,0.0,0.0,0.0,0.0,0.0,0.0,0.0,0.0,0.0,0.0,0.0,0.0,0.0,0.0,0.0,0.0,0.0,-4.6876,-4.6876,-4.7022,-4.7297,-4.7313,-4.7443,-4.7702,-4.8592,-4.903,-4.903,-4.903,-4.9175,-4.9418,-4.9143,-4.9175,-4.9402,-4.9127,-4.903,-4.8981,-4.856,-4.8236,-4.7929,-4.7168,-4.6876,-4.6876,-4.6876,-4.72,-4.7508,-4.7038,-4.72,-4.7508,-4.7022,-4.7216,-4.7491,-4.7022,-4.7216,-4.7475,-4.7006,-4.6876,-4.6876,-4.6876,-4.6876,-4.6876,-4.6876,-4.6876,-4.6876,-4.6876,-4.6876,-4.6876,-4.6876,-4.6876,-4.6876,-4.6876,-4.6876,-4.6876,-4.6876,-4.6876,-4.6876,-4.6876,-4.6876,-4.6876,-4.6876,-4.6876,-4.6876,-4.6876,-4.6876,-4.6876,-4.6876,-4.6876,-4.6876,-4.6876,-4.6876,-4.6876,-4.6876,-4.6876,-4.6876,-4.6876,-4.6876,-4.6876,-1.6537,-1.8761,-2.1068,0.0,0.0,0.0,-3.0684,-3.2206,-3.3194,-3.4781,0.0,0.0,0.0,0.0,0.0,0.0,0.0,0.0,0.0,0.0,0.0,0.0,0.0,0.0,0.0,0.0,0.0,0.0,0.0,0.0,0.0,0.0,0.0,0.0,-4.6876,-4.6876,-4.6876,-4.6876,-4.6876,-4.6892,-4.788,-4.835,-4.835,-4.835,-4.8479,-4.869,-4.8447,-4.8479,-4.869,-4.8447,-4.835,-4.8301,-4.7831,-4.7653,-4.7589,-4.7087,-4.6876,-4.6876,-4.6876,-4.7216,-4.7572,-4.7054,-4.7232,-4.7556,-4.7038,-4.7249,-4.7556,-4.7022,-4.7249,-4.754,-4.7022,-4.6876,-4.6876,-4.6876,-4.6876,-4.6876,-4.6876,-4.6876,-4.6876,-4.6876,-4.6876,-4.6876,-4.6876,-4.6876,-4.6876,-4.6876,-4.6876,-4.6876,-4.6876,-4.6876,-4.6876,-4.6876,-4.6876,-4.6876,-4.6876,-4.6876,-4.6876,-4.6876,-4.6876,-4.6876,-4.6876,-4.6876,-4.6876,-4.6876,-4.6876,-4.6876,-4.6876,-4.6876,-4.6876,-4.6876,-4.6876,-4.6876,-1.814,-1.9772,0.0,0.0,0.0,0.0,-3.1947,-3.2546,-3.3469,-3.8472,0.0,0.0,0.0,0.0,0.0,0.0,0.0,0.0,0.0,0.0,0.0,0.0,0.0,0.0,0.0,0.0,0.0,0.0,0.0,0.0,0.0,0.0,0.0,0.0,-4.6909,-4.6909,-4.6909,-4.6892,-4.6892,-4.6892,-4.6876,-4.6876,-4.6876,-4.6876,-4.7297,-4.7961,-4.7216,-4.7297,-4.7945,-4.72,-4.6876,-4.6892,-4.6876,-4.6876,-4.6892,-4.6876,-4.6876,-4.6876,-4.6876,-4.6876,-4.6892,-4.6876,-4.6876,-4.6892,-4.6876,-4.6876,-4.6892,-4.6876,-4.6892,-4.6892,-4.6876,-4.6876,-4.6876,-4.6876,-4.6876,-4.6876,-4.6876,-4.6876,-4.6876,-4.6876,-4.6876,-4.6876,-4.6876,-4.6876,-4.6876,-4.6876,-4.6876,-4.6876,-4.6876,-4.6876,-4.6876,-4.6876,-4.6876,-4.6876,-4.6876,-4.6876,-4.6876,-4.6876,-4.6876,-4.6876,-4.6876,-4.6876,-4.6876,-4.6876,-4.6876,-4.6876,-4.6876,-4.6876,-4.6876,-4.6876,-4.6876,-4.6876,-1.7416,0.0,0.0,0.0,0.0,0.0,0.0,-3.4101,0.0,0.0,0.0,0.0,0.0,0.0,0.0,0.0,0.0,0.0,0.0,0.0,0.0,0.0,0.0,0.0,0.0,0.0,0.0,0.0,0.0,0.0,0.0,0.0,0.0,0.0,-4.8398,-4.8398,-4.8398,-4.7912,-4.767,-4.767,-4.7135,-4.6876,-4.6876,-4.6876,-4.7006,-4.72,-4.6973,-4.7006,-4.72,-4.6973,-4.72,-4.7621,-4.7087,-4.7216,-4.7621,-4.7087,-4.6876,-4.6876,-4.6876,-4.7232,-4.7589,-4.7054,-4.7249,-4.7572,-4.7038,-4.7249,-4.7572,-4.7038,-4.7265,-4.7556,-4.7022,-4.6876,-4.6876,-4.6876,-4.6876,-4.6876,-4.6876,-4.6876,-4.6876,-4.6876,-4.6876,-4.6876,-4.6876,-4.6876,-4.6876,-4.6876,-4.6876,-4.6876,-4.6876,-4.6876,-4.6876,-4.6876,-4.6876,-4.6876,-4.6876,-4.6876,-4.6876,-4.6876,-4.6876,-4.6876,-4.6876,-4.6876,-4.6876,-4.6876,-4.6876,-4.6876,-4.6876,-4.6876,-4.6876,-4.6876,-4.6876,-4.6876,-1.9641,0.0,0.0,0.0,0.0,0.0,0.0,0.0,0.0,0.0,0.0,0.0,0.0,0.0,0.0,0.0,0.0,0.0,0.0,0.0,0.0,0.0,0.0,0.0,0.0,0.0,0.0,0.0,0.0,0.0,0.0,0.0,0.0,0.0,-4.8754,-4.8625,-4.8625,-4.7912,-4.7556,-4.7556,-4.7103,-4.6876,-4.6876,-4.6876,-4.6876,-4.6876,-4.6876,-4.6876,-4.6876,-4.6876,-4.7151,-4.7524,-4.7054,-4.7168,-4.7508,-4.7054,-4.6876,-4.6876,-4.6876,-4.7184,-4.7491,-4.7038,-4.72,-4.7475,-4.7022,-4.72,-4.7459,-4.7022,-4.7216,-4.7459,-4.7006,-4.6876,-4.6876,-4.6876,-4.6876,-4.6876,-4.6876,-4.6876,-4.6876,-4.6876,-4.6876,-4.6876,-4.6876,-4.6876,-4.6876,-4.6876,-4.6876,-4.6876,-4.6876,-4.6876,-4.6876,-4.6876,-4.6876,-4.6876,-4.6876,-4.6876,-4.6876,-4.6876,-4.6876,-4.6876,-4.6876,-4.6876,-4.6876,-4.6876,-4.6876,-4.6876,-4.6876,-4.6876,-4.6876,-4.6876,-4.6876,-4.6876,-2.3139,0.0,0.0,0.0,0.0,0.0,0.0,0.0,0.0,0.0,0.0,0.0,0.0,0.0,0.0,0.0,0.0,0.0,0.0,0.0,0.0,0.0,0.0,0.0,0.0,0.0,0.0,0.0,0.0,0.0,0.0,0.0,0.0,-4.8803,-4.8301,-4.801,-4.801,-4.733,-4.6989,0.0,-4.6909,-4.6876,-4.6876,-4.6876,-4.6876,-4.6876,-4.6876,-4.6876,-4.6876,-4.6876,-4.6876,-4.6876,-4.6876,-4.6876,-4.6876,-4.6876,-4.6876,-4.6876,-4.6876,-4.6876,-4.6876,-4.6876,-4.6876,-4.6876,-4.6876,-4.6925,-4.6989,-4.6989,-4.6989,-4.6989,-4.6989,-4.6941,-4.6876,-4.6876,-4.6876,-4.6876,-4.6876,-4.6876,-4.6876,-4.6876,-4.6876,-4.6876,-4.6876,-4.6876,-4.6876,-4.6876,-4.6876,-4.6876,-4.6876,-4.6876,-4.6876,-4.6876,-4.6876,-4.6876,-4.6876,-4.6876,-4.6876,-4.6876,-4.6876,-4.6876,-4.6876,-4.6876,-4.6876,-4.6876,-4.6876,-4.6876,-4.6876,-4.6876,-4.6876,-4.6876,-4.6876,-4.6876,0.0,-2.3835,0.0,0.0,0.0,0.0,0.0,0.0,0.0,0.0,0.0,0.0,0.0,0.0,0.0,0.0,0.0,0.0,0.0,0.0,0.0,0.0,0.0,0.0,0.0,0.0,0.0,0.0,0.0,0.0,0.0,0.0,0.0,-4.7346,-4.7767,-4.801,-4.801,-4.7848,-4.7767,0.0,-4.7168,-4.6876,-4.6876,-4.6876,-4.6876,-4.6876,-4.6876,-4.6876,-4.6876,-4.6876,-4.6876,-4.6876,-4.6876,-4.6876,-4.6876,-4.6876,-4.6876,-4.6876,-4.6876,-4.6876,-4.6876,-4.6876,-4.6876,-4.6876,-4.6876,-4.7297,-4.7767,-4.7767,-4.7767,-4.7767,-4.7767,-4.733,-4.6876,-4.6876,-4.6876,-4.6876,-4.6876,-4.6876,-4.6876,-4.6876,-4.6876,-4.6876,-4.6876,-4.6876,-4.6876,-4.6876,-4.6876,-4.6876,-4.6876,-4.6876,-4.6876,-4.6876,-4.6876,-4.6876,-4.6876,-4.6876,-4.6876,-4.6876,-4.6876,-4.6876,-4.6876,-4.6876,-4.6876,-4.6876,-4.6876,-4.6876,-4.6876,-4.6876,-4.6876,-4.6876,-4.6876,-4.6876,0.0,0.0,0.0,0.0,0.0,0.0,0.0,0.0,0.0,0.0,0.0,0.0,0.0,0.0,0.0,0.0,0.0,0.0,0.0,0.0,0.0,0.0,0.0,0.0,0.0,0.0,0.0,0.0,0.0,0.0,0.0,-4.6358,-4.6536,-4.6876,-4.6925,-4.6957,-4.6957,-4.6633,-4.6633,-4.6941,-4.6552,-4.6552,-4.6876,-4.6876,-4.6876,-4.6876,-4.6876,-4.6876,-4.6876,-4.6876,-4.6876,-4.6876,-4.6876,-4.6876,-4.6876,-4.6876,-4.6876,-4.6876,-4.6876,-4.6876,-4.6876,-4.6876,-4.6876,-4.6876,-4.6876,-4.7168,-4.7475,-4.7475,-4.7475,-4.7475,-4.7475,-4.7443,-4.733,-4.6973,-4.6876,-4.6876,-4.6876,-4.6876,-4.6876,-4.6876,-4.6876,-4.6876,-4.6876,-4.6876,-4.6876,-4.6876,-4.6876,-4.6876,-4.6876,-4.6876,-4.6876,-4.6876,-4.6876,-4.6876,-4.6876,-4.6876,-4.6876,-4.6876,-4.6876,-4.6876,-4.6876,-4.6876,-4.6876,-4.6876,-4.6876,-4.6876,-4.6876,-4.6876,-4.6876,-4.6876,-4.6876,-4.6876,0.0,0.0,0.0,0.0,0.0,0.0,0.0,0.0,0.0,0.0,0.0,0.0,0.0,0.0,0.0,0.0,0.0,0.0,0.0,0.0,0.0,0.0,0.0,0.0,0.0,0.0,0.0,0.0,0.0,0.0,-4.5192,-4.5257,-4.5532,-4.6131,-4.5694,-4.5451,-4.5451,-4.4998,-4.5079,-4.5629,-4.5629,-4.6002,-4.6698,-4.6698,-4.6763,-4.6876,-4.6876,-4.6876,-4.6876,-4.6876,-4.6876,-4.6876,-4.6876,-4.6807,-4.6738,-4.6876,-4.6807,-4.6738,-4.6876,-4.6876,-4.6876,-4.6876,-4.6876,-4.6876,-4.6738,-4.6749,-4.6846,-4.6846,-4.6846,-4.6915,-4.707,-4.754,-4.7815,-4.707,-4.6989,-4.7038,-4.6909,-4.6876,-4.6876,-4.6876,-4.6876,-4.6876,-4.6876,-4.6876,-4.6876,-4.6876,-4.6876,-4.6876,-4.6876,-4.6876,-4.6876,-4.6876,-4.6876,-4.6876,-4.6876,-4.6876,-4.6876,-4.6876,-4.6876,-4.6876,-4.6876,-4.6876,-4.6876,-4.6876,-4.6876,-4.6876,-4.6876,-4.6876,-4.6876,-4.6876,-4.6876,-4.6876,0.0,0.0,0.0,0.0,0.0,0.0,0.0,0.0,0.0,0.0,0.0,0.0,0.0,0.0,0.0,0.0,0.0,0.0,0.0,0.0,0.0,0.0,0.0,0.0,0.0,0.0,0.0,0.0,0.0,0.0,-4.3039,-4.3055,-4.3103,-4.3201,-4.3719,-4.3994,-4.3994,-4.4528,-4.4836,-4.4917,-4.4917,-4.5289,-4.5953,-4.5953,-4.6293,-4.6876,-4.6876,-4.6876,-4.6876,-4.6876,-4.6876,-4.6876,-4.6876,-4.6442,-4.5913,-4.6652,-4.6442,-4.5985,-4.6668,-4.6876,-4.6876,-4.6876,-4.6876,-4.6738,-4.6072,-4.6285,-4.6834,-4.6834,-4.6834,-4.6996,-4.7706,-4.7945,-4.7815,-4.707,-4.7378,-4.7686,-4.7022,-4.6876,-4.6876,-4.6876,-4.6876,-4.6876,-4.6876,-4.6876,-4.6876,-4.6876,-4.6876,-4.6876,-4.6876,-4.6876,-4.6876,-4.6876,-4.6876,-4.6876,-4.6876,-4.6876,-4.6876,-4.6876,-4.6876,-4.6876,-4.6876,-4.6876,-4.6876,-4.6876,-4.6876,-4.6876,-4.6876,-4.6876,-4.6876,-4.6876,-4.6876,-4.6876,0.0,0.0,0.0,0.0,0.0,0.0,0.0,0.0,0.0,0.0,0.0,0.0,0.0,0.0,0.0,0.0,0.0,0.0,0.0,0.0,0.0,0.0,0.0,0.0,0.0,0.0,0.0,0.0,0.0,-4.2142,-4.2571,-4.2222,-4.2142,-4.2571,-4.2941,-4.3103,-4.3103,-4.3427,-4.3783,-4.4188,-4.4593,-4.4949,-4.5257,-4.5629,-4.6196,-4.6876,-4.6876,-4.6876,-4.6876,-4.6876,-4.6652,-4.6214,-4.6214,-4.5769,-4.5036,-4.5405,-4.5332,-4.511,-4.5405,-4.5551,-4.5551,-4.5551,-4.5841,-4.6072,-4.5258,-4.5551,-4.6155,-4.6155,-4.5861,-4.5786,-4.7081,-4.7371,-4.7381,-4.7518,-4.7767,-4.7929,-4.7589,-4.7184,-4.6876,-4.6876,-4.6876,-4.6876,-4.6876,-4.6876,-4.6876,-4.6876,-4.6876,-4.6876,-4.6876,-4.6876,-4.6876,-4.6876,-4.6876,-4.6876,-4.6876,-4.6876,-4.6876,-4.6876,-4.6876,-4.6876,-4.6876,-4.6876,-4.6876,-4.6876,-4.6876,-4.6876,-4.6876,-4.6876,-4.6876,-4.6876,-4.6876,-4.6876,0.0,0.0,0.0,0.0,0.0,0.0,0.0,0.0,0.0,0.0,0.0,0.0,0.0,0.0,0.0,0.0,0.0,0.0,0.0,0.0,0.0,0.0,0.0,0.0,0.0,0.0,0.0,0.0,0.0,-4.2013,-4.2571,-4.1868,-4.1738,-4.2285,-4.2285,-4.2285,-4.2285,-4.2492,-4.2909,-4.3443,-4.3767,-4.4055,-4.4248,-4.4529,-4.5138,-4.5843,-4.6352,-4.6598,-4.6582,-4.6356,-4.5913,-4.5405,-4.5405,-4.4871,-4.4205,-4.4434,-4.4358,-4.4205,-4.4434,-4.451,-4.451,-4.451,-4.4887,-4.5243,-4.4434,-4.4571,-4.5095,-4.5095,-4.4646,-4.4586,-4.6214,-4.6525,-4.6681,-4.7477,-4.7693,-4.7716,-4.7696,-4.7281,-4.6807,-4.6652,-4.6738,-4.6823,-4.6652,-4.6738,-4.6876,-4.6876,-4.6876,-4.6876,-4.6876,-4.6876,-4.6876,-4.6876,-4.6876,-4.6807,-4.6582,-4.6807,-4.6807,-4.6582,-4.6807,-4.6807,-4.6582,-4.6598,-4.6512,-4.6285,-4.6285,-4.6512,-4.6876,-4.6876,-4.6876,-4.6876,-4.6876,-4.6876,0.0,0.0,0.0,0.0,0.0,0.0,0.0,0.0,0.0,0.0,0.0,0.0,0.0,0.0,0.0,0.0,0.0,0.0,0.0,0.0,0.0,0.0,0.0,0.0,0.0,0.0,0.0,0.0,0.0,-4.2571,-4.2634,-4.1868,-4.1525,-4.1525,-4.1525,-4.1525,-4.1525,-4.2285,-4.265,-4.2619,-4.1963,-4.205,-4.2699,-4.2031,-4.2138,-4.2922,-4.4897,-4.5769,-4.5697,-4.4962,-4.4586,-4.4586,-4.4586,-4.4051,-4.3442,-4.4205,-4.4051,-4.3442,-4.4205,-4.451,-4.451,-4.451,-4.451,-4.4434,-4.36,-4.3364,-4.3427,-4.3427,-4.3364,-4.3741,-4.5316,-4.57,-4.585,-4.6548,-4.6845,-4.6875,-4.6948,-4.6909,-4.6652,-4.5913,-4.6372,-4.6668,-4.5913,-4.6356,-4.6876,-4.6876,-4.6876,-4.6876,-4.6876,-4.6876,-4.6876,-4.6876,-4.6876,-4.6582,-4.5841,-4.6442,-4.6582,-4.5841,-4.6512,-4.6582,-4.5769,-4.5769,-4.5405,-4.4662,-4.4586,-4.5405,-4.6876,-4.6876,-4.6876,-4.6876,-4.6876,-4.6876,0.0,0.0,0.0,0.0,0.0,0.0,0.0,0.0,0.0,0.0,0.0,0.0,0.0,0.0,0.0,0.0,0.0,0.0,0.0,0.0,0.0,0.0,0.0,0.0,0.0,0.0,0.0,0.0,0.0,0.0,-4.1868,-4.0758,-4.0554,-4.1459,-4.1044,-4.0758,-4.0758,-4.1044,-4.1178,-4.1178,-4.0909,-4.0966,-4.1215,-4.1372,-4.1641,-4.1934,-4.2655,-4.3448,-4.4309,-4.4476,-4.4205,-4.3741,-4.3741,-4.322,-4.2541,-4.285,-4.2784,-4.2541,-4.285,-4.293,-4.293,-4.293,-4.3299,-4.36,-4.2769,-4.2915,-4.3284,-4.3284,-4.2915,-4.293,-4.451,-4.4542,-4.4339,-4.5108,-4.5661,-4.5997,-4.6144,-4.6512,-4.6807,-4.6512,-4.6722,-4.6807,-4.6512,-4.6738,-4.6876,-4.6876,-4.6876,-4.6876,-4.6876,-4.6876,-4.6722,-4.6214,-4.6582,-4.6372,-4.5036,-4.5697,-4.5769,-4.4962,-4.5184,-4.5258,-4.4962,-4.4962,-4.4812,-4.451,-4.451,-4.4812,-4.5332,-4.5841,-4.6143,-4.6143,-4.6668,-4.6876,-1.3686,0.0,0.0,0.0,0.0,0.0,0.0,0.0,0.0,0.0,0.0,0.0,0.0,0.0,0.0,0.0,0.0,0.0,0.0,0.0,0.0,0.0,0.0,0.0,0.0,0.0,0.0,0.0,0.0,0.0,-4.0423,-3.9344,-3.9228,-4.0417,-4.0155,-4.0139,-4.0416,-4.0416,-4.0416,-4.0416,-4.0139,-3.9999,-4.0015,-4.0258,-4.0383,-4.0429,-4.0547,-4.155,-4.3121,-4.3289,-4.3169,-4.2915,-4.2915,-4.2541,-4.2092,-4.2092,-4.2092,-4.2092,-4.2092,-4.2092,-4.2092,-4.2092,-4.2474,-4.2769,-4.2242,-4.2459,-4.2915,-4.2915,-4.2459,-4.2295,-4.3756,-4.3829,-4.3539,-4.3864,-4.4461,-4.4906,-4.507,-4.5681,-4.6214,-4.604,-4.6056,-4.6056,-4.5665,-4.5809,-4.6111,-4.6426,-4.6356,-4.6285,-4.6372,-4.6285,-4.5913,-4.5138,-4.5504,-4.5285,-4.3944,-4.4615,-4.469,-4.3944,-4.4098,-4.4098,-4.3866,-4.3959,-4.3804,-4.357,-4.3678,-4.3678,-4.3693,-4.4796,-4.5332,-4.5332,-4.5857,-4.6214,0.0,0.0,0.0,0.0,0.0,0.0,0.0,0.0,0.0,0.0,0.0,0.0,0.0,0.0,0.0,0.0,0.0,0.0,0.0,0.0,0.0,0.0,0.0,0.0,0.0,0.0,0.0,0.0,0.0,-3.8415,-3.8481,-3.7752,-3.7728,-3.8287,-3.8931,-3.9531,-4.0317,-4.0317,-4.0332,-4.0347,-3.9591,-3.9247,-3.9233,-3.8546,-3.8202,-3.8246,-3.8884,-4.0309,-4.213,-4.1368,-4.1482,-4.2063,-4.2092,-4.2092,-4.2092,-4.2092,-4.2092,-4.2092,-4.2092,-4.2107,-4.2121,-4.2107,-4.2107,-4.2121,-4.2107,-4.2092,-4.2092,-4.2092,-4.1897,-4.1937,-4.2966,-4.3492,-4.3627,-4.3004,-4.3183,-4.3545,-4.3723,-4.4388,-4.4856,-4.419,-4.4464,-4.4343,-4.316,-4.3587,-4.4418,-4.5463,-4.5316,-4.5095,-4.5332,-4.5036,-4.4479,-4.3821,-4.3821,-4.3431,-4.2666,-4.3274,-4.3431,-4.2585,-4.3274,-4.3367,-4.2614,-4.279,-4.2496,-4.1745,-4.1955,-4.215,-4.215,-4.3708,-4.4434,-4.4434,-4.451,-4.4902,-1.2668,0.0,0.0,0.0,0.0,0.0,0.0,0.0,0.0,0.0,0.0,0.0,0.0,0.0,0.0,0.0,0.0,0.0,0.0,0.0,0.0,0.0,0.0,0.0,0.0,0.0,0.0,0.0,-3.6766,-3.7168,-3.7699,-3.7496,-3.7243,-3.6904,-3.7009,-3.7474,-3.8161,-3.8176,-3.8398,-3.8826,-3.862,-3.8472,-3.8486,-3.8263,-3.8202,-3.8217,-3.8405,-3.9095,-4.0066,-4.0793,-4.1207,-4.1424,-4.1903,-4.2092,-4.2092,-4.2092,-4.2092,-4.2092,-4.2092,-4.2285,-4.2406,-4.2154,-4.2299,-4.2406,-4.214,-4.198,-4.1883,-4.2092,-4.1829,-4.1549,-4.1868,-4.1999,-4.2071,-4.1814,-4.1915,-4.214,-4.279,-4.2906,-4.3066,-4.3743,-4.3975,-4.399,-4.3603,-4.3743,-4.396,-4.4281,-4.422,-4.422,-4.422,-4.4144,-4.3743,-4.3051,-4.3431,-4.321,-4.1854,-4.2438,-4.26,-4.1771,-4.1922,-4.2125,-4.235,-4.2449,-4.2595,-4.2811,-4.284,-4.2926,-4.2926,-4.3426,-4.36,-4.3678,-4.4205,-4.4833,-1.3867,-1.4948,0.0,0.0,0.0,0.0,0.0,0.0,0.0,0.0,0.0,0.0,0.0,0.0,0.0,0.0,0.0,0.0,0.0,0.0,0.0,0.0,0.0,0.0,0.0,0.0,0.0,-3.5488,-3.5447,-3.5572,-3.6011,-3.6276,-3.63,-3.5909,-3.617,-3.6504,-3.6881,-3.6881,-3.7201,-3.7825,-3.7825,-3.7955,-3.8202,-3.8142,-3.8066,-3.8066,-3.7991,-3.8207,-3.864,-3.9636,-4.0452,-4.0987,-4.1377,-4.1695,-4.1829,-4.1829,-4.1829,-4.1829,-4.1897,-4.2045,-4.215,-4.2233,-4.2177,-4.2066,-4.2163,-4.1933,-4.1633,-4.1745,-4.1578,-4.1396,-4.1283,-4.1198,-4.1198,-4.1198,-4.1213,-4.1198,-4.1728,-4.1659,-4.1811,-4.2971,-4.3051,-4.2826,-4.2651,-4.2636,-4.2797,-4.3195,-4.313,-4.3051,-4.313,-4.3066,-4.2666,-4.1879,-4.2275,-4.2126,-4.1213,-4.1736,-4.1849,-4.1142,-4.1639,-4.1966,-4.1964,-4.2408,-4.2706,-4.3076,-4.3165,-4.3165,-4.3165,-4.3251,-4.3289,-4.3304,-4.4062,-4.4739,-1.5588,-1.6133,0.0,0.0,0.0,0.0,-2.0564,-2.1408,0.0,0.0,0.0,0.0,0.0,0.0,0.0,0.0,0.0,0.0,0.0,0.0,0.0,0.0,0.0,0.0,0.0,-3.423,-3.4259,-3.4346,-3.421,-3.4059,-3.4059,-3.4661,-3.5047,-3.5256,-3.5737,-3.607,-3.6128,-3.6128,-3.6461,-3.7128,-3.72,-3.7504,-3.8026,-3.7886,-3.7853,-3.7853,-3.7701,-3.7625,-3.7667,-3.821,-3.9326,-4.0608,-4.0752,-4.0976,-4.131,-4.1381,-4.1396,-4.1396,-4.1619,-4.1592,-4.1581,-4.2295,-4.2152,-4.1696,-4.2181,-4.1938,-4.1481,-4.1326,-4.1311,-4.1297,-4.1001,-4.1001,-4.1001,-4.1001,-4.0859,-4.0702,-4.0702,-4.0702,-4.1015,-4.1976,-4.1825,-4.1437,-4.1001,-4.1001,-4.1324,-4.2275,-4.2117,-4.1995,-4.214,-4.1897,-4.1439,-4.0787,-4.0758,-4.08,-4.08,-4.1362,-4.1488,-4.094,-4.1966,-4.2345,-4.184,-4.2523,-4.3041,-4.3097,-4.3201,-4.329,-4.329,-4.3236,-4.3165,-4.3253,-4.3949,-4.4391,-1.6849,-1.7046,-1.7195,-1.6291,0.0,0.0,0.0,-1.7374,0.0,0.0,0.0,0.0,0.0,0.0,0.0,0.0,0.0,0.0,0.0,0.0,0.0,0.0,0.0,0.0,0.0,-3.3164,-3.346,-3.3991,-3.3951,-3.3951,-3.3951,-3.4066,-3.4137,-3.4206,-3.4321,-3.4622,-3.5095,-3.5095,-3.544,-3.6099,-3.6601,-3.6902,-3.7032,-3.7458,-3.7701,-3.7701,-3.7625,-3.7625,-3.7625,-3.7753,-3.8253,-3.9104,-4.0149,-4.0621,-4.071,-4.121,-4.1396,-4.1396,-4.1465,-4.1625,-4.1909,-4.2281,-4.2495,-4.2548,-4.2352,-4.2066,-4.1781,-4.1014,-4.0944,-4.1015,-4.0773,-4.0773,-4.0773,-4.0773,-4.0688,-4.0702,-4.0702,-4.0702,-4.0773,-4.093,-4.0944,-4.0859,-4.0773,-4.0773,-4.0859,-4.1015,-4.144,-4.1509,-4.1086,-4.1368,-4.1409,-4.0758,-4.1137,-4.1432,-4.1432,-4.2022,-4.2331,-4.2219,-4.2444,-4.2753,-4.3104,-4.3336,-4.3631,-4.4124,-4.4138,-4.4138,-4.4138,-4.3485,-4.3165,-4.3165,-4.3326,-4.376,-1.8063,-1.7837,-1.7825,-1.7081,0.0,0.0,0.0,0.0,0.0,0.0,0.0,0.0,0.0,0.0,0.0,0.0,0.0,0.0,0.0,0.0,0.0,0.0,0.0,0.0,0.0,-3.2439,-3.2516,-3.2777,-3.3104,-3.3289,-3.3289,-3.3587,-3.3827,-3.3896,-3.3896,-3.4039,-3.4339,-3.4339,-3.4654,-3.5268,-3.5582,-3.6068,-3.6696,-3.6935,-3.7172,-3.7457,-3.7303,-3.7303,-3.7303,-3.7303,-3.7487,-3.7934,-3.8979,-3.9467,-3.974,-4.0363,-4.059,-4.0632,-4.1099,-4.1241,-4.1467,-4.1966,-4.2176,-4.2255,-4.2446,-4.2146,-4.1663,-4.087,-4.0773,-4.0859,-4.0702,-4.0702,-4.0702,-4.0702,-4.0702,-4.0702,-4.0702,-4.0702,-4.0702,-4.0702,-4.0702,-4.0702,-4.0702,-4.0702,-4.08,-4.1109,-4.1418,-4.1502,-4.1193,-4.1699,-4.1854,-4.1221,-4.1727,-4.2093,-4.2093,-4.2669,-4.2907,-4.2598,-4.3146,-4.3497,-4.3497,-4.3793,-4.4102,-4.4397,-4.4411,-4.4411,-4.4411,-4.3963,-4.3848,-4.3848,-4.3848,-4.4004,0.0,0.0,0.0,0.0,0.0,-1.8625,0.0,0.0,0.0,-2.0288,0.0,0.0,0.0,0.0,0.0,0.0,0.0,0.0,0.0,0.0,0.0,0.0,0.0,0.0,0.0,-3.119,-3.1326,-3.1613,-3.1698,-3.2047,-3.2588,-3.3083,-3.3492,-3.3758,-3.3758,-3.3758,-3.3758,-3.3758,-3.4055,-3.4526,-3.4654,-3.5253,-3.6191,-3.6269,-3.6575,-3.7056,-3.7014,-3.6978,-3.6978,-3.6978,-3.6978,-3.7049,-3.7825,-3.8375,-3.8749,-3.9381,-3.9606,-3.9774,-4.0534,-4.0675,-4.0645,-4.1637,-4.1874,-4.1896,-4.243,-4.2135,-4.1531,-4.1165,-4.0884,-4.073,-4.0842,-4.0786,-4.0702,-4.0702,-4.0702,-4.0702,-4.0702,-4.0702,-4.0702,-4.0702,-4.0702,-4.0702,-4.0702,-4.0702,-4.0898,-4.1516,-4.1727,-4.1797,-4.1797,-4.2359,-4.2514,-4.1868,-4.2374,-4.2753,-4.2753,-4.3329,-4.3469,-4.2964,-4.3863,-4.4186,-4.3694,-4.4144,-4.4411,-4.4411,-4.4411,-4.4411,-4.4411,-4.4411,-4.4411,-4.4411,-4.4411,-4.4504,0.0,0.0,0.0,0.0,-1.9288,0.0,0.0,0.0,-1.8264,-1.743,0.0,0.0,0.0,0.0,0.0,0.0,0.0,0.0,0.0,0.0,0.0,0.0,0.0,0.0,0.0,0.0,-2.9172,-3.1382,-2.958,-2.9566,-3.2258,-3.2469,-3.2764,-3.3382,-3.3396,-3.3396,-3.3396,-3.3396,-3.3424,-3.3494,-3.4043,-3.4309,-3.455,-3.5648,-3.6183,-3.6282,-3.6754,-3.6978,-3.6978,-3.6978,-3.6978,-3.7049,-3.7667,-3.7948,-3.8088,-3.8735,-3.8974,-3.9058,-3.9759,-3.9887,-4.0069,-4.1235,-4.2008,-4.2486,-4.2556,-4.2135,-4.1727,-4.2219,-4.1559,-4.0814,-4.1376,-4.1109,-4.0702,-4.0702,-4.0702,-4.0702,-4.0702,-4.0702,-4.0702,-4.0702,-4.0702,-4.0702,-4.0702,-4.0702,-4.0898,-4.1516,-4.2107,-4.2472,-4.2472,-4.3006,-4.316,-4.2528,-4.302,-4.3399,-4.3399,-4.3947,-4.4284,-4.4214,-4.4326,-4.4383,-4.4312,-4.4369,-4.4411,-4.4411,-4.4411,-4.4411,-4.4411,-4.4411,-4.4411,-4.4411,-4.4411,-4.4411,0.0,0.0,0.0,0.0,0.0,0.0,0.0,0.0,-1.7941,0.0,0.0,0.0,0.0,0.0,0.0,0.0,0.0,0.0,0.0,0.0,0.0,0.0,0.0,0.0,0.0,0.0,0.0,0.0,0.0,-2.8507,-3.0164,-3.1626,-3.2525,-3.2778,-3.3143,-3.3326,-3.3326,-3.3326,-3.3326,-3.3326,-3.3593,-3.3888,-3.4181,-3.4773,-3.5391,-3.6079,-3.6346,-3.6655,-3.6978,-3.6978,-3.6978,-3.7021,-3.7274,-3.7372,-3.7442,-3.8074,-3.8313,-3.8397,-3.903,-3.9493,-3.9985,-4.1221,-4.1797,-4.2093,-4.2458,-4.2388,-4.2149,-4.205,-4.1629,-4.1292,-4.1545,-4.1151,-4.0786,-4.1151,-4.0955,-4.0702,-4.0702,-4.0702,-4.0702,-4.0702,-4.0702,-4.0702,-4.0702,-4.0702,-4.1039,-4.2022,-4.2402,-4.2711,-4.3076,-4.3652,-4.3793,-4.3174,-4.3652,-4.4031,-4.4031,-4.4256,-4.4411,-4.4411,-4.4411,-4.4411,-4.4411,-4.4411,-4.4411,-4.4411,-4.4411,-4.4411,-4.4411,-4.4411,-4.4411,-4.4411,-4.4411,-4.4411,-2.0119,0.0,0.0,0.0,0.0,0.0,0.0,0.0,0.0,0.0,0.0,0.0,0.0,0.0,0.0,0.0,0.0,0.0,0.0,0.0,0.0,0.0,0.0,0.0,0.0,0.0,0.0,0.0,0.0,0.0,-2.8591,-3.0403,-3.171,-3.2384,-3.2834,-3.3143,-3.3326,-3.3326,-3.3326,-3.3326,-3.3326,-3.355,-3.3986,-3.4155,-3.4815,-3.5826,-3.5995,-3.6416,-3.6978,-3.6978,-3.6978,-3.6978,-3.6978,-3.6978,-3.7035,-3.7484,-3.7639,-3.7737,-3.8383,-3.9128,-3.9957,-4.1011,-4.1474,-4.1699,-4.2177,-4.2317,-4.2261,-4.1966,-4.1629,-4.1446,-4.1783,-4.1292,-4.0856,-4.1474,-4.1151,-4.0702,-4.0702,-4.0702,-4.0702,-4.0702,-4.0702,-4.0702,-4.0702,-4.0702,-4.1067,-4.2149,-4.2458,-4.2809,-4.3413,-4.4031,-4.4242,-4.3793,-4.4144,-4.4411,-4.4411,-4.4411,-4.4411,-4.4411,-4.4411,-4.4411,-4.4411,-4.4411,-4.4411,-4.4411,-4.4411,-4.4411,-4.4411,-4.4411,-4.4411,-4.4411,-4.4411,-4.4411,0.0,0.0,0.0,-1.9964,0.0,0.0,0.0,0.0,-1.9165,0.0,0.0,0.0,0.0,0.0,0.0,-1.6775,0.0,0.0,0.0,0.0,0.0,0.0,0.0,0.0,0.0,0.0,0.0,0.0,0.0,0.0,-2.8436,-2.8774,-2.9912,-3.2328,-3.2426,-3.2721,-3.3312,-3.3326,-3.3326,-3.3326,-3.3326,-3.3326,-3.3368,-3.3958,-3.459,-3.5282,-3.5812,-3.6416,-3.6978,-3.6978,-3.6978,-3.6978,-3.6978,-3.6978,-3.6978,-3.7007,-3.7021,-3.7105,-3.7723,-3.8749,-3.9887,-4.0519,-4.1123,-4.1615,-4.1643,-4.1643,-4.1769,-4.2374,-4.1671,-4.1011,-4.2233,-4.1629,-4.0856,-4.1474,-4.1151,-4.0702,-4.0702,-4.0702,-4.0702,-4.0702,-4.0702,-4.0702,-4.0702,-4.0702,-4.0912,-4.1559,-4.2177,-4.2809,-4.3413,-4.4031,-4.4397,-4.4383,-4.4397,-4.4411,-4.4411,-4.4411,-4.4411,-4.4411,-4.4411,-4.4411,-4.4411,-4.4411,-4.4411,-4.4411,-4.4411,-4.4411,-4.4411,-4.4411,-4.4411,-4.4411,-4.4411,-4.4411,0.0,0.0,-2.4868,-2.1974,0.0,0.0,0.0,0.0,0.0,0.0,0.0,0.0,0.0,0.0,-1.7534,-1.7323,-1.6593,0.0,0.0,0.0,0.0,0.0,0.0,0.0,0.0,0.0,0.0,0.0,0.0,0.0,0.0,-2.8183,-2.9869,-3.112,-3.1963,-3.2707,-3.3312,-3.3326,-3.3326,-3.3326,-3.3326,-3.3326,-3.3326,-3.3536,-3.3972,-3.4576,-3.5194,-3.5812,-3.6416,-3.6824,-3.6978,-3.6978,-3.6978,-3.6978,-3.6978,-3.6978,-3.6978,-3.7077,-3.7681,-3.8454,-3.9269,-3.9901,-4.0505,-4.1081,-4.1488,-4.1615,-4.1657,-4.1882,-4.1938,-4.1938,-4.1938,-4.1629,-4.1362,-4.1559,-4.1151,-4.0702,-4.0702,-4.0702,-4.0702,-4.0702,-4.0702,-4.0702,-4.0702,-4.0702,-4.1053,-4.2093,-4.2444,-4.295,-4.3975,-4.4284,-4.4411,-4.4411,-4.4411,-4.4411,-4.4411,-4.4411,-4.4411,-4.4411,-4.4411,-4.4411,-4.4411,-4.4411,-4.4411,-4.4411,-4.4411,-4.4411,-4.4411,-4.4411,-4.4411,-4.4411,-4.4411,-4.4411,-2.5554,-2.6413,0.0,-2.4165,-2.4278,0.0,-2.1117,0.0,0.0,0.0,0.0,0.0,0.0,0.0,0.0,-1.8222,-1.7028,0.0,0.0,0.0,0.0,0.0,0.0,0.0,0.0,0.0,-1.9768,-2.0948,0.0,0.0,0.0,0.0,-2.8872,-3.015,-3.1429,-3.237,-3.2988,-3.3213,-3.3326,-3.3326,-3.3326,-3.3326,-3.3326,-3.3326,-3.3663,-3.4181,-3.466,-3.5307,-3.6093,-3.6501,-3.6796,-3.6978,-3.6978,-3.6978,-3.6978,-3.6978,-3.6978,-3.7077,-3.7681,-3.8173,-3.8664,-3.9507,-4.0041,-4.0491,-4.1109,-4.1292,-4.1334,-4.1559,-4.1755,-4.1924,-4.1952,-4.1629,-4.1334,-4.1559,-4.1151,-4.0702,-4.0702,-4.0702,-4.0702,-4.0702,-4.0702,-4.0702,-4.0702,-4.0702,-4.1053,-4.2078,-4.243,-4.295,-4.3947,-4.4284,-4.4411,-4.4411,-4.4411,-4.4411,-4.4411,-4.4411,-4.4411,-4.4411,-4.4411,-4.4411,-4.4411,-4.4411,-4.4411,-4.4411,-4.4411,-4.4411,-4.4411,-4.4411,-4.4411,-4.4411,-4.4411,-4.4411]}]]